<?xml version="1.0" encoding="UTF-8" standalone="no" ?>
<gpx xmlns="http://www.topografix.com/GPX/1/1" xmlns:xsi="http://www.w3.org/2001/XMLSchema-instance" xsi:schemaLocation="http://www.topografix.com/GPX/1/1 http://www.topografix.com/GPX/1/1/gpx.xsd" version="1.1" creator="VisuGPX - https://www.visugpx.com">
  <metadata>
    <name> Times Square en long en large et en travers</name>
    <desc><![CDATA[ Times Square en long en large et en travers]]></desc>
  </metadata>
  <trk>
    <name><![CDATA[ Times Square en long en large et en travers_1]]></name>
    <trkseg>
      <trkpt lat="40.76043" lon="-73.98276">
        <ele>249</ele>
        <time>2012-04-09T18:51:08Z</time>
      </trkpt>
      <trkpt lat="40.76038" lon="-73.98315">
        <ele>234</ele>
        <time>2012-04-09T18:51:58Z</time>
      </trkpt>
      <trkpt lat="40.76043" lon="-73.98322">
        <ele>233</ele>
        <time>2012-04-09T18:51:59Z</time>
      </trkpt>
      <trkpt lat="40.76048" lon="-73.98328">
        <ele>232</ele>
        <time>2012-04-09T18:52:00Z</time>
      </trkpt>
      <trkpt lat="40.76051" lon="-73.98332">
        <ele>231</ele>
        <time>2012-04-09T18:52:01Z</time>
      </trkpt>
      <trkpt lat="40.76052" lon="-73.98341">
        <ele>230</ele>
        <time>2012-04-09T18:52:02Z</time>
      </trkpt>
      <trkpt lat="40.76055" lon="-73.98345">
        <ele>229</ele>
        <time>2012-04-09T18:52:03Z</time>
      </trkpt>
      <trkpt lat="40.76062" lon="-73.98356">
        <ele>227</ele>
        <time>2012-04-09T18:52:06Z</time>
      </trkpt>
      <trkpt lat="40.76062" lon="-73.98364">
        <ele>225</ele>
        <time>2012-04-09T18:52:07Z</time>
      </trkpt>
      <trkpt lat="40.76053" lon="-73.98368">
        <ele>223</ele>
        <time>2012-04-09T18:52:09Z</time>
      </trkpt>
      <trkpt lat="40.76052" lon="-73.98372">
        <ele>221</ele>
        <time>2012-04-09T18:52:10Z</time>
      </trkpt>
      <trkpt lat="40.76054" lon="-73.98376">
        <ele>220</ele>
        <time>2012-04-09T18:52:11Z</time>
      </trkpt>
      <trkpt lat="40.76054" lon="-73.9838">
        <ele>218</ele>
        <time>2012-04-09T18:52:12Z</time>
      </trkpt>
      <trkpt lat="40.76054" lon="-73.98383">
        <ele>217</ele>
        <time>2012-04-09T18:52:13Z</time>
      </trkpt>
      <trkpt lat="40.76054" lon="-73.98385">
        <ele>216</ele>
        <time>2012-04-09T18:52:14Z</time>
      </trkpt>
      <trkpt lat="40.76052" lon="-73.98387">
        <ele>215</ele>
        <time>2012-04-09T18:52:15Z</time>
      </trkpt>
      <trkpt lat="40.7605" lon="-73.98388">
        <ele>214</ele>
        <time>2012-04-09T18:52:16Z</time>
      </trkpt>
      <trkpt lat="40.76045" lon="-73.98387">
        <ele>213</ele>
        <time>2012-04-09T18:52:17Z</time>
      </trkpt>
      <trkpt lat="40.76041" lon="-73.98386">
        <ele>212</ele>
        <time>2012-04-09T18:52:18Z</time>
      </trkpt>
      <trkpt lat="40.76039" lon="-73.98386">
        <ele>211</ele>
        <time>2012-04-09T18:52:19Z</time>
      </trkpt>
      <trkpt lat="40.76035" lon="-73.98385">
        <ele>210</ele>
        <time>2012-04-09T18:52:20Z</time>
      </trkpt>
      <trkpt lat="40.76025" lon="-73.9838">
        <ele>209</ele>
        <time>2012-04-09T18:52:25Z</time>
      </trkpt>
      <trkpt lat="40.76022" lon="-73.98379">
        <ele>208</ele>
        <time>2012-04-09T18:52:26Z</time>
      </trkpt>
      <trkpt lat="40.76018" lon="-73.98378">
        <ele>207</ele>
        <time>2012-04-09T18:52:28Z</time>
      </trkpt>
      <trkpt lat="40.76016" lon="-73.98378">
        <ele>206</ele>
        <time>2012-04-09T18:52:29Z</time>
      </trkpt>
      <trkpt lat="40.76015" lon="-73.98376">
        <ele>205</ele>
        <time>2012-04-09T18:52:30Z</time>
      </trkpt>
      <trkpt lat="40.76015" lon="-73.98378">
        <ele>204</ele>
        <time>2012-04-09T18:52:32Z</time>
      </trkpt>
      <trkpt lat="40.76014" lon="-73.98373">
        <ele>204</ele>
        <time>2012-04-09T18:52:33Z</time>
      </trkpt>
      <trkpt lat="40.76013" lon="-73.98372">
        <ele>204</ele>
        <time>2012-04-09T18:52:34Z</time>
      </trkpt>
      <trkpt lat="40.76013" lon="-73.98371">
        <ele>204</ele>
        <time>2012-04-09T18:52:35Z</time>
      </trkpt>
      <trkpt lat="40.76011" lon="-73.9837">
        <ele>204</ele>
        <time>2012-04-09T18:52:36Z</time>
      </trkpt>
      <trkpt lat="40.76009" lon="-73.98368">
        <ele>204</ele>
        <time>2012-04-09T18:52:38Z</time>
      </trkpt>
      <trkpt lat="40.76007" lon="-73.98367">
        <ele>204</ele>
        <time>2012-04-09T18:52:39Z</time>
      </trkpt>
      <trkpt lat="40.76003" lon="-73.98365">
        <ele>204</ele>
        <time>2012-04-09T18:52:41Z</time>
      </trkpt>
      <trkpt lat="40.76001" lon="-73.98362">
        <ele>204</ele>
        <time>2012-04-09T18:52:42Z</time>
      </trkpt>
      <trkpt lat="40.75999" lon="-73.9836">
        <ele>204</ele>
        <time>2012-04-09T18:52:43Z</time>
      </trkpt>
      <trkpt lat="40.75996" lon="-73.98357">
        <ele>204</ele>
        <time>2012-04-09T18:52:44Z</time>
      </trkpt>
      <trkpt lat="40.75994" lon="-73.98355">
        <ele>204</ele>
        <time>2012-04-09T18:52:45Z</time>
      </trkpt>
      <trkpt lat="40.75993" lon="-73.98354">
        <ele>204</ele>
        <time>2012-04-09T18:52:46Z</time>
      </trkpt>
      <trkpt lat="40.75991" lon="-73.98351">
        <ele>204</ele>
        <time>2012-04-09T18:52:47Z</time>
      </trkpt>
      <trkpt lat="40.7599" lon="-73.98348">
        <ele>204</ele>
        <time>2012-04-09T18:52:49Z</time>
      </trkpt>
      <trkpt lat="40.75988" lon="-73.98347">
        <ele>204</ele>
        <time>2012-04-09T18:52:50Z</time>
      </trkpt>
      <trkpt lat="40.75987" lon="-73.98346">
        <ele>204</ele>
        <time>2012-04-09T18:52:51Z</time>
      </trkpt>
      <trkpt lat="40.75984" lon="-73.98342">
        <ele>204</ele>
        <time>2012-04-09T18:52:52Z</time>
      </trkpt>
      <trkpt lat="40.75983" lon="-73.9834">
        <ele>204</ele>
        <time>2012-04-09T18:52:53Z</time>
      </trkpt>
      <trkpt lat="40.75981" lon="-73.98333">
        <ele>204</ele>
        <time>2012-04-09T18:52:54Z</time>
      </trkpt>
      <trkpt lat="40.75978" lon="-73.98327">
        <ele>204</ele>
        <time>2012-04-09T18:52:55Z</time>
      </trkpt>
      <trkpt lat="40.75976" lon="-73.98323">
        <ele>204</ele>
        <time>2012-04-09T18:52:56Z</time>
      </trkpt>
      <trkpt lat="40.75972" lon="-73.98321">
        <ele>204</ele>
        <time>2012-04-09T18:52:59Z</time>
      </trkpt>
      <trkpt lat="40.75971" lon="-73.9832">
        <ele>204</ele>
        <time>2012-04-09T18:53:00Z</time>
      </trkpt>
      <trkpt lat="40.7597" lon="-73.98324">
        <ele>204</ele>
        <time>2012-04-09T18:53:01Z</time>
      </trkpt>
      <trkpt lat="40.7597" lon="-73.98327">
        <ele>204</ele>
        <time>2012-04-09T18:53:02Z</time>
      </trkpt>
      <trkpt lat="40.75969" lon="-73.98329">
        <ele>204</ele>
        <time>2012-04-09T18:53:03Z</time>
      </trkpt>
      <trkpt lat="40.75968" lon="-73.98332">
        <ele>204</ele>
        <time>2012-04-09T18:53:04Z</time>
      </trkpt>
      <trkpt lat="40.75968" lon="-73.98336">
        <ele>204</ele>
        <time>2012-04-09T18:53:05Z</time>
      </trkpt>
      <trkpt lat="40.75967" lon="-73.98335">
        <ele>204</ele>
        <time>2012-04-09T18:53:06Z</time>
      </trkpt>
      <trkpt lat="40.75966" lon="-73.98331">
        <ele>204</ele>
        <time>2012-04-09T18:53:07Z</time>
      </trkpt>
      <trkpt lat="40.75964" lon="-73.98329">
        <ele>204</ele>
        <time>2012-04-09T18:53:08Z</time>
      </trkpt>
      <trkpt lat="40.75963" lon="-73.98328">
        <ele>204</ele>
        <time>2012-04-09T18:53:09Z</time>
      </trkpt>
      <trkpt lat="40.75962" lon="-73.98328">
        <ele>204</ele>
        <time>2012-04-09T18:53:10Z</time>
      </trkpt>
      <trkpt lat="40.75962" lon="-73.9833">
        <ele>203</ele>
        <time>2012-04-09T18:53:11Z</time>
      </trkpt>
      <trkpt lat="40.7596" lon="-73.98331">
        <ele>203</ele>
        <time>2012-04-09T18:53:13Z</time>
      </trkpt>
      <trkpt lat="40.75959" lon="-73.98336">
        <ele>202</ele>
        <time>2012-04-09T18:53:15Z</time>
      </trkpt>
      <trkpt lat="40.75959" lon="-73.98339">
        <ele>201</ele>
        <time>2012-04-09T18:53:16Z</time>
      </trkpt>
      <trkpt lat="40.75959" lon="-73.98341">
        <ele>201</ele>
        <time>2012-04-09T18:53:17Z</time>
      </trkpt>
      <trkpt lat="40.75961" lon="-73.98344">
        <ele>200</ele>
        <time>2012-04-09T18:53:19Z</time>
      </trkpt>
      <trkpt lat="40.75961" lon="-73.98345">
        <ele>199</ele>
        <time>2012-04-09T18:53:21Z</time>
      </trkpt>
      <trkpt lat="40.76006" lon="-73.98436">
        <ele>121</ele>
        <time>2012-04-09T18:59:33Z</time>
      </trkpt>
      <trkpt lat="40.76009" lon="-73.98436">
        <ele>121</ele>
        <time>2012-04-09T18:59:34Z</time>
      </trkpt>
      <trkpt lat="40.76001" lon="-73.9844">
        <ele>122</ele>
        <time>2012-04-09T18:59:38Z</time>
      </trkpt>
      <trkpt lat="40.76011" lon="-73.98396">
        <ele>128</ele>
        <time>2012-04-09T19:00:33Z</time>
      </trkpt>
      <trkpt lat="40.76052" lon="-73.98401">
        <ele>32</ele>
        <time>2012-04-09T19:07:44Z</time>
      </trkpt>
      <trkpt lat="40.76041" lon="-73.98397">
        <ele>-3</ele>
        <time>2012-04-09T19:07:45Z</time>
      </trkpt>
      <trkpt lat="40.76012" lon="-73.98386">
        <ele>-39</ele>
        <time>2012-04-09T19:07:51Z</time>
      </trkpt>
      <trkpt lat="40.7601" lon="-73.98443">
        <ele>-33</ele>
        <time>2012-04-09T19:08:53Z</time>
      </trkpt>
      <trkpt lat="40.75999" lon="-73.98438">
        <ele>-9</ele>
        <time>2012-04-09T19:08:54Z</time>
      </trkpt>
      <trkpt lat="40.75983" lon="-73.98426">
        <ele>14</ele>
        <time>2012-04-09T19:08:55Z</time>
      </trkpt>
      <trkpt lat="40.75968" lon="-73.9843">
        <ele>38</ele>
        <time>2012-04-09T19:08:56Z</time>
      </trkpt>
      <trkpt lat="40.75956" lon="-73.98429">
        <ele>58</ele>
        <time>2012-04-09T19:08:57Z</time>
      </trkpt>
      <trkpt lat="40.75932" lon="-73.98415">
        <ele>87</ele>
        <time>2012-04-09T19:09:05Z</time>
      </trkpt>
      <trkpt lat="40.76002" lon="-73.98433">
        <ele>110</ele>
        <time>2012-04-09T19:09:09Z</time>
      </trkpt>
      <trkpt lat="40.76019" lon="-73.9843">
        <ele>116</ele>
        <time>2012-04-09T19:09:29Z</time>
      </trkpt>
      <trkpt lat="40.7602" lon="-73.98434">
        <ele>121</ele>
        <time>2012-04-09T19:09:30Z</time>
      </trkpt>
      <trkpt lat="40.76024" lon="-73.98434">
        <ele>131</ele>
        <time>2012-04-09T19:09:33Z</time>
      </trkpt>
      <trkpt lat="40.76022" lon="-73.98427">
        <ele>136</ele>
        <time>2012-04-09T19:09:34Z</time>
      </trkpt>
      <trkpt lat="40.76019" lon="-73.98425">
        <ele>144</ele>
        <time>2012-04-09T19:09:36Z</time>
      </trkpt>
      <trkpt lat="40.76017" lon="-73.98427">
        <ele>148</ele>
        <time>2012-04-09T19:09:37Z</time>
      </trkpt>
      <trkpt lat="40.75999" lon="-73.98432">
        <ele>151</ele>
        <time>2012-04-09T19:09:47Z</time>
      </trkpt>
      <trkpt lat="40.75998" lon="-73.98434">
        <ele>154</ele>
        <time>2012-04-09T19:09:48Z</time>
      </trkpt>
      <trkpt lat="40.75998" lon="-73.98437">
        <ele>157</ele>
        <time>2012-04-09T19:09:49Z</time>
      </trkpt>
      <trkpt lat="40.75999" lon="-73.98444">
        <ele>159</ele>
        <time>2012-04-09T19:09:50Z</time>
      </trkpt>
      <trkpt lat="40.76007" lon="-73.98447">
        <ele>163</ele>
        <time>2012-04-09T19:09:52Z</time>
      </trkpt>
      <trkpt lat="40.76027" lon="-73.98435">
        <ele>168</ele>
        <time>2012-04-09T19:09:58Z</time>
      </trkpt>
      <trkpt lat="40.76036" lon="-73.98431">
        <ele>169</ele>
        <time>2012-04-09T19:09:59Z</time>
      </trkpt>
      <trkpt lat="40.76045" lon="-73.98432">
        <ele>169</ele>
        <time>2012-04-09T19:10:00Z</time>
      </trkpt>
      <trkpt lat="40.76083" lon="-73.98425">
        <ele>171</ele>
        <time>2012-04-09T19:10:12Z</time>
      </trkpt>
      <trkpt lat="40.76076" lon="-73.98415">
        <ele>171</ele>
        <time>2012-04-09T19:10:13Z</time>
      </trkpt>
      <trkpt lat="40.76072" lon="-73.98412">
        <ele>171</ele>
        <time>2012-04-09T19:10:14Z</time>
      </trkpt>
      <trkpt lat="40.7607" lon="-73.98408">
        <ele>171</ele>
        <time>2012-04-09T19:10:15Z</time>
      </trkpt>
      <trkpt lat="40.76078" lon="-73.98409">
        <ele>171</ele>
        <time>2012-04-09T19:10:16Z</time>
      </trkpt>
      <trkpt lat="40.76082" lon="-73.98411">
        <ele>170</ele>
        <time>2012-04-09T19:10:17Z</time>
      </trkpt>
      <trkpt lat="40.76084" lon="-73.98413">
        <ele>169</ele>
        <time>2012-04-09T19:10:18Z</time>
      </trkpt>
      <trkpt lat="40.76085" lon="-73.98416">
        <ele>168</ele>
        <time>2012-04-09T19:10:19Z</time>
      </trkpt>
      <trkpt lat="40.76091" lon="-73.98421">
        <ele>167</ele>
        <time>2012-04-09T19:10:20Z</time>
      </trkpt>
      <trkpt lat="40.7609" lon="-73.98421">
        <ele>165</ele>
        <time>2012-04-09T19:10:21Z</time>
      </trkpt>
      <trkpt lat="40.76064" lon="-73.9846">
        <ele>156</ele>
        <time>2012-04-09T19:11:26Z</time>
      </trkpt>
      <trkpt lat="40.7608" lon="-73.98489">
        <ele>151</ele>
        <time>2012-04-09T19:11:27Z</time>
      </trkpt>
      <trkpt lat="40.76082" lon="-73.98485">
        <ele>141</ele>
        <time>2012-04-09T19:11:29Z</time>
      </trkpt>
      <trkpt lat="40.76084" lon="-73.9848">
        <ele>136</ele>
        <time>2012-04-09T19:11:31Z</time>
      </trkpt>
      <trkpt lat="40.7608" lon="-73.98478">
        <ele>131</ele>
        <time>2012-04-09T19:11:32Z</time>
      </trkpt>
      <trkpt lat="40.76078" lon="-73.98474">
        <ele>127</ele>
        <time>2012-04-09T19:11:33Z</time>
      </trkpt>
      <trkpt lat="40.76074" lon="-73.98472">
        <ele>124</ele>
        <time>2012-04-09T19:11:34Z</time>
      </trkpt>
      <trkpt lat="40.76073" lon="-73.98472">
        <ele>122</ele>
        <time>2012-04-09T19:11:35Z</time>
      </trkpt>
      <trkpt lat="40.76075" lon="-73.9847">
        <ele>118</ele>
        <time>2012-04-09T19:11:38Z</time>
      </trkpt>
      <trkpt lat="40.76075" lon="-73.98468">
        <ele>117</ele>
        <time>2012-04-09T19:11:39Z</time>
      </trkpt>
      <trkpt lat="40.76076" lon="-73.98466">
        <ele>116</ele>
        <time>2012-04-09T19:11:40Z</time>
      </trkpt>
      <trkpt lat="40.76076" lon="-73.98463">
        <ele>115</ele>
        <time>2012-04-09T19:11:41Z</time>
      </trkpt>
      <trkpt lat="40.76077" lon="-73.98461">
        <ele>114</ele>
        <time>2012-04-09T19:11:42Z</time>
      </trkpt>
      <trkpt lat="40.76077" lon="-73.98459">
        <ele>113</ele>
        <time>2012-04-09T19:11:43Z</time>
      </trkpt>
      <trkpt lat="40.76075" lon="-73.98454">
        <ele>112</ele>
        <time>2012-04-09T19:11:44Z</time>
      </trkpt>
      <trkpt lat="40.76075" lon="-73.98452">
        <ele>111</ele>
        <time>2012-04-09T19:11:45Z</time>
      </trkpt>
      <trkpt lat="40.76078" lon="-73.98451">
        <ele>110</ele>
        <time>2012-04-09T19:11:46Z</time>
      </trkpt>
      <trkpt lat="40.7608" lon="-73.9845">
        <ele>109</ele>
        <time>2012-04-09T19:11:48Z</time>
      </trkpt>
      <trkpt lat="40.76081" lon="-73.98448">
        <ele>108</ele>
        <time>2012-04-09T19:11:50Z</time>
      </trkpt>
      <trkpt lat="40.76084" lon="-73.98447">
        <ele>107</ele>
        <time>2012-04-09T19:11:51Z</time>
      </trkpt>
      <trkpt lat="40.76084" lon="-73.98444">
        <ele>107</ele>
        <time>2012-04-09T19:11:52Z</time>
      </trkpt>
      <trkpt lat="40.76083" lon="-73.98441">
        <ele>107</ele>
        <time>2012-04-09T19:11:53Z</time>
      </trkpt>
      <trkpt lat="40.76082" lon="-73.98437">
        <ele>107</ele>
        <time>2012-04-09T19:11:55Z</time>
      </trkpt>
      <trkpt lat="40.76081" lon="-73.98434">
        <ele>107</ele>
        <time>2012-04-09T19:11:56Z</time>
      </trkpt>
      <trkpt lat="40.7608" lon="-73.98431">
        <ele>107</ele>
        <time>2012-04-09T19:11:58Z</time>
      </trkpt>
      <trkpt lat="40.76078" lon="-73.98429">
        <ele>107</ele>
        <time>2012-04-09T19:11:59Z</time>
      </trkpt>
      <trkpt lat="40.76077" lon="-73.98427">
        <ele>107</ele>
        <time>2012-04-09T19:12:00Z</time>
      </trkpt>
      <trkpt lat="40.76075" lon="-73.98425">
        <ele>107</ele>
        <time>2012-04-09T19:12:01Z</time>
      </trkpt>
      <trkpt lat="40.76074" lon="-73.98422">
        <ele>107</ele>
        <time>2012-04-09T19:12:02Z</time>
      </trkpt>
      <trkpt lat="40.76072" lon="-73.98421">
        <ele>107</ele>
        <time>2012-04-09T19:12:03Z</time>
      </trkpt>
      <trkpt lat="40.76071" lon="-73.98418">
        <ele>108</ele>
        <time>2012-04-09T19:12:05Z</time>
      </trkpt>
      <trkpt lat="40.7607" lon="-73.98416">
        <ele>110</ele>
        <time>2012-04-09T19:12:07Z</time>
      </trkpt>
      <trkpt lat="40.76069" lon="-73.98415">
        <ele>112</ele>
        <time>2012-04-09T19:12:09Z</time>
      </trkpt>
      <trkpt lat="40.76067" lon="-73.98413">
        <ele>114</ele>
        <time>2012-04-09T19:12:10Z</time>
      </trkpt>
      <trkpt lat="40.76066" lon="-73.98415">
        <ele>118</ele>
        <time>2012-04-09T19:12:12Z</time>
      </trkpt>
      <trkpt lat="40.76066" lon="-73.98417">
        <ele>121</ele>
        <time>2012-04-09T19:12:14Z</time>
      </trkpt>
      <trkpt lat="40.76066" lon="-73.98418">
        <ele>122</ele>
        <time>2012-04-09T19:12:15Z</time>
      </trkpt>
      <trkpt lat="40.76066" lon="-73.98423">
        <ele>124</ele>
        <time>2012-04-09T19:12:17Z</time>
      </trkpt>
      <trkpt lat="40.76067" lon="-73.98426">
        <ele>125</ele>
        <time>2012-04-09T19:12:18Z</time>
      </trkpt>
      <trkpt lat="40.76067" lon="-73.98404">
        <ele>126</ele>
        <time>2012-04-09T19:12:23Z</time>
      </trkpt>
      <trkpt lat="40.76062" lon="-73.98391">
        <ele>127</ele>
        <time>2012-04-09T19:12:24Z</time>
      </trkpt>
      <trkpt lat="40.76057" lon="-73.98383">
        <ele>128</ele>
        <time>2012-04-09T19:12:25Z</time>
      </trkpt>
      <trkpt lat="40.76056" lon="-73.98389">
        <ele>129</ele>
        <time>2012-04-09T19:12:28Z</time>
      </trkpt>
      <trkpt lat="40.76053" lon="-73.98396">
        <ele>129</ele>
        <time>2012-04-09T19:12:34Z</time>
      </trkpt>
      <trkpt lat="40.76055" lon="-73.98398">
        <ele>130</ele>
        <time>2012-04-09T19:12:36Z</time>
      </trkpt>
      <trkpt lat="40.76055" lon="-73.98396">
        <ele>131</ele>
        <time>2012-04-09T19:12:37Z</time>
      </trkpt>
      <trkpt lat="40.76056" lon="-73.98395">
        <ele>131</ele>
        <time>2012-04-09T19:12:38Z</time>
      </trkpt>
      <trkpt lat="40.76057" lon="-73.98396">
        <ele>132</ele>
        <time>2012-04-09T19:12:39Z</time>
      </trkpt>
      <trkpt lat="40.76059" lon="-73.98397">
        <ele>133</ele>
        <time>2012-04-09T19:12:41Z</time>
      </trkpt>
      <trkpt lat="40.7606" lon="-73.98404">
        <ele>134</ele>
        <time>2012-04-09T19:12:44Z</time>
      </trkpt>
      <trkpt lat="40.76061" lon="-73.98405">
        <ele>134</ele>
        <time>2012-04-09T19:12:45Z</time>
      </trkpt>
      <trkpt lat="40.76059" lon="-73.98406">
        <ele>135</ele>
        <time>2012-04-09T19:12:50Z</time>
      </trkpt>
      <trkpt lat="40.7606" lon="-73.98409">
        <ele>136</ele>
        <time>2012-04-09T19:12:52Z</time>
      </trkpt>
      <trkpt lat="40.76059" lon="-73.98411">
        <ele>136</ele>
        <time>2012-04-09T19:12:54Z</time>
      </trkpt>
      <trkpt lat="40.76039" lon="-73.98418">
        <ele>132</ele>
        <time>2012-04-09T19:19:25Z</time>
      </trkpt>
      <trkpt lat="40.76028" lon="-73.98401">
        <ele>133</ele>
        <time>2012-04-09T19:19:27Z</time>
      </trkpt>
      <trkpt lat="40.76022" lon="-73.98395">
        <ele>136</ele>
        <time>2012-04-09T19:19:28Z</time>
      </trkpt>
      <trkpt lat="40.76022" lon="-73.98399">
        <ele>144</ele>
        <time>2012-04-09T19:19:29Z</time>
      </trkpt>
      <trkpt lat="40.76016" lon="-73.98398">
        <ele>154</ele>
        <time>2012-04-09T19:19:30Z</time>
      </trkpt>
      <trkpt lat="40.76011" lon="-73.98396">
        <ele>167</ele>
        <time>2012-04-09T19:19:31Z</time>
      </trkpt>
      <trkpt lat="40.76007" lon="-73.98392">
        <ele>181</ele>
        <time>2012-04-09T19:19:32Z</time>
      </trkpt>
      <trkpt lat="40.76003" lon="-73.98389">
        <ele>195</ele>
        <time>2012-04-09T19:19:33Z</time>
      </trkpt>
      <trkpt lat="40.75999" lon="-73.98386">
        <ele>209</ele>
        <time>2012-04-09T19:19:34Z</time>
      </trkpt>
      <trkpt lat="40.75997" lon="-73.98386">
        <ele>223</ele>
        <time>2012-04-09T19:19:35Z</time>
      </trkpt>
      <trkpt lat="40.75995" lon="-73.98386">
        <ele>261</ele>
        <time>2012-04-09T19:19:38Z</time>
      </trkpt>
      <trkpt lat="40.7599" lon="-73.98385">
        <ele>272</ele>
        <time>2012-04-09T19:19:39Z</time>
      </trkpt>
      <trkpt lat="40.75986" lon="-73.98383">
        <ele>283</ele>
        <time>2012-04-09T19:19:40Z</time>
      </trkpt>
      <trkpt lat="40.75985" lon="-73.98381">
        <ele>293</ele>
        <time>2012-04-09T19:19:41Z</time>
      </trkpt>
      <trkpt lat="40.75983" lon="-73.98379">
        <ele>302</ele>
        <time>2012-04-09T19:19:42Z</time>
      </trkpt>
      <trkpt lat="40.75981" lon="-73.98376">
        <ele>311</ele>
        <time>2012-04-09T19:19:43Z</time>
      </trkpt>
      <trkpt lat="40.7598" lon="-73.98374">
        <ele>319</ele>
        <time>2012-04-09T19:19:44Z</time>
      </trkpt>
      <trkpt lat="40.75978" lon="-73.98373">
        <ele>326</ele>
        <time>2012-04-09T19:19:45Z</time>
      </trkpt>
      <trkpt lat="40.75976" lon="-73.98371">
        <ele>333</ele>
        <time>2012-04-09T19:19:46Z</time>
      </trkpt>
      <trkpt lat="40.75975" lon="-73.9837">
        <ele>340</ele>
        <time>2012-04-09T19:19:47Z</time>
      </trkpt>
      <trkpt lat="40.75972" lon="-73.98369">
        <ele>358</ele>
        <time>2012-04-09T19:19:50Z</time>
      </trkpt>
      <trkpt lat="40.75969" lon="-73.98369">
        <ele>363</ele>
        <time>2012-04-09T19:19:51Z</time>
      </trkpt>
      <trkpt lat="40.75967" lon="-73.98369">
        <ele>368</ele>
        <time>2012-04-09T19:19:52Z</time>
      </trkpt>
      <trkpt lat="40.75965" lon="-73.98369">
        <ele>373</ele>
        <time>2012-04-09T19:19:53Z</time>
      </trkpt>
      <trkpt lat="40.75961" lon="-73.98368">
        <ele>383</ele>
        <time>2012-04-09T19:19:55Z</time>
      </trkpt>
      <trkpt lat="40.75957" lon="-73.9837">
        <ele>388</ele>
        <time>2012-04-09T19:19:58Z</time>
      </trkpt>
      <trkpt lat="40.7595" lon="-73.98371">
        <ele>394</ele>
        <time>2012-04-09T19:19:59Z</time>
      </trkpt>
      <trkpt lat="40.75948" lon="-73.9837">
        <ele>400</ele>
        <time>2012-04-09T19:20:02Z</time>
      </trkpt>
      <trkpt lat="40.75945" lon="-73.98369">
        <ele>416</ele>
        <time>2012-04-09T19:20:05Z</time>
      </trkpt>
      <trkpt lat="40.75938" lon="-73.98367">
        <ele>422</ele>
        <time>2012-04-09T19:20:06Z</time>
      </trkpt>
      <trkpt lat="40.75936" lon="-73.98364">
        <ele>428</ele>
        <time>2012-04-09T19:20:07Z</time>
      </trkpt>
      <trkpt lat="40.75936" lon="-73.98363">
        <ele>446</ele>
        <time>2012-04-09T19:20:10Z</time>
      </trkpt>
      <trkpt lat="40.75937" lon="-73.98362">
        <ele>452</ele>
        <time>2012-04-09T19:20:11Z</time>
      </trkpt>
      <trkpt lat="40.75938" lon="-73.98363">
        <ele>461</ele>
        <time>2012-04-09T19:20:13Z</time>
      </trkpt>
      <trkpt lat="40.7594" lon="-73.98367">
        <ele>464</ele>
        <time>2012-04-09T19:20:14Z</time>
      </trkpt>
      <trkpt lat="40.75942" lon="-73.9837">
        <ele>466</ele>
        <time>2012-04-09T19:20:15Z</time>
      </trkpt>
      <trkpt lat="40.75943" lon="-73.98374">
        <ele>467</ele>
        <time>2012-04-09T19:20:16Z</time>
      </trkpt>
      <trkpt lat="40.75944" lon="-73.98377">
        <ele>468</ele>
        <time>2012-04-09T19:20:17Z</time>
      </trkpt>
      <trkpt lat="40.75946" lon="-73.98378">
        <ele>468</ele>
        <time>2012-04-09T19:20:18Z</time>
      </trkpt>
      <trkpt lat="40.75949" lon="-73.98376">
        <ele>466</ele>
        <time>2012-04-09T19:20:21Z</time>
      </trkpt>
      <trkpt lat="40.75946" lon="-73.98373">
        <ele>465</ele>
        <time>2012-04-09T19:20:24Z</time>
      </trkpt>
      <trkpt lat="40.75946" lon="-73.98371">
        <ele>463</ele>
        <time>2012-04-09T19:20:25Z</time>
      </trkpt>
      <trkpt lat="40.75946" lon="-73.98369">
        <ele>458</ele>
        <time>2012-04-09T19:20:28Z</time>
      </trkpt>
      <trkpt lat="40.7595" lon="-73.98369">
        <ele>456</ele>
        <time>2012-04-09T19:20:30Z</time>
      </trkpt>
      <trkpt lat="40.75951" lon="-73.9837">
        <ele>455</ele>
        <time>2012-04-09T19:20:31Z</time>
      </trkpt>
      <trkpt lat="40.75954" lon="-73.98372">
        <ele>453</ele>
        <time>2012-04-09T19:20:32Z</time>
      </trkpt>
      <trkpt lat="40.75958" lon="-73.98376">
        <ele>451</ele>
        <time>2012-04-09T19:20:33Z</time>
      </trkpt>
      <trkpt lat="40.75962" lon="-73.9838">
        <ele>449</ele>
        <time>2012-04-09T19:20:35Z</time>
      </trkpt>
      <trkpt lat="40.75968" lon="-73.98382">
        <ele>446</ele>
        <time>2012-04-09T19:20:36Z</time>
      </trkpt>
      <trkpt lat="40.7597" lon="-73.98382">
        <ele>443</ele>
        <time>2012-04-09T19:20:37Z</time>
      </trkpt>
      <trkpt lat="40.75974" lon="-73.98383">
        <ele>439</ele>
        <time>2012-04-09T19:20:38Z</time>
      </trkpt>
      <trkpt lat="40.75979" lon="-73.98384">
        <ele>434</ele>
        <time>2012-04-09T19:20:39Z</time>
      </trkpt>
      <trkpt lat="40.75981" lon="-73.98386">
        <ele>429</ele>
        <time>2012-04-09T19:20:40Z</time>
      </trkpt>
      <trkpt lat="40.75983" lon="-73.98389">
        <ele>424</ele>
        <time>2012-04-09T19:20:41Z</time>
      </trkpt>
      <trkpt lat="40.7599" lon="-73.98392">
        <ele>418</ele>
        <time>2012-04-09T19:20:42Z</time>
      </trkpt>
      <trkpt lat="40.75997" lon="-73.98396">
        <ele>412</ele>
        <time>2012-04-09T19:20:43Z</time>
      </trkpt>
      <trkpt lat="40.76001" lon="-73.98399">
        <ele>405</ele>
        <time>2012-04-09T19:20:44Z</time>
      </trkpt>
      <trkpt lat="40.76006" lon="-73.98401">
        <ele>397</ele>
        <time>2012-04-09T19:20:45Z</time>
      </trkpt>
      <trkpt lat="40.76011" lon="-73.98405">
        <ele>388</ele>
        <time>2012-04-09T19:20:46Z</time>
      </trkpt>
      <trkpt lat="40.76016" lon="-73.98409">
        <ele>379</ele>
        <time>2012-04-09T19:20:47Z</time>
      </trkpt>
      <trkpt lat="40.76018" lon="-73.98413">
        <ele>369</ele>
        <time>2012-04-09T19:20:48Z</time>
      </trkpt>
      <trkpt lat="40.7602" lon="-73.98417">
        <ele>359</ele>
        <time>2012-04-09T19:20:49Z</time>
      </trkpt>
      <trkpt lat="40.76024" lon="-73.98421">
        <ele>349</ele>
        <time>2012-04-09T19:20:50Z</time>
      </trkpt>
      <trkpt lat="40.76033" lon="-73.98428">
        <ele>338</ele>
        <time>2012-04-09T19:20:51Z</time>
      </trkpt>
      <trkpt lat="40.76041" lon="-73.98433">
        <ele>327</ele>
        <time>2012-04-09T19:20:52Z</time>
      </trkpt>
      <trkpt lat="40.76052" lon="-73.98447">
        <ele>315</ele>
        <time>2012-04-09T19:20:55Z</time>
      </trkpt>
      <trkpt lat="40.76052" lon="-73.98449">
        <ele>303</ele>
        <time>2012-04-09T19:20:56Z</time>
      </trkpt>
      <trkpt lat="40.7605" lon="-73.9845">
        <ele>291</ele>
        <time>2012-04-09T19:20:57Z</time>
      </trkpt>
      <trkpt lat="40.7605" lon="-73.98457">
        <ele>278</ele>
        <time>2012-04-09T19:20:58Z</time>
      </trkpt>
      <trkpt lat="40.76051" lon="-73.98463">
        <ele>265</ele>
        <time>2012-04-09T19:20:59Z</time>
      </trkpt>
      <trkpt lat="40.76052" lon="-73.98466">
        <ele>252</ele>
        <time>2012-04-09T19:21:00Z</time>
      </trkpt>
      <trkpt lat="40.76052" lon="-73.9847">
        <ele>240</ele>
        <time>2012-04-09T19:21:01Z</time>
      </trkpt>
      <trkpt lat="40.76052" lon="-73.98473">
        <ele>228</ele>
        <time>2012-04-09T19:21:02Z</time>
      </trkpt>
      <trkpt lat="40.76051" lon="-73.98476">
        <ele>216</ele>
        <time>2012-04-09T19:21:03Z</time>
      </trkpt>
      <trkpt lat="40.76052" lon="-73.98478">
        <ele>205</ele>
        <time>2012-04-09T19:21:04Z</time>
      </trkpt>
      <trkpt lat="40.76049" lon="-73.98479">
        <ele>186</ele>
        <time>2012-04-09T19:21:06Z</time>
      </trkpt>
      <trkpt lat="40.76048" lon="-73.98474">
        <ele>165</ele>
        <time>2012-04-09T19:21:09Z</time>
      </trkpt>
      <trkpt lat="40.76028" lon="-73.98478">
        <ele>160</ele>
        <time>2012-04-09T19:21:12Z</time>
      </trkpt>
      <trkpt lat="40.76026" lon="-73.98479">
        <ele>119</ele>
        <time>2012-04-09T19:21:24Z</time>
      </trkpt>
      <trkpt lat="40.7603" lon="-73.98479">
        <ele>114</ele>
        <time>2012-04-09T19:21:26Z</time>
      </trkpt>
      <trkpt lat="40.76025" lon="-73.98471">
        <ele>110</ele>
        <time>2012-04-09T19:21:27Z</time>
      </trkpt>
      <trkpt lat="40.76025" lon="-73.9847">
        <ele>107</ele>
        <time>2012-04-09T19:21:28Z</time>
      </trkpt>
      <trkpt lat="40.76026" lon="-73.98466">
        <ele>105</ele>
        <time>2012-04-09T19:21:30Z</time>
      </trkpt>
      <trkpt lat="40.76028" lon="-73.98469">
        <ele>102</ele>
        <time>2012-04-09T19:21:32Z</time>
      </trkpt>
      <trkpt lat="40.76031" lon="-73.98472">
        <ele>101</ele>
        <time>2012-04-09T19:21:34Z</time>
      </trkpt>
      <trkpt lat="40.76032" lon="-73.98473">
        <ele>100</ele>
        <time>2012-04-09T19:21:35Z</time>
      </trkpt>
      <trkpt lat="40.76034" lon="-73.98478">
        <ele>98</ele>
        <time>2012-04-09T19:21:37Z</time>
      </trkpt>
      <trkpt lat="40.76034" lon="-73.98474">
        <ele>97</ele>
        <time>2012-04-09T19:21:38Z</time>
      </trkpt>
      <trkpt lat="40.7603" lon="-73.98466">
        <ele>89</ele>
        <time>2012-04-09T19:21:44Z</time>
      </trkpt>
      <trkpt lat="40.76029" lon="-73.98461">
        <ele>88</ele>
        <time>2012-04-09T19:21:45Z</time>
      </trkpt>
      <trkpt lat="40.76029" lon="-73.9846">
        <ele>87</ele>
        <time>2012-04-09T19:21:46Z</time>
      </trkpt>
      <trkpt lat="40.76015" lon="-73.98457">
        <ele>95</ele>
        <time>2012-04-09T19:21:53Z</time>
      </trkpt>
      <trkpt lat="40.76018" lon="-73.9846">
        <ele>99</ele>
        <time>2012-04-09T19:21:54Z</time>
      </trkpt>
      <trkpt lat="40.7602" lon="-73.98461">
        <ele>102</ele>
        <time>2012-04-09T19:21:55Z</time>
      </trkpt>
      <trkpt lat="40.76019" lon="-73.98458">
        <ele>105</ele>
        <time>2012-04-09T19:21:56Z</time>
      </trkpt>
      <trkpt lat="40.76015" lon="-73.98452">
        <ele>108</ele>
        <time>2012-04-09T19:21:57Z</time>
      </trkpt>
      <trkpt lat="40.76003" lon="-73.9843">
        <ele>125</ele>
        <time>2012-04-09T19:22:04Z</time>
      </trkpt>
      <trkpt lat="40.76001" lon="-73.98428">
        <ele>130</ele>
        <time>2012-04-09T19:22:05Z</time>
      </trkpt>
      <trkpt lat="40.75999" lon="-73.98423">
        <ele>135</ele>
        <time>2012-04-09T19:22:06Z</time>
      </trkpt>
      <trkpt lat="40.75996" lon="-73.98418">
        <ele>140</ele>
        <time>2012-04-09T19:22:07Z</time>
      </trkpt>
      <trkpt lat="40.75993" lon="-73.98412">
        <ele>145</ele>
        <time>2012-04-09T19:22:08Z</time>
      </trkpt>
      <trkpt lat="40.7599" lon="-73.98407">
        <ele>151</ele>
        <time>2012-04-09T19:22:09Z</time>
      </trkpt>
      <trkpt lat="40.75988" lon="-73.98405">
        <ele>157</ele>
        <time>2012-04-09T19:22:10Z</time>
      </trkpt>
      <trkpt lat="40.75985" lon="-73.98405">
        <ele>163</ele>
        <time>2012-04-09T19:22:12Z</time>
      </trkpt>
      <trkpt lat="40.75984" lon="-73.98406">
        <ele>168</ele>
        <time>2012-04-09T19:22:14Z</time>
      </trkpt>
      <trkpt lat="40.75979" lon="-73.9841">
        <ele>183</ele>
        <time>2012-04-09T19:22:24Z</time>
      </trkpt>
      <trkpt lat="40.75985" lon="-73.98411">
        <ele>188</ele>
        <time>2012-04-09T19:22:25Z</time>
      </trkpt>
      <trkpt lat="40.75986" lon="-73.98412">
        <ele>197</ele>
        <time>2012-04-09T19:22:27Z</time>
      </trkpt>
      <trkpt lat="40.75988" lon="-73.98415">
        <ele>203</ele>
        <time>2012-04-09T19:22:29Z</time>
      </trkpt>
      <trkpt lat="40.7599" lon="-73.98416">
        <ele>205</ele>
        <time>2012-04-09T19:22:30Z</time>
      </trkpt>
      <trkpt lat="40.75991" lon="-73.9842">
        <ele>206</ele>
        <time>2012-04-09T19:22:31Z</time>
      </trkpt>
      <trkpt lat="40.75993" lon="-73.98421">
        <ele>208</ele>
        <time>2012-04-09T19:22:33Z</time>
      </trkpt>
      <trkpt lat="40.75994" lon="-73.98424">
        <ele>208</ele>
        <time>2012-04-09T19:22:34Z</time>
      </trkpt>
      <trkpt lat="40.75996" lon="-73.98425">
        <ele>208</ele>
        <time>2012-04-09T19:22:36Z</time>
      </trkpt>
      <trkpt lat="40.75997" lon="-73.98428">
        <ele>208</ele>
        <time>2012-04-09T19:22:37Z</time>
      </trkpt>
      <trkpt lat="40.75998" lon="-73.98431">
        <ele>208</ele>
        <time>2012-04-09T19:22:38Z</time>
      </trkpt>
      <trkpt lat="40.76" lon="-73.98434">
        <ele>208</ele>
        <time>2012-04-09T19:22:39Z</time>
      </trkpt>
      <trkpt lat="40.76003" lon="-73.98438">
        <ele>208</ele>
        <time>2012-04-09T19:22:40Z</time>
      </trkpt>
      <trkpt lat="40.76007" lon="-73.98443">
        <ele>208</ele>
        <time>2012-04-09T19:22:41Z</time>
      </trkpt>
      <trkpt lat="40.76011" lon="-73.98446">
        <ele>208</ele>
        <time>2012-04-09T19:22:42Z</time>
      </trkpt>
      <trkpt lat="40.76019" lon="-73.9845">
        <ele>208</ele>
        <time>2012-04-09T19:22:43Z</time>
      </trkpt>
      <trkpt lat="40.76023" lon="-73.98454">
        <ele>208</ele>
        <time>2012-04-09T19:22:44Z</time>
      </trkpt>
      <trkpt lat="40.76023" lon="-73.98457">
        <ele>208</ele>
        <time>2012-04-09T19:22:46Z</time>
      </trkpt>
      <trkpt lat="40.76027" lon="-73.98462">
        <ele>207</ele>
        <time>2012-04-09T19:22:47Z</time>
      </trkpt>
      <trkpt lat="40.7603" lon="-73.98466">
        <ele>205</ele>
        <time>2012-04-09T19:22:48Z</time>
      </trkpt>
      <trkpt lat="40.76032" lon="-73.98471">
        <ele>202</ele>
        <time>2012-04-09T19:22:49Z</time>
      </trkpt>
      <trkpt lat="40.76088" lon="-73.98462">
        <ele>128</ele>
        <time>2012-04-09T19:24:49Z</time>
      </trkpt>
      <trkpt lat="40.76088" lon="-73.98463">
        <ele>125</ele>
        <time>2012-04-09T19:24:50Z</time>
      </trkpt>
      <trkpt lat="40.76088" lon="-73.98462">
        <ele>122</ele>
        <time>2012-04-09T19:24:51Z</time>
      </trkpt>
      <trkpt lat="40.76085" lon="-73.98459">
        <ele>116</ele>
        <time>2012-04-09T19:24:53Z</time>
      </trkpt>
      <trkpt lat="40.76084" lon="-73.98459">
        <ele>114</ele>
        <time>2012-04-09T19:24:54Z</time>
      </trkpt>
      <trkpt lat="40.76082" lon="-73.98455">
        <ele>112</ele>
        <time>2012-04-09T19:24:55Z</time>
      </trkpt>
      <trkpt lat="40.76081" lon="-73.98454">
        <ele>110</ele>
        <time>2012-04-09T19:24:56Z</time>
      </trkpt>
      <trkpt lat="40.7608" lon="-73.98454">
        <ele>109</ele>
        <time>2012-04-09T19:24:57Z</time>
      </trkpt>
      <trkpt lat="40.76083" lon="-73.98459">
        <ele>107</ele>
        <time>2012-04-09T19:25:00Z</time>
      </trkpt>
      <trkpt lat="40.76084" lon="-73.98462">
        <ele>105</ele>
        <time>2012-04-09T19:25:01Z</time>
      </trkpt>
      <trkpt lat="40.76088" lon="-73.98464">
        <ele>102</ele>
        <time>2012-04-09T19:25:02Z</time>
      </trkpt>
      <trkpt lat="40.76091" lon="-73.98466">
        <ele>99</ele>
        <time>2012-04-09T19:25:03Z</time>
      </trkpt>
      <trkpt lat="40.76089" lon="-73.98463">
        <ele>96</ele>
        <time>2012-04-09T19:25:04Z</time>
      </trkpt>
      <trkpt lat="40.76088" lon="-73.98461">
        <ele>93</ele>
        <time>2012-04-09T19:25:05Z</time>
      </trkpt>
      <trkpt lat="40.76086" lon="-73.98457">
        <ele>90</ele>
        <time>2012-04-09T19:25:06Z</time>
      </trkpt>
      <trkpt lat="40.76085" lon="-73.98455">
        <ele>88</ele>
        <time>2012-04-09T19:25:07Z</time>
      </trkpt>
      <trkpt lat="40.76084" lon="-73.98452">
        <ele>82</ele>
        <time>2012-04-09T19:25:10Z</time>
      </trkpt>
      <trkpt lat="40.76085" lon="-73.98449">
        <ele>81</ele>
        <time>2012-04-09T19:25:11Z</time>
      </trkpt>
      <trkpt lat="40.76085" lon="-73.98445">
        <ele>80</ele>
        <time>2012-04-09T19:25:12Z</time>
      </trkpt>
      <trkpt lat="40.76082" lon="-73.98441">
        <ele>80</ele>
        <time>2012-04-09T19:25:15Z</time>
      </trkpt>
      <trkpt lat="40.76082" lon="-73.98443">
        <ele>80</ele>
        <time>2012-04-09T19:25:16Z</time>
      </trkpt>
      <trkpt lat="40.76089" lon="-73.98498">
        <ele>78</ele>
        <time>2012-04-09T19:26:41Z</time>
      </trkpt>
      <trkpt lat="40.76085" lon="-73.985">
        <ele>80</ele>
        <time>2012-04-09T19:26:42Z</time>
      </trkpt>
      <trkpt lat="40.76084" lon="-73.98502">
        <ele>82</ele>
        <time>2012-04-09T19:26:43Z</time>
      </trkpt>
      <trkpt lat="40.76083" lon="-73.985">
        <ele>84</ele>
        <time>2012-04-09T19:26:44Z</time>
      </trkpt>
      <trkpt lat="40.76085" lon="-73.98508">
        <ele>86</ele>
        <time>2012-04-09T19:26:47Z</time>
      </trkpt>
      <trkpt lat="40.76085" lon="-73.98512">
        <ele>87</ele>
        <time>2012-04-09T19:26:48Z</time>
      </trkpt>
      <trkpt lat="40.76086" lon="-73.98516">
        <ele>88</ele>
        <time>2012-04-09T19:26:49Z</time>
      </trkpt>
      <trkpt lat="40.76088" lon="-73.98517">
        <ele>88</ele>
        <time>2012-04-09T19:26:50Z</time>
      </trkpt>
      <trkpt lat="40.76089" lon="-73.98516">
        <ele>88</ele>
        <time>2012-04-09T19:26:51Z</time>
      </trkpt>
      <trkpt lat="40.76092" lon="-73.98515">
        <ele>87</ele>
        <time>2012-04-09T19:26:52Z</time>
      </trkpt>
      <trkpt lat="40.76095" lon="-73.98515">
        <ele>86</ele>
        <time>2012-04-09T19:26:53Z</time>
      </trkpt>
      <trkpt lat="40.76099" lon="-73.98518">
        <ele>85</ele>
        <time>2012-04-09T19:26:54Z</time>
      </trkpt>
      <trkpt lat="40.76101" lon="-73.9852">
        <ele>83</ele>
        <time>2012-04-09T19:26:55Z</time>
      </trkpt>
      <trkpt lat="40.76102" lon="-73.98521">
        <ele>81</ele>
        <time>2012-04-09T19:26:58Z</time>
      </trkpt>
      <trkpt lat="40.76106" lon="-73.98521">
        <ele>78</ele>
        <time>2012-04-09T19:26:59Z</time>
      </trkpt>
      <trkpt lat="40.76105" lon="-73.98513">
        <ele>72</ele>
        <time>2012-04-09T19:27:03Z</time>
      </trkpt>
      <trkpt lat="40.76104" lon="-73.98511">
        <ele>70</ele>
        <time>2012-04-09T19:27:04Z</time>
      </trkpt>
      <trkpt lat="40.76102" lon="-73.98509">
        <ele>70</ele>
        <time>2012-04-09T19:27:10Z</time>
      </trkpt>
      <trkpt lat="40.76099" lon="-73.98507">
        <ele>71</ele>
        <time>2012-04-09T19:27:11Z</time>
      </trkpt>
      <trkpt lat="40.76099" lon="-73.98502">
        <ele>76</ele>
        <time>2012-04-09T19:27:13Z</time>
      </trkpt>
      <trkpt lat="40.76098" lon="-73.985">
        <ele>82</ele>
        <time>2012-04-09T19:27:15Z</time>
      </trkpt>
      <trkpt lat="40.76097" lon="-73.98498">
        <ele>85</ele>
        <time>2012-04-09T19:27:16Z</time>
      </trkpt>
      <trkpt lat="40.76096" lon="-73.98495">
        <ele>88</ele>
        <time>2012-04-09T19:27:17Z</time>
      </trkpt>
      <trkpt lat="40.76095" lon="-73.98492">
        <ele>91</ele>
        <time>2012-04-09T19:27:18Z</time>
      </trkpt>
      <trkpt lat="40.76094" lon="-73.98485">
        <ele>94</ele>
        <time>2012-04-09T19:27:23Z</time>
      </trkpt>
      <trkpt lat="40.7609" lon="-73.98483">
        <ele>97</ele>
        <time>2012-04-09T19:27:24Z</time>
      </trkpt>
      <trkpt lat="40.76088" lon="-73.98483">
        <ele>100</ele>
        <time>2012-04-09T19:27:25Z</time>
      </trkpt>
      <trkpt lat="40.76087" lon="-73.98481">
        <ele>103</ele>
        <time>2012-04-09T19:27:26Z</time>
      </trkpt>
      <trkpt lat="40.76086" lon="-73.9848">
        <ele>105</ele>
        <time>2012-04-09T19:27:27Z</time>
      </trkpt>
      <trkpt lat="40.76084" lon="-73.98479">
        <ele>108</ele>
        <time>2012-04-09T19:27:28Z</time>
      </trkpt>
      <trkpt lat="40.76082" lon="-73.98477">
        <ele>112</ele>
        <time>2012-04-09T19:27:30Z</time>
      </trkpt>
      <trkpt lat="40.76081" lon="-73.98476">
        <ele>114</ele>
        <time>2012-04-09T19:27:31Z</time>
      </trkpt>
      <trkpt lat="40.76078" lon="-73.98477">
        <ele>116</ele>
        <time>2012-04-09T19:27:32Z</time>
      </trkpt>
      <trkpt lat="40.76072" lon="-73.98463">
        <ele>118</ele>
        <time>2012-04-09T19:27:35Z</time>
      </trkpt>
      <trkpt lat="40.76072" lon="-73.98461">
        <ele>120</ele>
        <time>2012-04-09T19:27:36Z</time>
      </trkpt>
      <trkpt lat="40.76068" lon="-73.9846">
        <ele>122</ele>
        <time>2012-04-09T19:27:37Z</time>
      </trkpt>
      <trkpt lat="40.76066" lon="-73.98459">
        <ele>125</ele>
        <time>2012-04-09T19:27:38Z</time>
      </trkpt>
      <trkpt lat="40.76064" lon="-73.98458">
        <ele>128</ele>
        <time>2012-04-09T19:27:39Z</time>
      </trkpt>
      <trkpt lat="40.7606" lon="-73.98458">
        <ele>130</ele>
        <time>2012-04-09T19:27:40Z</time>
      </trkpt>
      <trkpt lat="40.76057" lon="-73.98457">
        <ele>132</ele>
        <time>2012-04-09T19:27:41Z</time>
      </trkpt>
      <trkpt lat="40.76055" lon="-73.98453">
        <ele>134</ele>
        <time>2012-04-09T19:27:42Z</time>
      </trkpt>
      <trkpt lat="40.76052" lon="-73.9845">
        <ele>135</ele>
        <time>2012-04-09T19:27:43Z</time>
      </trkpt>
      <trkpt lat="40.76048" lon="-73.98448">
        <ele>136</ele>
        <time>2012-04-09T19:27:44Z</time>
      </trkpt>
      <trkpt lat="40.76046" lon="-73.98448">
        <ele>137</ele>
        <time>2012-04-09T19:27:45Z</time>
      </trkpt>
      <trkpt lat="40.76036" lon="-73.9845">
        <ele>138</ele>
        <time>2012-04-09T19:27:48Z</time>
      </trkpt>
      <trkpt lat="40.76033" lon="-73.98453">
        <ele>140</ele>
        <time>2012-04-09T19:27:49Z</time>
      </trkpt>
      <trkpt lat="40.76022" lon="-73.9845">
        <ele>143</ele>
        <time>2012-04-09T19:27:50Z</time>
      </trkpt>
      <trkpt lat="40.76018" lon="-73.9845">
        <ele>147</ele>
        <time>2012-04-09T19:27:51Z</time>
      </trkpt>
      <trkpt lat="40.7602" lon="-73.9845">
        <ele>151</ele>
        <time>2012-04-09T19:27:52Z</time>
      </trkpt>
      <trkpt lat="40.76021" lon="-73.98459">
        <ele>155</ele>
        <time>2012-04-09T19:27:54Z</time>
      </trkpt>
      <trkpt lat="40.7602" lon="-73.9846">
        <ele>158</ele>
        <time>2012-04-09T19:27:55Z</time>
      </trkpt>
      <trkpt lat="40.76019" lon="-73.98458">
        <ele>161</ele>
        <time>2012-04-09T19:27:57Z</time>
      </trkpt>
      <trkpt lat="40.76016" lon="-73.98457">
        <ele>162</ele>
        <time>2012-04-09T19:28:00Z</time>
      </trkpt>
      <trkpt lat="40.76014" lon="-73.98457">
        <ele>162</ele>
        <time>2012-04-09T19:28:01Z</time>
      </trkpt>
      <trkpt lat="40.76012" lon="-73.98458">
        <ele>162</ele>
        <time>2012-04-09T19:28:02Z</time>
      </trkpt>
      <trkpt lat="40.76011" lon="-73.98458">
        <ele>162</ele>
        <time>2012-04-09T19:28:03Z</time>
      </trkpt>
      <trkpt lat="40.76013" lon="-73.98461">
        <ele>162</ele>
        <time>2012-04-09T19:28:05Z</time>
      </trkpt>
      <trkpt lat="40.76015" lon="-73.98463">
        <ele>161</ele>
        <time>2012-04-09T19:28:06Z</time>
      </trkpt>
      <trkpt lat="40.76016" lon="-73.98466">
        <ele>160</ele>
        <time>2012-04-09T19:28:07Z</time>
      </trkpt>
      <trkpt lat="40.76017" lon="-73.9847">
        <ele>157</ele>
        <time>2012-04-09T19:28:09Z</time>
      </trkpt>
      <trkpt lat="40.76018" lon="-73.98474">
        <ele>155</ele>
        <time>2012-04-09T19:28:10Z</time>
      </trkpt>
      <trkpt lat="40.76027" lon="-73.98487">
        <ele>148</ele>
        <time>2012-04-09T19:28:14Z</time>
      </trkpt>
      <trkpt lat="40.7603" lon="-73.98492">
        <ele>146</ele>
        <time>2012-04-09T19:28:15Z</time>
      </trkpt>
      <trkpt lat="40.76032" lon="-73.985">
        <ele>144</ele>
        <time>2012-04-09T19:28:16Z</time>
      </trkpt>
      <trkpt lat="40.76037" lon="-73.98512">
        <ele>142</ele>
        <time>2012-04-09T19:28:17Z</time>
      </trkpt>
      <trkpt lat="40.76041" lon="-73.98524">
        <ele>139</ele>
        <time>2012-04-09T19:28:18Z</time>
      </trkpt>
      <trkpt lat="40.76042" lon="-73.98531">
        <ele>136</ele>
        <time>2012-04-09T19:28:19Z</time>
      </trkpt>
      <trkpt lat="40.76042" lon="-73.98534">
        <ele>133</ele>
        <time>2012-04-09T19:28:20Z</time>
      </trkpt>
      <trkpt lat="40.76041" lon="-73.98537">
        <ele>129</ele>
        <time>2012-04-09T19:28:21Z</time>
      </trkpt>
      <trkpt lat="40.7604" lon="-73.98538">
        <ele>125</ele>
        <time>2012-04-09T19:28:22Z</time>
      </trkpt>
      <trkpt lat="40.76038" lon="-73.9854">
        <ele>120</ele>
        <time>2012-04-09T19:28:23Z</time>
      </trkpt>
      <trkpt lat="40.76037" lon="-73.98545">
        <ele>115</ele>
        <time>2012-04-09T19:28:24Z</time>
      </trkpt>
      <trkpt lat="40.76036" lon="-73.98547">
        <ele>110</ele>
        <time>2012-04-09T19:28:25Z</time>
      </trkpt>
      <trkpt lat="40.76035" lon="-73.98549">
        <ele>105</ele>
        <time>2012-04-09T19:28:26Z</time>
      </trkpt>
      <trkpt lat="40.76033" lon="-73.98548">
        <ele>97</ele>
        <time>2012-04-09T19:28:28Z</time>
      </trkpt>
      <trkpt lat="40.76031" lon="-73.98548">
        <ele>87</ele>
        <time>2012-04-09T19:28:33Z</time>
      </trkpt>
      <trkpt lat="40.7603" lon="-73.98546">
        <ele>87</ele>
        <time>2012-04-09T19:28:35Z</time>
      </trkpt>
      <trkpt lat="40.76026" lon="-73.98545">
        <ele>87</ele>
        <time>2012-04-09T19:28:36Z</time>
      </trkpt>
      <trkpt lat="40.76024" lon="-73.98542">
        <ele>88</ele>
        <time>2012-04-09T19:28:37Z</time>
      </trkpt>
      <trkpt lat="40.76023" lon="-73.9854">
        <ele>90</ele>
        <time>2012-04-09T19:28:38Z</time>
      </trkpt>
      <trkpt lat="40.76025" lon="-73.9854">
        <ele>97</ele>
        <time>2012-04-09T19:28:40Z</time>
      </trkpt>
      <trkpt lat="40.76023" lon="-73.98536">
        <ele>101</ele>
        <time>2012-04-09T19:28:41Z</time>
      </trkpt>
      <trkpt lat="40.76025" lon="-73.98534">
        <ele>117</ele>
        <time>2012-04-09T19:28:48Z</time>
      </trkpt>
      <trkpt lat="40.76022" lon="-73.98534">
        <ele>121</ele>
        <time>2012-04-09T19:28:49Z</time>
      </trkpt>
      <trkpt lat="40.7602" lon="-73.98535">
        <ele>125</ele>
        <time>2012-04-09T19:28:50Z</time>
      </trkpt>
      <trkpt lat="40.76019" lon="-73.98535">
        <ele>131</ele>
        <time>2012-04-09T19:28:52Z</time>
      </trkpt>
      <trkpt lat="40.76019" lon="-73.98532">
        <ele>137</ele>
        <time>2012-04-09T19:28:54Z</time>
      </trkpt>
      <trkpt lat="40.7602" lon="-73.98531">
        <ele>139</ele>
        <time>2012-04-09T19:28:57Z</time>
      </trkpt>
      <trkpt lat="40.75972" lon="-73.98576">
        <ele>143</ele>
        <time>2012-04-09T19:28:58Z</time>
      </trkpt>
      <trkpt lat="40.75968" lon="-73.98578">
        <ele>150</ele>
        <time>2012-04-09T19:28:59Z</time>
      </trkpt>
      <trkpt lat="40.75956" lon="-73.98589">
        <ele>159</ele>
        <time>2012-04-09T19:29:00Z</time>
      </trkpt>
      <trkpt lat="40.75952" lon="-73.9859">
        <ele>170</ele>
        <time>2012-04-09T19:29:02Z</time>
      </trkpt>
      <trkpt lat="40.75948" lon="-73.98579">
        <ele>197</ele>
        <time>2012-04-09T19:29:11Z</time>
      </trkpt>
      <trkpt lat="40.75946" lon="-73.98569">
        <ele>209</ele>
        <time>2012-04-09T19:29:12Z</time>
      </trkpt>
      <trkpt lat="40.75956" lon="-73.98575">
        <ele>219</ele>
        <time>2012-04-09T19:29:13Z</time>
      </trkpt>
      <trkpt lat="40.75954" lon="-73.98564">
        <ele>227</ele>
        <time>2012-04-09T19:29:14Z</time>
      </trkpt>
      <trkpt lat="40.75954" lon="-73.98563">
        <ele>233</ele>
        <time>2012-04-09T19:29:15Z</time>
      </trkpt>
      <trkpt lat="40.7595" lon="-73.98553">
        <ele>237</ele>
        <time>2012-04-09T19:29:16Z</time>
      </trkpt>
      <trkpt lat="40.75948" lon="-73.98547">
        <ele>240</ele>
        <time>2012-04-09T19:29:17Z</time>
      </trkpt>
      <trkpt lat="40.75946" lon="-73.9854">
        <ele>243</ele>
        <time>2012-04-09T19:29:18Z</time>
      </trkpt>
      <trkpt lat="40.75944" lon="-73.98534">
        <ele>246</ele>
        <time>2012-04-09T19:29:19Z</time>
      </trkpt>
      <trkpt lat="40.75943" lon="-73.9853">
        <ele>248</ele>
        <time>2012-04-09T19:29:20Z</time>
      </trkpt>
      <trkpt lat="40.75948" lon="-73.98525">
        <ele>251</ele>
        <time>2012-04-09T19:29:22Z</time>
      </trkpt>
      <trkpt lat="40.75949" lon="-73.98527">
        <ele>251</ele>
        <time>2012-04-09T19:29:23Z</time>
      </trkpt>
      <trkpt lat="40.75951" lon="-73.98528">
        <ele>250</ele>
        <time>2012-04-09T19:29:24Z</time>
      </trkpt>
      <trkpt lat="40.75955" lon="-73.98531">
        <ele>248</ele>
        <time>2012-04-09T19:29:25Z</time>
      </trkpt>
      <trkpt lat="40.75959" lon="-73.98532">
        <ele>245</ele>
        <time>2012-04-09T19:29:26Z</time>
      </trkpt>
      <trkpt lat="40.75962" lon="-73.98534">
        <ele>241</ele>
        <time>2012-04-09T19:29:27Z</time>
      </trkpt>
      <trkpt lat="40.75965" lon="-73.98536">
        <ele>237</ele>
        <time>2012-04-09T19:29:28Z</time>
      </trkpt>
      <trkpt lat="40.75968" lon="-73.98537">
        <ele>232</ele>
        <time>2012-04-09T19:29:29Z</time>
      </trkpt>
      <trkpt lat="40.7597" lon="-73.98537">
        <ele>227</ele>
        <time>2012-04-09T19:29:30Z</time>
      </trkpt>
      <trkpt lat="40.75971" lon="-73.98538">
        <ele>222</ele>
        <time>2012-04-09T19:29:31Z</time>
      </trkpt>
      <trkpt lat="40.75974" lon="-73.98539">
        <ele>217</ele>
        <time>2012-04-09T19:29:32Z</time>
      </trkpt>
      <trkpt lat="40.75974" lon="-73.98541">
        <ele>208</ele>
        <time>2012-04-09T19:29:34Z</time>
      </trkpt>
      <trkpt lat="40.75974" lon="-73.98547">
        <ele>200</ele>
        <time>2012-04-09T19:29:38Z</time>
      </trkpt>
      <trkpt lat="40.75976" lon="-73.98556">
        <ele>195</ele>
        <time>2012-04-09T19:29:39Z</time>
      </trkpt>
      <trkpt lat="40.75978" lon="-73.98562">
        <ele>190</ele>
        <time>2012-04-09T19:29:40Z</time>
      </trkpt>
      <trkpt lat="40.7598" lon="-73.98565">
        <ele>185</ele>
        <time>2012-04-09T19:29:41Z</time>
      </trkpt>
      <trkpt lat="40.75982" lon="-73.98567">
        <ele>180</ele>
        <time>2012-04-09T19:29:42Z</time>
      </trkpt>
      <trkpt lat="40.75983" lon="-73.98569">
        <ele>176</ele>
        <time>2012-04-09T19:29:43Z</time>
      </trkpt>
      <trkpt lat="40.75984" lon="-73.9857">
        <ele>172</ele>
        <time>2012-04-09T19:29:44Z</time>
      </trkpt>
      <trkpt lat="40.75986" lon="-73.98578">
        <ele>165</ele>
        <time>2012-04-09T19:29:48Z</time>
      </trkpt>
      <trkpt lat="40.75981" lon="-73.98569">
        <ele>162</ele>
        <time>2012-04-09T19:29:50Z</time>
      </trkpt>
      <trkpt lat="40.75979" lon="-73.98574">
        <ele>159</ele>
        <time>2012-04-09T19:29:52Z</time>
      </trkpt>
      <trkpt lat="40.75977" lon="-73.98577">
        <ele>156</ele>
        <time>2012-04-09T19:29:54Z</time>
      </trkpt>
      <trkpt lat="40.75976" lon="-73.98579">
        <ele>150</ele>
        <time>2012-04-09T19:29:56Z</time>
      </trkpt>
      <trkpt lat="40.75975" lon="-73.9858">
        <ele>142</ele>
        <time>2012-04-09T19:29:59Z</time>
      </trkpt>
      <trkpt lat="40.75973" lon="-73.98579">
        <ele>138</ele>
        <time>2012-04-09T19:30:01Z</time>
      </trkpt>
      <trkpt lat="40.75975" lon="-73.98585">
        <ele>136</ele>
        <time>2012-04-09T19:30:02Z</time>
      </trkpt>
      <trkpt lat="40.75977" lon="-73.98589">
        <ele>134</ele>
        <time>2012-04-09T19:30:03Z</time>
      </trkpt>
      <trkpt lat="40.75978" lon="-73.98591">
        <ele>132</ele>
        <time>2012-04-09T19:30:04Z</time>
      </trkpt>
      <trkpt lat="40.7598" lon="-73.98592">
        <ele>128</ele>
        <time>2012-04-09T19:30:15Z</time>
      </trkpt>
      <trkpt lat="40.75976" lon="-73.98593">
        <ele>126</ele>
        <time>2012-04-09T19:30:17Z</time>
      </trkpt>
      <trkpt lat="40.75975" lon="-73.98592">
        <ele>124</ele>
        <time>2012-04-09T19:30:18Z</time>
      </trkpt>
      <trkpt lat="40.75977" lon="-73.98598">
        <ele>122</ele>
        <time>2012-04-09T19:30:19Z</time>
      </trkpt>
      <trkpt lat="40.75976" lon="-73.98596">
        <ele>120</ele>
        <time>2012-04-09T19:30:22Z</time>
      </trkpt>
      <trkpt lat="40.75972" lon="-73.98612">
        <ele>118</ele>
        <time>2012-04-09T19:30:27Z</time>
      </trkpt>
      <trkpt lat="40.75972" lon="-73.98615">
        <ele>116</ele>
        <time>2012-04-09T19:30:28Z</time>
      </trkpt>
      <trkpt lat="40.75971" lon="-73.98643">
        <ele>114</ele>
        <time>2012-04-09T19:30:29Z</time>
      </trkpt>
      <trkpt lat="40.7597" lon="-73.98647">
        <ele>111</ele>
        <time>2012-04-09T19:30:30Z</time>
      </trkpt>
      <trkpt lat="40.7597" lon="-73.98661">
        <ele>108</ele>
        <time>2012-04-09T19:30:31Z</time>
      </trkpt>
      <trkpt lat="40.75969" lon="-73.98669">
        <ele>105</ele>
        <time>2012-04-09T19:30:32Z</time>
      </trkpt>
      <trkpt lat="40.7597" lon="-73.98673">
        <ele>102</ele>
        <time>2012-04-09T19:30:33Z</time>
      </trkpt>
      <trkpt lat="40.75969" lon="-73.98677">
        <ele>99</ele>
        <time>2012-04-09T19:30:34Z</time>
      </trkpt>
      <trkpt lat="40.75969" lon="-73.9868">
        <ele>96</ele>
        <time>2012-04-09T19:30:35Z</time>
      </trkpt>
      <trkpt lat="40.75967" lon="-73.98682">
        <ele>93</ele>
        <time>2012-04-09T19:30:36Z</time>
      </trkpt>
      <trkpt lat="40.75965" lon="-73.98684">
        <ele>87</ele>
        <time>2012-04-09T19:30:38Z</time>
      </trkpt>
      <trkpt lat="40.75964" lon="-73.98683">
        <ele>84</ele>
        <time>2012-04-09T19:30:39Z</time>
      </trkpt>
      <trkpt lat="40.75964" lon="-73.98686">
        <ele>78</ele>
        <time>2012-04-09T19:30:41Z</time>
      </trkpt>
      <trkpt lat="40.75964" lon="-73.98689">
        <ele>75</ele>
        <time>2012-04-09T19:30:42Z</time>
      </trkpt>
      <trkpt lat="40.75965" lon="-73.98692">
        <ele>72</ele>
        <time>2012-04-09T19:30:43Z</time>
      </trkpt>
      <trkpt lat="40.75964" lon="-73.98693">
        <ele>66</ele>
        <time>2012-04-09T19:30:45Z</time>
      </trkpt>
      <trkpt lat="40.75964" lon="-73.98695">
        <ele>63</ele>
        <time>2012-04-09T19:30:46Z</time>
      </trkpt>
      <trkpt lat="40.75956" lon="-73.98679">
        <ele>57</ele>
        <time>2012-04-09T19:30:48Z</time>
      </trkpt>
      <trkpt lat="40.75955" lon="-73.98676">
        <ele>49</ele>
        <time>2012-04-09T19:30:50Z</time>
      </trkpt>
      <trkpt lat="40.75954" lon="-73.98672">
        <ele>45</ele>
        <time>2012-04-09T19:30:51Z</time>
      </trkpt>
      <trkpt lat="40.75952" lon="-73.98669">
        <ele>41</ele>
        <time>2012-04-09T19:30:52Z</time>
      </trkpt>
      <trkpt lat="40.75951" lon="-73.98667">
        <ele>34</ele>
        <time>2012-04-09T19:30:54Z</time>
      </trkpt>
      <trkpt lat="40.7595" lon="-73.98665">
        <ele>31</ele>
        <time>2012-04-09T19:30:55Z</time>
      </trkpt>
      <trkpt lat="40.75942" lon="-73.98648">
        <ele>14</ele>
        <time>2012-04-09T19:31:06Z</time>
      </trkpt>
      <trkpt lat="40.75944" lon="-73.98648">
        <ele>8</ele>
        <time>2012-04-09T19:31:08Z</time>
      </trkpt>
      <trkpt lat="40.75935" lon="-73.98638">
        <ele>5</ele>
        <time>2012-04-09T19:31:12Z</time>
      </trkpt>
      <trkpt lat="40.75934" lon="-73.98635">
        <ele>3</ele>
        <time>2012-04-09T19:31:13Z</time>
      </trkpt>
      <trkpt lat="40.75932" lon="-73.98632">
        <time>2012-04-09T19:31:15Z</time>
      </trkpt>
      <trkpt lat="40.75931" lon="-73.98629">
        <time>2012-04-09T19:31:16Z</time>
      </trkpt>
      <trkpt lat="40.75929" lon="-73.98626">
        <ele>-1</ele>
        <time>2012-04-09T19:31:17Z</time>
      </trkpt>
      <trkpt lat="40.75928" lon="-73.98624">
        <ele>-2</ele>
        <time>2012-04-09T19:31:18Z</time>
      </trkpt>
      <trkpt lat="40.75927" lon="-73.98621">
        <ele>-5</ele>
        <time>2012-04-09T19:31:20Z</time>
      </trkpt>
      <trkpt lat="40.75924" lon="-73.98619">
        <ele>-7</ele>
        <time>2012-04-09T19:31:21Z</time>
      </trkpt>
      <trkpt lat="40.75921" lon="-73.98616">
        <ele>-13</ele>
        <time>2012-04-09T19:31:22Z</time>
      </trkpt>
      <trkpt lat="40.75907" lon="-73.98607">
        <ele>-15</ele>
        <time>2012-04-09T19:31:27Z</time>
      </trkpt>
      <trkpt lat="40.75902" lon="-73.98603">
        <ele>-18</ele>
        <time>2012-04-09T19:31:28Z</time>
      </trkpt>
      <trkpt lat="40.75896" lon="-73.98593">
        <ele>-20</ele>
        <time>2012-04-09T19:31:30Z</time>
      </trkpt>
      <trkpt lat="40.75893" lon="-73.98586">
        <ele>-21</ele>
        <time>2012-04-09T19:31:31Z</time>
      </trkpt>
      <trkpt lat="40.75892" lon="-73.98579">
        <ele>-22</ele>
        <time>2012-04-09T19:31:32Z</time>
      </trkpt>
      <trkpt lat="40.75891" lon="-73.98574">
        <ele>-22</ele>
        <time>2012-04-09T19:31:33Z</time>
      </trkpt>
      <trkpt lat="40.75889" lon="-73.98568">
        <ele>-21</ele>
        <time>2012-04-09T19:31:35Z</time>
      </trkpt>
      <trkpt lat="40.75886" lon="-73.98566">
        <ele>-19</ele>
        <time>2012-04-09T19:31:36Z</time>
      </trkpt>
      <trkpt lat="40.75883" lon="-73.98563">
        <ele>-16</ele>
        <time>2012-04-09T19:31:37Z</time>
      </trkpt>
      <trkpt lat="40.7588" lon="-73.98561">
        <ele>-8</ele>
        <time>2012-04-09T19:31:39Z</time>
      </trkpt>
      <trkpt lat="40.7588" lon="-73.98559">
        <ele>6</ele>
        <time>2012-04-09T19:31:42Z</time>
      </trkpt>
      <trkpt lat="40.75879" lon="-73.98557">
        <ele>10</ele>
        <time>2012-04-09T19:31:43Z</time>
      </trkpt>
      <trkpt lat="40.75877" lon="-73.98555">
        <ele>15</ele>
        <time>2012-04-09T19:31:44Z</time>
      </trkpt>
      <trkpt lat="40.75872" lon="-73.9855">
        <ele>20</ele>
        <time>2012-04-09T19:31:47Z</time>
      </trkpt>
      <trkpt lat="40.75869" lon="-73.98549">
        <ele>29</ele>
        <time>2012-04-09T19:31:49Z</time>
      </trkpt>
      <trkpt lat="40.75793" lon="-73.98486">
        <ele>59</ele>
        <time>2012-04-09T19:36:08Z</time>
      </trkpt>
      <trkpt lat="40.75792" lon="-73.98486">
        <ele>63</ele>
        <time>2012-04-09T19:36:09Z</time>
      </trkpt>
      <trkpt lat="40.75795" lon="-73.98486">
        <ele>67</ele>
        <time>2012-04-09T19:36:10Z</time>
      </trkpt>
      <trkpt lat="40.75797" lon="-73.98486">
        <ele>70</ele>
        <time>2012-04-09T19:36:11Z</time>
      </trkpt>
      <trkpt lat="40.75792" lon="-73.98486">
        <ele>73</ele>
        <time>2012-04-09T19:36:15Z</time>
      </trkpt>
      <trkpt lat="40.75791" lon="-73.98488">
        <ele>76</ele>
        <time>2012-04-09T19:36:16Z</time>
      </trkpt>
      <trkpt lat="40.75789" lon="-73.98489">
        <ele>78</ele>
        <time>2012-04-09T19:36:17Z</time>
      </trkpt>
      <trkpt lat="40.75785" lon="-73.98471">
        <ele>80</ele>
        <time>2012-04-09T19:36:26Z</time>
      </trkpt>
      <trkpt lat="40.75787" lon="-73.98476">
        <ele>83</ele>
        <time>2012-04-09T19:36:27Z</time>
      </trkpt>
      <trkpt lat="40.75785" lon="-73.98478">
        <ele>86</ele>
        <time>2012-04-09T19:36:28Z</time>
      </trkpt>
      <trkpt lat="40.75783" lon="-73.98481">
        <ele>89</ele>
        <time>2012-04-09T19:36:29Z</time>
      </trkpt>
      <trkpt lat="40.75782" lon="-73.98486">
        <ele>92</ele>
        <time>2012-04-09T19:36:30Z</time>
      </trkpt>
      <trkpt lat="40.7578" lon="-73.98489">
        <ele>95</ele>
        <time>2012-04-09T19:36:31Z</time>
      </trkpt>
      <trkpt lat="40.75776" lon="-73.98493">
        <ele>97</ele>
        <time>2012-04-09T19:36:32Z</time>
      </trkpt>
      <trkpt lat="40.75778" lon="-73.98494">
        <ele>99</ele>
        <time>2012-04-09T19:36:33Z</time>
      </trkpt>
      <trkpt lat="40.75779" lon="-73.98498">
        <ele>103</ele>
        <time>2012-04-09T19:36:35Z</time>
      </trkpt>
      <trkpt lat="40.75779" lon="-73.985">
        <ele>104</ele>
        <time>2012-04-09T19:36:36Z</time>
      </trkpt>
      <trkpt lat="40.75779" lon="-73.98504">
        <ele>105</ele>
        <time>2012-04-09T19:36:37Z</time>
      </trkpt>
      <trkpt lat="40.7578" lon="-73.98507">
        <ele>106</ele>
        <time>2012-04-09T19:36:38Z</time>
      </trkpt>
      <trkpt lat="40.75779" lon="-73.9851">
        <ele>107</ele>
        <time>2012-04-09T19:36:40Z</time>
      </trkpt>
      <trkpt lat="40.75779" lon="-73.98512">
        <ele>107</ele>
        <time>2012-04-09T19:36:41Z</time>
      </trkpt>
      <trkpt lat="40.75777" lon="-73.98515">
        <ele>107</ele>
        <time>2012-04-09T19:36:43Z</time>
      </trkpt>
      <trkpt lat="40.75777" lon="-73.98518">
        <ele>107</ele>
        <time>2012-04-09T19:36:44Z</time>
      </trkpt>
      <trkpt lat="40.75775" lon="-73.98516">
        <ele>107</ele>
        <time>2012-04-09T19:36:45Z</time>
      </trkpt>
      <trkpt lat="40.75774" lon="-73.98514">
        <ele>107</ele>
        <time>2012-04-09T19:36:46Z</time>
      </trkpt>
      <trkpt lat="40.75774" lon="-73.9851">
        <ele>110</ele>
        <time>2012-04-09T19:36:50Z</time>
      </trkpt>
      <trkpt lat="40.75772" lon="-73.98508">
        <ele>113</ele>
        <time>2012-04-09T19:36:53Z</time>
      </trkpt>
      <trkpt lat="40.75771" lon="-73.98507">
        <ele>115</ele>
        <time>2012-04-09T19:36:55Z</time>
      </trkpt>
      <trkpt lat="40.75771" lon="-73.98505">
        <ele>116</ele>
        <time>2012-04-09T19:36:56Z</time>
      </trkpt>
      <trkpt lat="40.7577" lon="-73.98504">
        <ele>117</ele>
        <time>2012-04-09T19:36:57Z</time>
      </trkpt>
      <trkpt lat="40.7577" lon="-73.98502">
        <ele>118</ele>
        <time>2012-04-09T19:36:58Z</time>
      </trkpt>
      <trkpt lat="40.75772" lon="-73.985">
        <ele>119</ele>
        <time>2012-04-09T19:36:59Z</time>
      </trkpt>
      <trkpt lat="40.75773" lon="-73.98498">
        <ele>120</ele>
        <time>2012-04-09T19:37:00Z</time>
      </trkpt>
      <trkpt lat="40.75773" lon="-73.98494">
        <ele>121</ele>
        <time>2012-04-09T19:37:01Z</time>
      </trkpt>
      <trkpt lat="40.75773" lon="-73.98489">
        <ele>122</ele>
        <time>2012-04-09T19:37:02Z</time>
      </trkpt>
      <trkpt lat="40.75773" lon="-73.98487">
        <ele>123</ele>
        <time>2012-04-09T19:37:03Z</time>
      </trkpt>
      <trkpt lat="40.75772" lon="-73.98486">
        <ele>125</ele>
        <time>2012-04-09T19:37:05Z</time>
      </trkpt>
      <trkpt lat="40.75771" lon="-73.98485">
        <ele>125</ele>
        <time>2012-04-09T19:37:06Z</time>
      </trkpt>
      <trkpt lat="40.75771" lon="-73.98487">
        <ele>126</ele>
        <time>2012-04-09T19:37:07Z</time>
      </trkpt>
      <trkpt lat="40.75772" lon="-73.98489">
        <ele>126</ele>
        <time>2012-04-09T19:37:09Z</time>
      </trkpt>
      <trkpt lat="40.75779" lon="-73.98513">
        <ele>126</ele>
        <time>2012-04-09T19:37:25Z</time>
      </trkpt>
      <trkpt lat="40.75777" lon="-73.98505">
        <ele>126</ele>
        <time>2012-04-09T19:37:26Z</time>
      </trkpt>
      <trkpt lat="40.75777" lon="-73.98499">
        <ele>126</ele>
        <time>2012-04-09T19:37:27Z</time>
      </trkpt>
      <trkpt lat="40.75785" lon="-73.98508">
        <ele>126</ele>
        <time>2012-04-09T19:37:34Z</time>
      </trkpt>
      <trkpt lat="40.75789" lon="-73.98508">
        <ele>126</ele>
        <time>2012-04-09T19:37:35Z</time>
      </trkpt>
      <trkpt lat="40.75795" lon="-73.98504">
        <ele>125</ele>
        <time>2012-04-09T19:37:36Z</time>
      </trkpt>
      <trkpt lat="40.75798" lon="-73.98503">
        <ele>123</ele>
        <time>2012-04-09T19:37:37Z</time>
      </trkpt>
      <trkpt lat="40.758" lon="-73.98502">
        <ele>121</ele>
        <time>2012-04-09T19:37:38Z</time>
      </trkpt>
      <trkpt lat="40.75804" lon="-73.98502">
        <ele>118</ele>
        <time>2012-04-09T19:37:39Z</time>
      </trkpt>
      <trkpt lat="40.75805" lon="-73.98505">
        <ele>110</ele>
        <time>2012-04-09T19:37:43Z</time>
      </trkpt>
      <trkpt lat="40.75804" lon="-73.98507">
        <ele>106</ele>
        <time>2012-04-09T19:37:44Z</time>
      </trkpt>
      <trkpt lat="40.75803" lon="-73.98508">
        <ele>102</ele>
        <time>2012-04-09T19:37:45Z</time>
      </trkpt>
      <trkpt lat="40.75805" lon="-73.98513">
        <ele>99</ele>
        <time>2012-04-09T19:37:46Z</time>
      </trkpt>
      <trkpt lat="40.75805" lon="-73.98515">
        <ele>96</ele>
        <time>2012-04-09T19:37:47Z</time>
      </trkpt>
      <trkpt lat="40.75801" lon="-73.98513">
        <ele>88</ele>
        <time>2012-04-09T19:37:50Z</time>
      </trkpt>
      <trkpt lat="40.75803" lon="-73.98518">
        <ele>86</ele>
        <time>2012-04-09T19:37:52Z</time>
      </trkpt>
      <trkpt lat="40.75822" lon="-73.98524">
        <ele>79</ele>
        <time>2012-04-09T19:38:03Z</time>
      </trkpt>
      <trkpt lat="40.75826" lon="-73.98527">
        <ele>77</ele>
        <time>2012-04-09T19:38:06Z</time>
      </trkpt>
      <trkpt lat="40.75829" lon="-73.9853">
        <ele>76</ele>
        <time>2012-04-09T19:38:07Z</time>
      </trkpt>
      <trkpt lat="40.7583" lon="-73.98531">
        <ele>74</ele>
        <time>2012-04-09T19:38:08Z</time>
      </trkpt>
      <trkpt lat="40.75831" lon="-73.98532">
        <ele>73</ele>
        <time>2012-04-09T19:38:09Z</time>
      </trkpt>
      <trkpt lat="40.75832" lon="-73.98533">
        <ele>71</ele>
        <time>2012-04-09T19:38:10Z</time>
      </trkpt>
      <trkpt lat="40.75835" lon="-73.98536">
        <ele>69</ele>
        <time>2012-04-09T19:38:11Z</time>
      </trkpt>
      <trkpt lat="40.75836" lon="-73.98537">
        <ele>67</ele>
        <time>2012-04-09T19:38:12Z</time>
      </trkpt>
      <trkpt lat="40.75837" lon="-73.9854">
        <ele>65</ele>
        <time>2012-04-09T19:38:13Z</time>
      </trkpt>
      <trkpt lat="40.75839" lon="-73.98543">
        <ele>63</ele>
        <time>2012-04-09T19:38:14Z</time>
      </trkpt>
      <trkpt lat="40.75842" lon="-73.98546">
        <ele>60</ele>
        <time>2012-04-09T19:38:15Z</time>
      </trkpt>
      <trkpt lat="40.75843" lon="-73.98549">
        <ele>57</ele>
        <time>2012-04-09T19:38:16Z</time>
      </trkpt>
      <trkpt lat="40.75844" lon="-73.98551">
        <ele>54</ele>
        <time>2012-04-09T19:38:17Z</time>
      </trkpt>
      <trkpt lat="40.75844" lon="-73.98554">
        <ele>51</ele>
        <time>2012-04-09T19:38:18Z</time>
      </trkpt>
      <trkpt lat="40.75846" lon="-73.98557">
        <ele>49</ele>
        <time>2012-04-09T19:38:19Z</time>
      </trkpt>
      <trkpt lat="40.75847" lon="-73.98555">
        <ele>47</ele>
        <time>2012-04-09T19:38:20Z</time>
      </trkpt>
      <trkpt lat="40.75848" lon="-73.98555">
        <ele>41</ele>
        <time>2012-04-09T19:38:23Z</time>
      </trkpt>
      <trkpt lat="40.75847" lon="-73.98556">
        <ele>36</ele>
        <time>2012-04-09T19:38:26Z</time>
      </trkpt>
      <trkpt lat="40.75846" lon="-73.98553">
        <ele>35</ele>
        <time>2012-04-09T19:38:27Z</time>
      </trkpt>
      <trkpt lat="40.75845" lon="-73.98551">
        <ele>34</ele>
        <time>2012-04-09T19:38:28Z</time>
      </trkpt>
      <trkpt lat="40.75843" lon="-73.9855">
        <ele>33</ele>
        <time>2012-04-09T19:38:30Z</time>
      </trkpt>
      <trkpt lat="40.75842" lon="-73.98547">
        <ele>33</ele>
        <time>2012-04-09T19:38:31Z</time>
      </trkpt>
      <trkpt lat="40.75838" lon="-73.98543">
        <ele>33</ele>
        <time>2012-04-09T19:38:33Z</time>
      </trkpt>
      <trkpt lat="40.75837" lon="-73.9854">
        <ele>34</ele>
        <time>2012-04-09T19:38:34Z</time>
      </trkpt>
      <trkpt lat="40.75835" lon="-73.98535">
        <ele>35</ele>
        <time>2012-04-09T19:38:35Z</time>
      </trkpt>
      <trkpt lat="40.75833" lon="-73.98533">
        <ele>36</ele>
        <time>2012-04-09T19:38:36Z</time>
      </trkpt>
      <trkpt lat="40.7583" lon="-73.98531">
        <ele>40</ele>
        <time>2012-04-09T19:38:40Z</time>
      </trkpt>
      <trkpt lat="40.75831" lon="-73.98522">
        <ele>52</ele>
        <time>2012-04-09T19:38:46Z</time>
      </trkpt>
      <trkpt lat="40.75845" lon="-73.9848">
        <ele>23</ele>
        <time>2012-04-09T19:40:53Z</time>
      </trkpt>
      <trkpt lat="40.75843" lon="-73.98482">
        <ele>17</ele>
        <time>2012-04-09T19:40:53Z</time>
      </trkpt>
      <trkpt lat="40.75842" lon="-73.98483">
        <ele>12</ele>
        <time>2012-04-09T19:40:54Z</time>
      </trkpt>
      <trkpt lat="40.75837" lon="-73.98479">
        <ele>4</ele>
        <time>2012-04-09T19:41:12Z</time>
      </trkpt>
      <trkpt lat="40.75837" lon="-73.98481">
        <ele>2</ele>
        <time>2012-04-09T19:41:13Z</time>
      </trkpt>
      <trkpt lat="40.75839" lon="-73.98485">
        <time>2012-04-09T19:41:15Z</time>
      </trkpt>
      <trkpt lat="40.7584" lon="-73.9848">
        <time>2012-04-09T19:41:21Z</time>
      </trkpt>
      <trkpt lat="40.7584" lon="-73.98479">
        <time>2012-04-09T19:41:22Z</time>
      </trkpt>
      <trkpt lat="40.75835" lon="-73.98481">
        <time>2012-04-09T19:41:25Z</time>
      </trkpt>
      <trkpt lat="40.75821" lon="-73.98489">
        <ele>4</ele>
        <time>2012-04-09T19:41:54Z</time>
      </trkpt>
      <trkpt lat="40.7578" lon="-73.98489">
        <ele>38</ele>
        <time>2012-04-09T19:42:51Z</time>
      </trkpt>
      <trkpt lat="40.75778" lon="-73.98486">
        <ele>37</ele>
        <time>2012-04-09T19:42:51Z</time>
      </trkpt>
      <trkpt lat="40.75776" lon="-73.98485">
        <ele>36</ele>
        <time>2012-04-09T19:42:52Z</time>
      </trkpt>
      <trkpt lat="40.75772" lon="-73.98486">
        <ele>35</ele>
        <time>2012-04-09T19:42:53Z</time>
      </trkpt>
      <trkpt lat="40.75865" lon="-73.98527">
        <ele>36</ele>
        <time>2012-04-09T19:48:10Z</time>
      </trkpt>
      <trkpt lat="40.75866" lon="-73.98524">
        <ele>38</ele>
        <time>2012-04-09T19:48:10Z</time>
      </trkpt>
      <trkpt lat="40.75864" lon="-73.98512">
        <ele>42</ele>
        <time>2012-04-09T19:48:11Z</time>
      </trkpt>
      <trkpt lat="40.75866" lon="-73.98518">
        <ele>46</ele>
        <time>2012-04-09T19:48:12Z</time>
      </trkpt>
      <trkpt lat="40.75788" lon="-73.98689">
        <ele>59</ele>
        <time>2012-04-09T19:49:01Z</time>
      </trkpt>
      <trkpt lat="40.75794" lon="-73.98688">
        <ele>63</ele>
        <time>2012-04-09T19:49:01Z</time>
      </trkpt>
      <trkpt lat="40.75808" lon="-73.98689">
        <ele>68</ele>
        <time>2012-04-09T19:49:06Z</time>
      </trkpt>
      <trkpt lat="40.75809" lon="-73.9869">
        <ele>81</ele>
        <time>2012-04-09T19:49:08Z</time>
      </trkpt>
      <trkpt lat="40.75884" lon="-73.98672">
        <ele>129</ele>
        <time>2012-04-09T19:50:12Z</time>
      </trkpt>
      <trkpt lat="40.75882" lon="-73.98689">
        <ele>136</ele>
        <time>2012-04-09T19:50:19Z</time>
      </trkpt>
      <trkpt lat="40.75975" lon="-73.98705">
        <ele>147</ele>
        <time>2012-04-09T19:51:09Z</time>
      </trkpt>
      <trkpt lat="40.75965" lon="-73.98707">
        <ele>149</ele>
        <time>2012-04-09T19:51:10Z</time>
      </trkpt>
      <trkpt lat="40.75955" lon="-73.98701">
        <ele>151</ele>
        <time>2012-04-09T19:51:11Z</time>
      </trkpt>
      <trkpt lat="40.75947" lon="-73.987">
        <ele>153</ele>
        <time>2012-04-09T19:51:12Z</time>
      </trkpt>
      <trkpt lat="40.75939" lon="-73.98701">
        <ele>156</ele>
        <time>2012-04-09T19:51:12Z</time>
      </trkpt>
      <trkpt lat="40.7593" lon="-73.98701">
        <ele>159</ele>
        <time>2012-04-09T19:51:14Z</time>
      </trkpt>
      <trkpt lat="40.7592" lon="-73.98701">
        <ele>161</ele>
        <time>2012-04-09T19:51:15Z</time>
      </trkpt>
      <trkpt lat="40.75911" lon="-73.98698">
        <ele>163</ele>
        <time>2012-04-09T19:51:16Z</time>
      </trkpt>
      <trkpt lat="40.759" lon="-73.98696">
        <ele>165</ele>
        <time>2012-04-09T19:51:17Z</time>
      </trkpt>
      <trkpt lat="40.75797" lon="-73.98423">
        <ele>167</ele>
        <time>2012-04-09T19:52:25Z</time>
      </trkpt>
      <trkpt lat="40.75819" lon="-73.98453">
        <ele>168</ele>
        <time>2012-04-09T19:52:33Z</time>
      </trkpt>
      <trkpt lat="40.75822" lon="-73.98463">
        <ele>168</ele>
        <time>2012-04-09T19:52:34Z</time>
      </trkpt>
      <trkpt lat="40.75825" lon="-73.98473">
        <ele>167</ele>
        <time>2012-04-09T19:52:35Z</time>
      </trkpt>
      <trkpt lat="40.75829" lon="-73.98483">
        <ele>165</ele>
        <time>2012-04-09T19:52:36Z</time>
      </trkpt>
      <trkpt lat="40.75831" lon="-73.98495">
        <ele>163</ele>
        <time>2012-04-09T19:52:38Z</time>
      </trkpt>
      <trkpt lat="40.75834" lon="-73.98519">
        <ele>162</ele>
        <time>2012-04-09T19:52:51Z</time>
      </trkpt>
      <trkpt lat="40.75845" lon="-73.98732">
        <ele>129</ele>
        <time>2012-04-09T20:09:54Z</time>
      </trkpt>
      <trkpt lat="40.75845" lon="-73.9873">
        <ele>109</ele>
        <time>2012-04-09T20:09:57Z</time>
      </trkpt>
      <trkpt lat="40.75899" lon="-73.98702">
        <ele>69</ele>
        <time>2012-04-09T20:10:59Z</time>
      </trkpt>
      <trkpt lat="40.75898" lon="-73.98685">
        <ele>28</ele>
        <time>2012-04-09T20:11:10Z</time>
      </trkpt>
      <trkpt lat="40.75899" lon="-73.98682">
        <ele>18</ele>
        <time>2012-04-09T20:11:11Z</time>
      </trkpt>
      <trkpt lat="40.75901" lon="-73.98679">
        <ele>9</ele>
        <time>2012-04-09T20:11:12Z</time>
      </trkpt>
      <trkpt lat="40.75901" lon="-73.98674">
        <ele>1</ele>
        <time>2012-04-09T20:11:13Z</time>
      </trkpt>
      <trkpt lat="40.75901" lon="-73.98665">
        <ele>-4</ele>
        <time>2012-04-09T20:11:16Z</time>
      </trkpt>
      <trkpt lat="40.75901" lon="-73.98663">
        <ele>-8</ele>
        <time>2012-04-09T20:11:17Z</time>
      </trkpt>
      <trkpt lat="40.759" lon="-73.98661">
        <ele>-13</ele>
        <time>2012-04-09T20:11:18Z</time>
      </trkpt>
      <trkpt lat="40.75874" lon="-73.98625">
        <ele>-17</ele>
        <time>2012-04-09T20:11:44Z</time>
      </trkpt>
      <trkpt lat="40.75877" lon="-73.98623">
        <ele>-22</ele>
        <time>2012-04-09T20:11:45Z</time>
      </trkpt>
      <trkpt lat="40.7588" lon="-73.9862">
        <ele>-40</ele>
        <time>2012-04-09T20:11:46Z</time>
      </trkpt>
      <trkpt lat="40.75893" lon="-73.9861">
        <ele>-48</ele>
        <time>2012-04-09T20:11:52Z</time>
      </trkpt>
      <trkpt lat="40.75895" lon="-73.98618">
        <ele>-55</ele>
        <time>2012-04-09T20:11:54Z</time>
      </trkpt>
      <trkpt lat="40.75896" lon="-73.9862">
        <ele>-66</ele>
        <time>2012-04-09T20:11:58Z</time>
      </trkpt>
      <trkpt lat="40.75897" lon="-73.98621">
        <ele>-74</ele>
        <time>2012-04-09T20:12:00Z</time>
      </trkpt>
      <trkpt lat="40.75893" lon="-73.98619">
        <ele>-76</ele>
        <time>2012-04-09T20:12:05Z</time>
      </trkpt>
      <trkpt lat="40.75891" lon="-73.98618">
        <ele>-78</ele>
        <time>2012-04-09T20:12:07Z</time>
      </trkpt>
      <trkpt lat="40.75891" lon="-73.98615">
        <ele>-78</ele>
        <time>2012-04-09T20:12:08Z</time>
      </trkpt>
      <trkpt lat="40.75891" lon="-73.98613">
        <ele>-76</ele>
        <time>2012-04-09T20:12:09Z</time>
      </trkpt>
      <trkpt lat="40.75851" lon="-73.98602">
        <ele>-25</ele>
        <time>2012-04-09T20:12:25Z</time>
      </trkpt>
      <trkpt lat="40.7585" lon="-73.986">
        <ele>-20</ele>
        <time>2012-04-09T20:12:27Z</time>
      </trkpt>
      <trkpt lat="40.75848" lon="-73.98598">
        <ele>-14</ele>
        <time>2012-04-09T20:12:28Z</time>
      </trkpt>
      <trkpt lat="40.75846" lon="-73.98597">
        <ele>-8</ele>
        <time>2012-04-09T20:12:29Z</time>
      </trkpt>
      <trkpt lat="40.75845" lon="-73.98594">
        <ele>-3</ele>
        <time>2012-04-09T20:12:30Z</time>
      </trkpt>
      <trkpt lat="40.75841" lon="-73.98592">
        <time>2012-04-09T20:12:31Z</time>
      </trkpt>
      <trkpt lat="40.75837" lon="-73.9859">
        <ele>3</ele>
        <time>2012-04-09T20:12:32Z</time>
      </trkpt>
      <trkpt lat="40.75833" lon="-73.98588">
        <ele>7</ele>
        <time>2012-04-09T20:12:33Z</time>
      </trkpt>
      <trkpt lat="40.75832" lon="-73.98587">
        <ele>10</ele>
        <time>2012-04-09T20:12:34Z</time>
      </trkpt>
      <trkpt lat="40.75817" lon="-73.98589">
        <ele>25</ele>
        <time>2012-04-09T20:12:43Z</time>
      </trkpt>
      <trkpt lat="40.75809" lon="-73.98586">
        <ele>28</ele>
        <time>2012-04-09T20:12:53Z</time>
      </trkpt>
      <trkpt lat="40.75804" lon="-73.98581">
        <ele>30</ele>
        <time>2012-04-09T20:12:54Z</time>
      </trkpt>
      <trkpt lat="40.75806" lon="-73.98584">
        <ele>32</ele>
        <time>2012-04-09T20:12:55Z</time>
      </trkpt>
      <trkpt lat="40.75808" lon="-73.98586">
        <ele>34</ele>
        <time>2012-04-09T20:12:56Z</time>
      </trkpt>
      <trkpt lat="40.75805" lon="-73.98586">
        <ele>36</ele>
        <time>2012-04-09T20:12:57Z</time>
      </trkpt>
      <trkpt lat="40.75803" lon="-73.98588">
        <ele>40</ele>
        <time>2012-04-09T20:12:59Z</time>
      </trkpt>
      <trkpt lat="40.75801" lon="-73.98587">
        <ele>42</ele>
        <time>2012-04-09T20:13:00Z</time>
      </trkpt>
      <trkpt lat="40.75799" lon="-73.98588">
        <ele>50</ele>
        <time>2012-04-09T20:13:03Z</time>
      </trkpt>
      <trkpt lat="40.75797" lon="-73.98588">
        <ele>53</ele>
        <time>2012-04-09T20:13:11Z</time>
      </trkpt>
      <trkpt lat="40.75795" lon="-73.98588">
        <ele>56</ele>
        <time>2012-04-09T20:13:17Z</time>
      </trkpt>
      <trkpt lat="40.75793" lon="-73.98586">
        <ele>59</ele>
        <time>2012-04-09T20:13:18Z</time>
      </trkpt>
      <trkpt lat="40.7579" lon="-73.98581">
        <ele>62</ele>
        <time>2012-04-09T20:13:19Z</time>
      </trkpt>
      <trkpt lat="40.75789" lon="-73.98579">
        <ele>65</ele>
        <time>2012-04-09T20:13:20Z</time>
      </trkpt>
      <trkpt lat="40.75791" lon="-73.98582">
        <ele>69</ele>
        <time>2012-04-09T20:13:21Z</time>
      </trkpt>
      <trkpt lat="40.75791" lon="-73.98579">
        <ele>73</ele>
        <time>2012-04-09T20:13:22Z</time>
      </trkpt>
      <trkpt lat="40.75771" lon="-73.98534">
        <ele>127</ele>
        <time>2012-04-09T20:15:20Z</time>
      </trkpt>
      <trkpt lat="40.75772" lon="-73.98534">
        <ele>132</ele>
        <time>2012-04-09T20:15:21Z</time>
      </trkpt>
      <trkpt lat="40.75772" lon="-73.98536">
        <ele>138</ele>
        <time>2012-04-09T20:15:22Z</time>
      </trkpt>
      <trkpt lat="40.75774" lon="-73.98537">
        <ele>145</ele>
        <time>2012-04-09T20:15:23Z</time>
      </trkpt>
      <trkpt lat="40.75773" lon="-73.9854">
        <ele>154</ele>
        <time>2012-04-09T20:15:25Z</time>
      </trkpt>
      <trkpt lat="40.75773" lon="-73.98542">
        <ele>158</ele>
        <time>2012-04-09T20:15:26Z</time>
      </trkpt>
      <trkpt lat="40.75773" lon="-73.98544">
        <ele>161</ele>
        <time>2012-04-09T20:15:27Z</time>
      </trkpt>
      <trkpt lat="40.75775" lon="-73.98544">
        <ele>163</ele>
        <time>2012-04-09T20:15:28Z</time>
      </trkpt>
      <trkpt lat="40.75777" lon="-73.98545">
        <ele>164</ele>
        <time>2012-04-09T20:15:29Z</time>
      </trkpt>
      <trkpt lat="40.75777" lon="-73.98547">
        <ele>165</ele>
        <time>2012-04-09T20:15:30Z</time>
      </trkpt>
      <trkpt lat="40.75776" lon="-73.9855">
        <ele>166</ele>
        <time>2012-04-09T20:15:32Z</time>
      </trkpt>
      <trkpt lat="40.75774" lon="-73.98553">
        <ele>167</ele>
        <time>2012-04-09T20:15:33Z</time>
      </trkpt>
      <trkpt lat="40.75774" lon="-73.98554">
        <ele>168</ele>
        <time>2012-04-09T20:15:34Z</time>
      </trkpt>
      <trkpt lat="40.75774" lon="-73.98557">
        <ele>170</ele>
        <time>2012-04-09T20:15:36Z</time>
      </trkpt>
      <trkpt lat="40.75772" lon="-73.98557">
        <ele>173</ele>
        <time>2012-04-09T20:15:38Z</time>
      </trkpt>
      <trkpt lat="40.75775" lon="-73.98564">
        <ele>174</ele>
        <time>2012-04-09T20:15:39Z</time>
      </trkpt>
      <trkpt lat="40.75776" lon="-73.98566">
        <ele>174</ele>
        <time>2012-04-09T20:15:40Z</time>
      </trkpt>
      <trkpt lat="40.75779" lon="-73.98573">
        <ele>173</ele>
        <time>2012-04-09T20:15:41Z</time>
      </trkpt>
      <trkpt lat="40.75782" lon="-73.98581">
        <ele>169</ele>
        <time>2012-04-09T20:15:43Z</time>
      </trkpt>
      <trkpt lat="40.75782" lon="-73.98582">
        <ele>163</ele>
        <time>2012-04-09T20:15:45Z</time>
      </trkpt>
      <trkpt lat="40.7578" lon="-73.98589">
        <ele>157</ele>
        <time>2012-04-09T20:15:50Z</time>
      </trkpt>
      <trkpt lat="40.75776" lon="-73.98591">
        <ele>154</ele>
        <time>2012-04-09T20:15:51Z</time>
      </trkpt>
      <trkpt lat="40.75776" lon="-73.98593">
        <ele>151</ele>
        <time>2012-04-09T20:15:52Z</time>
      </trkpt>
      <trkpt lat="40.75776" lon="-73.98595">
        <ele>148</ele>
        <time>2012-04-09T20:15:53Z</time>
      </trkpt>
      <trkpt lat="40.75777" lon="-73.98596">
        <ele>145</ele>
        <time>2012-04-09T20:15:54Z</time>
      </trkpt>
      <trkpt lat="40.75778" lon="-73.98597">
        <ele>142</ele>
        <time>2012-04-09T20:15:55Z</time>
      </trkpt>
      <trkpt lat="40.75779" lon="-73.98599">
        <ele>139</ele>
        <time>2012-04-09T20:15:56Z</time>
      </trkpt>
      <trkpt lat="40.75781" lon="-73.98601">
        <ele>136</ele>
        <time>2012-04-09T20:15:57Z</time>
      </trkpt>
      <trkpt lat="40.75785" lon="-73.98608">
        <ele>133</ele>
        <time>2012-04-09T20:15:58Z</time>
      </trkpt>
      <trkpt lat="40.75789" lon="-73.98623">
        <ele>84</ele>
        <time>2012-04-09T20:16:20Z</time>
      </trkpt>
      <trkpt lat="40.75791" lon="-73.98624">
        <ele>83</ele>
        <time>2012-04-09T20:16:23Z</time>
      </trkpt>
      <trkpt lat="40.75793" lon="-73.98624">
        <ele>82</ele>
        <time>2012-04-09T20:16:24Z</time>
      </trkpt>
      <trkpt lat="40.75795" lon="-73.98623">
        <ele>82</ele>
        <time>2012-04-09T20:16:25Z</time>
      </trkpt>
      <trkpt lat="40.75796" lon="-73.98622">
        <ele>82</ele>
        <time>2012-04-09T20:16:27Z</time>
      </trkpt>
      <trkpt lat="40.75798" lon="-73.98621">
        <ele>82</ele>
        <time>2012-04-09T20:16:28Z</time>
      </trkpt>
      <trkpt lat="40.758" lon="-73.98618">
        <ele>82</ele>
        <time>2012-04-09T20:16:29Z</time>
      </trkpt>
      <trkpt lat="40.75801" lon="-73.98617">
        <ele>82</ele>
        <time>2012-04-09T20:16:33Z</time>
      </trkpt>
      <trkpt lat="40.75798" lon="-73.98617">
        <ele>82</ele>
        <time>2012-04-09T20:16:34Z</time>
      </trkpt>
      <trkpt lat="40.75797" lon="-73.98617">
        <ele>81</ele>
        <time>2012-04-09T20:16:35Z</time>
      </trkpt>
      <trkpt lat="40.75795" lon="-73.98615">
        <ele>78</ele>
        <time>2012-04-09T20:16:38Z</time>
      </trkpt>
      <trkpt lat="40.75794" lon="-73.98612">
        <ele>77</ele>
        <time>2012-04-09T20:16:39Z</time>
      </trkpt>
      <trkpt lat="40.75794" lon="-73.98611">
        <ele>75</ele>
        <time>2012-04-09T20:16:40Z</time>
      </trkpt>
      <trkpt lat="40.75796" lon="-73.98608">
        <ele>74</ele>
        <time>2012-04-09T20:16:41Z</time>
      </trkpt>
      <trkpt lat="40.75798" lon="-73.98605">
        <ele>73</ele>
        <time>2012-04-09T20:16:42Z</time>
      </trkpt>
      <trkpt lat="40.758" lon="-73.98604">
        <ele>72</ele>
        <time>2012-04-09T20:16:43Z</time>
      </trkpt>
      <trkpt lat="40.75799" lon="-73.98605">
        <ele>72</ele>
        <time>2012-04-09T20:16:44Z</time>
      </trkpt>
      <trkpt lat="40.75799" lon="-73.98603">
        <ele>73</ele>
        <time>2012-04-09T20:16:46Z</time>
      </trkpt>
      <trkpt lat="40.75799" lon="-73.98601">
        <ele>74</ele>
        <time>2012-04-09T20:16:47Z</time>
      </trkpt>
      <trkpt lat="40.758" lon="-73.98599">
        <ele>76</ele>
        <time>2012-04-09T20:16:49Z</time>
      </trkpt>
      <trkpt lat="40.75796" lon="-73.98592">
        <ele>81</ele>
        <time>2012-04-09T20:16:57Z</time>
      </trkpt>
      <trkpt lat="40.75795" lon="-73.98589">
        <ele>82</ele>
        <time>2012-04-09T20:16:58Z</time>
      </trkpt>
      <trkpt lat="40.75794" lon="-73.98586">
        <ele>82</ele>
        <time>2012-04-09T20:16:59Z</time>
      </trkpt>
      <trkpt lat="40.75794" lon="-73.98582">
        <ele>82</ele>
        <time>2012-04-09T20:17:00Z</time>
      </trkpt>
      <trkpt lat="40.75795" lon="-73.98586">
        <ele>81</ele>
        <time>2012-04-09T20:17:02Z</time>
      </trkpt>
      <trkpt lat="40.75793" lon="-73.98586">
        <ele>79</ele>
        <time>2012-04-09T20:17:04Z</time>
      </trkpt>
      <trkpt lat="40.75794" lon="-73.98584">
        <ele>76</ele>
        <time>2012-04-09T20:17:08Z</time>
      </trkpt>
      <trkpt lat="40.75792" lon="-73.98582">
        <ele>76</ele>
        <time>2012-04-09T20:17:12Z</time>
      </trkpt>
      <trkpt lat="40.75789" lon="-73.98584">
        <ele>76</ele>
        <time>2012-04-09T20:17:13Z</time>
      </trkpt>
      <trkpt lat="40.75787" lon="-73.98585">
        <ele>76</ele>
        <time>2012-04-09T20:17:15Z</time>
      </trkpt>
      <trkpt lat="40.75786" lon="-73.98585">
        <ele>76</ele>
        <time>2012-04-09T20:17:16Z</time>
      </trkpt>
      <trkpt lat="40.75785" lon="-73.98586">
        <ele>76</ele>
        <time>2012-04-09T20:17:18Z</time>
      </trkpt>
      <trkpt lat="40.75784" lon="-73.98588">
        <ele>76</ele>
        <time>2012-04-09T20:17:21Z</time>
      </trkpt>
      <trkpt lat="40.75782" lon="-73.98589">
        <ele>76</ele>
        <time>2012-04-09T20:17:22Z</time>
      </trkpt>
      <trkpt lat="40.75785" lon="-73.986">
        <ele>76</ele>
        <time>2012-04-09T20:17:23Z</time>
      </trkpt>
      <trkpt lat="40.75784" lon="-73.98602">
        <ele>76</ele>
        <time>2012-04-09T20:17:25Z</time>
      </trkpt>
      <trkpt lat="40.75783" lon="-73.98605">
        <ele>76</ele>
        <time>2012-04-09T20:17:27Z</time>
      </trkpt>
      <trkpt lat="40.75782" lon="-73.98605">
        <ele>77</ele>
        <time>2012-04-09T20:17:28Z</time>
      </trkpt>
      <trkpt lat="40.7578" lon="-73.98605">
        <ele>78</ele>
        <time>2012-04-09T20:17:29Z</time>
      </trkpt>
      <trkpt lat="40.75779" lon="-73.98606">
        <ele>78</ele>
        <time>2012-04-09T20:17:30Z</time>
      </trkpt>
      <trkpt lat="40.75777" lon="-73.98608">
        <ele>78</ele>
        <time>2012-04-09T20:17:32Z</time>
      </trkpt>
      <trkpt lat="40.75776" lon="-73.98606">
        <ele>79</ele>
        <time>2012-04-09T20:17:33Z</time>
      </trkpt>
      <trkpt lat="40.75774" lon="-73.98603">
        <ele>81</ele>
        <time>2012-04-09T20:17:35Z</time>
      </trkpt>
      <trkpt lat="40.75772" lon="-73.98602">
        <ele>83</ele>
        <time>2012-04-09T20:17:37Z</time>
      </trkpt>
      <trkpt lat="40.7577" lon="-73.98602">
        <ele>85</ele>
        <time>2012-04-09T20:17:38Z</time>
      </trkpt>
      <trkpt lat="40.75769" lon="-73.98601">
        <ele>87</ele>
        <time>2012-04-09T20:17:39Z</time>
      </trkpt>
      <trkpt lat="40.75767" lon="-73.98603">
        <ele>103</ele>
        <time>2012-04-09T20:17:45Z</time>
      </trkpt>
      <trkpt lat="40.75766" lon="-73.98603">
        <ele>105</ele>
        <time>2012-04-09T20:17:46Z</time>
      </trkpt>
      <trkpt lat="40.75765" lon="-73.98604">
        <ele>108</ele>
        <time>2012-04-09T20:17:47Z</time>
      </trkpt>
      <trkpt lat="40.75763" lon="-73.98604">
        <ele>111</ele>
        <time>2012-04-09T20:17:48Z</time>
      </trkpt>
      <trkpt lat="40.75761" lon="-73.98605">
        <ele>114</ele>
        <time>2012-04-09T20:17:49Z</time>
      </trkpt>
      <trkpt lat="40.75757" lon="-73.98608">
        <ele>120</ele>
        <time>2012-04-09T20:17:51Z</time>
      </trkpt>
      <trkpt lat="40.75756" lon="-73.9861">
        <ele>126</ele>
        <time>2012-04-09T20:17:54Z</time>
      </trkpt>
      <trkpt lat="40.75754" lon="-73.98609">
        <ele>130</ele>
        <time>2012-04-09T20:17:57Z</time>
      </trkpt>
      <trkpt lat="40.75751" lon="-73.98608">
        <ele>138</ele>
        <time>2012-04-09T20:17:59Z</time>
      </trkpt>
      <trkpt lat="40.7575" lon="-73.98608">
        <ele>149</ele>
        <time>2012-04-09T20:18:02Z</time>
      </trkpt>
      <trkpt lat="40.75748" lon="-73.98608">
        <ele>153</ele>
        <time>2012-04-09T20:18:03Z</time>
      </trkpt>
      <trkpt lat="40.75746" lon="-73.98608">
        <ele>168</ele>
        <time>2012-04-09T20:18:08Z</time>
      </trkpt>
      <trkpt lat="40.75744" lon="-73.98608">
        <ele>171</ele>
        <time>2012-04-09T20:18:09Z</time>
      </trkpt>
      <trkpt lat="40.75744" lon="-73.98605">
        <ele>173</ele>
        <time>2012-04-09T20:18:10Z</time>
      </trkpt>
      <trkpt lat="40.75746" lon="-73.98609">
        <ele>177</ele>
        <time>2012-04-09T20:18:13Z</time>
      </trkpt>
      <trkpt lat="40.75745" lon="-73.98611">
        <ele>179</ele>
        <time>2012-04-09T20:18:15Z</time>
      </trkpt>
      <trkpt lat="40.75743" lon="-73.98611">
        <ele>181</ele>
        <time>2012-04-09T20:18:16Z</time>
      </trkpt>
      <trkpt lat="40.75742" lon="-73.98612">
        <ele>183</ele>
        <time>2012-04-09T20:18:17Z</time>
      </trkpt>
      <trkpt lat="40.75742" lon="-73.98614">
        <ele>187</ele>
        <time>2012-04-09T20:18:19Z</time>
      </trkpt>
      <trkpt lat="40.75744" lon="-73.98615">
        <ele>189</ele>
        <time>2012-04-09T20:18:20Z</time>
      </trkpt>
      <trkpt lat="40.75746" lon="-73.98616">
        <ele>191</ele>
        <time>2012-04-09T20:18:21Z</time>
      </trkpt>
      <trkpt lat="40.75747" lon="-73.98618">
        <ele>195</ele>
        <time>2012-04-09T20:18:23Z</time>
      </trkpt>
      <trkpt lat="40.75748" lon="-73.9862">
        <ele>199</ele>
        <time>2012-04-09T20:18:25Z</time>
      </trkpt>
      <trkpt lat="40.7575" lon="-73.98622">
        <ele>203</ele>
        <time>2012-04-09T20:18:27Z</time>
      </trkpt>
      <trkpt lat="40.7575" lon="-73.98625">
        <ele>205</ele>
        <time>2012-04-09T20:18:29Z</time>
      </trkpt>
      <trkpt lat="40.75749" lon="-73.98627">
        <ele>206</ele>
        <time>2012-04-09T20:18:30Z</time>
      </trkpt>
      <trkpt lat="40.75747" lon="-73.98627">
        <ele>207</ele>
        <time>2012-04-09T20:18:31Z</time>
      </trkpt>
      <trkpt lat="40.75745" lon="-73.98627">
        <ele>209</ele>
        <time>2012-04-09T20:18:33Z</time>
      </trkpt>
      <trkpt lat="40.75744" lon="-73.98625">
        <ele>210</ele>
        <time>2012-04-09T20:18:34Z</time>
      </trkpt>
      <trkpt lat="40.75742" lon="-73.98624">
        <ele>210</ele>
        <time>2012-04-09T20:18:35Z</time>
      </trkpt>
      <trkpt lat="40.75741" lon="-73.98624">
        <ele>210</ele>
        <time>2012-04-09T20:18:36Z</time>
      </trkpt>
      <trkpt lat="40.7574" lon="-73.98623">
        <ele>210</ele>
        <time>2012-04-09T20:18:37Z</time>
      </trkpt>
      <trkpt lat="40.75738" lon="-73.98623">
        <ele>210</ele>
        <time>2012-04-09T20:18:38Z</time>
      </trkpt>
      <trkpt lat="40.75736" lon="-73.98627">
        <ele>211</ele>
        <time>2012-04-09T20:18:40Z</time>
      </trkpt>
      <trkpt lat="40.75734" lon="-73.98628">
        <ele>215</ele>
        <time>2012-04-09T20:18:42Z</time>
      </trkpt>
      <trkpt lat="40.75731" lon="-73.98629">
        <ele>236</ele>
        <time>2012-04-09T20:18:46Z</time>
      </trkpt>
      <trkpt lat="40.7573" lon="-73.98627">
        <ele>243</ele>
        <time>2012-04-09T20:18:47Z</time>
      </trkpt>
      <trkpt lat="40.7573" lon="-73.98625">
        <ele>250</ele>
        <time>2012-04-09T20:18:48Z</time>
      </trkpt>
      <trkpt lat="40.7573" lon="-73.98623">
        <ele>257</ele>
        <time>2012-04-09T20:18:49Z</time>
      </trkpt>
      <trkpt lat="40.7573" lon="-73.98622">
        <ele>264</ele>
        <time>2012-04-09T20:18:50Z</time>
      </trkpt>
      <trkpt lat="40.75727" lon="-73.9862">
        <ele>270</ele>
        <time>2012-04-09T20:18:51Z</time>
      </trkpt>
      <trkpt lat="40.75725" lon="-73.98619">
        <ele>276</ele>
        <time>2012-04-09T20:18:52Z</time>
      </trkpt>
      <trkpt lat="40.75722" lon="-73.98619">
        <ele>282</ele>
        <time>2012-04-09T20:18:53Z</time>
      </trkpt>
      <trkpt lat="40.75721" lon="-73.98618">
        <ele>287</ele>
        <time>2012-04-09T20:18:54Z</time>
      </trkpt>
      <trkpt lat="40.75721" lon="-73.98615">
        <ele>292</ele>
        <time>2012-04-09T20:18:55Z</time>
      </trkpt>
      <trkpt lat="40.75719" lon="-73.98613">
        <ele>296</ele>
        <time>2012-04-09T20:18:56Z</time>
      </trkpt>
      <trkpt lat="40.75718" lon="-73.98608">
        <ele>299</ele>
        <time>2012-04-09T20:18:57Z</time>
      </trkpt>
      <trkpt lat="40.75717" lon="-73.98608">
        <ele>301</ele>
        <time>2012-04-09T20:18:58Z</time>
      </trkpt>
      <trkpt lat="40.75715" lon="-73.98609">
        <ele>303</ele>
        <time>2012-04-09T20:18:59Z</time>
      </trkpt>
      <trkpt lat="40.75715" lon="-73.98611">
        <ele>304</ele>
        <time>2012-04-09T20:19:00Z</time>
      </trkpt>
      <trkpt lat="40.75715" lon="-73.98614">
        <ele>305</ele>
        <time>2012-04-09T20:19:01Z</time>
      </trkpt>
      <trkpt lat="40.75716" lon="-73.98616">
        <ele>306</ele>
        <time>2012-04-09T20:19:02Z</time>
      </trkpt>
      <trkpt lat="40.75717" lon="-73.98619">
        <ele>306</ele>
        <time>2012-04-09T20:19:03Z</time>
      </trkpt>
      <trkpt lat="40.75718" lon="-73.98621">
        <ele>306</ele>
        <time>2012-04-09T20:19:04Z</time>
      </trkpt>
      <trkpt lat="40.75719" lon="-73.98621">
        <ele>306</ele>
        <time>2012-04-09T20:19:06Z</time>
      </trkpt>
      <trkpt lat="40.75721" lon="-73.9862">
        <ele>306</ele>
        <time>2012-04-09T20:19:08Z</time>
      </trkpt>
      <trkpt lat="40.75722" lon="-73.98619">
        <ele>307</ele>
        <time>2012-04-09T20:19:10Z</time>
      </trkpt>
      <trkpt lat="40.75723" lon="-73.98617">
        <ele>309</ele>
        <time>2012-04-09T20:19:13Z</time>
      </trkpt>
      <trkpt lat="40.75673" lon="-73.98598">
        <ele>299</ele>
        <time>2012-04-09T20:20:55Z</time>
      </trkpt>
      <trkpt lat="40.75673" lon="-73.98595">
        <ele>300</ele>
        <time>2012-04-09T20:20:56Z</time>
      </trkpt>
      <trkpt lat="40.75675" lon="-73.98595">
        <ele>301</ele>
        <time>2012-04-09T20:20:57Z</time>
      </trkpt>
      <trkpt lat="40.75676" lon="-73.98595">
        <ele>302</ele>
        <time>2012-04-09T20:20:58Z</time>
      </trkpt>
      <trkpt lat="40.75679" lon="-73.98593">
        <ele>304</ele>
        <time>2012-04-09T20:20:59Z</time>
      </trkpt>
      <trkpt lat="40.75681" lon="-73.98592">
        <ele>309</ele>
        <time>2012-04-09T20:21:01Z</time>
      </trkpt>
      <trkpt lat="40.75683" lon="-73.98591">
        <ele>311</ele>
        <time>2012-04-09T20:21:02Z</time>
      </trkpt>
      <trkpt lat="40.75684" lon="-73.98593">
        <ele>313</ele>
        <time>2012-04-09T20:21:03Z</time>
      </trkpt>
      <trkpt lat="40.75689" lon="-73.9859">
        <ele>317</ele>
        <time>2012-04-09T20:21:05Z</time>
      </trkpt>
      <trkpt lat="40.75692" lon="-73.98588">
        <ele>319</ele>
        <time>2012-04-09T20:21:06Z</time>
      </trkpt>
      <trkpt lat="40.75694" lon="-73.98586">
        <ele>322</ele>
        <time>2012-04-09T20:21:07Z</time>
      </trkpt>
      <trkpt lat="40.75695" lon="-73.98583">
        <ele>325</ele>
        <time>2012-04-09T20:21:08Z</time>
      </trkpt>
      <trkpt lat="40.75695" lon="-73.98579">
        <ele>328</ele>
        <time>2012-04-09T20:21:09Z</time>
      </trkpt>
      <trkpt lat="40.75695" lon="-73.98576">
        <ele>331</ele>
        <time>2012-04-09T20:21:10Z</time>
      </trkpt>
      <trkpt lat="40.75696" lon="-73.98573">
        <ele>337</ele>
        <time>2012-04-09T20:21:12Z</time>
      </trkpt>
      <trkpt lat="40.75695" lon="-73.98571">
        <ele>340</ele>
        <time>2012-04-09T20:21:13Z</time>
      </trkpt>
      <trkpt lat="40.75695" lon="-73.98568">
        <ele>342</ele>
        <time>2012-04-09T20:21:14Z</time>
      </trkpt>
      <trkpt lat="40.75695" lon="-73.98566">
        <ele>344</ele>
        <time>2012-04-09T20:21:15Z</time>
      </trkpt>
      <trkpt lat="40.75694" lon="-73.98563">
        <ele>346</ele>
        <time>2012-04-09T20:21:16Z</time>
      </trkpt>
      <trkpt lat="40.75693" lon="-73.98561">
        <ele>348</ele>
        <time>2012-04-09T20:21:17Z</time>
      </trkpt>
      <trkpt lat="40.75693" lon="-73.98557">
        <ele>350</ele>
        <time>2012-04-09T20:21:18Z</time>
      </trkpt>
      <trkpt lat="40.75694" lon="-73.98553">
        <ele>352</ele>
        <time>2012-04-09T20:21:22Z</time>
      </trkpt>
      <trkpt lat="40.75692" lon="-73.9855">
        <ele>352</ele>
        <time>2012-04-09T20:21:23Z</time>
      </trkpt>
      <trkpt lat="40.75692" lon="-73.98548">
        <ele>351</ele>
        <time>2012-04-09T20:21:25Z</time>
      </trkpt>
      <trkpt lat="40.75691" lon="-73.98547">
        <ele>350</ele>
        <time>2012-04-09T20:21:26Z</time>
      </trkpt>
      <trkpt lat="40.7569" lon="-73.98544">
        <ele>349</ele>
        <time>2012-04-09T20:21:27Z</time>
      </trkpt>
      <trkpt lat="40.75693" lon="-73.9854">
        <ele>348</ele>
        <time>2012-04-09T20:21:30Z</time>
      </trkpt>
      <trkpt lat="40.75695" lon="-73.98539">
        <ele>348</ele>
        <time>2012-04-09T20:21:31Z</time>
      </trkpt>
      <trkpt lat="40.75697" lon="-73.98535">
        <ele>348</ele>
        <time>2012-04-09T20:21:33Z</time>
      </trkpt>
      <trkpt lat="40.75698" lon="-73.98533">
        <ele>348</ele>
        <time>2012-04-09T20:21:34Z</time>
      </trkpt>
      <trkpt lat="40.757" lon="-73.98531">
        <ele>349</ele>
        <time>2012-04-09T20:21:35Z</time>
      </trkpt>
      <trkpt lat="40.75702" lon="-73.98528">
        <ele>350</ele>
        <time>2012-04-09T20:21:36Z</time>
      </trkpt>
      <trkpt lat="40.75703" lon="-73.98525">
        <ele>351</ele>
        <time>2012-04-09T20:21:37Z</time>
      </trkpt>
      <trkpt lat="40.75705" lon="-73.98526">
        <ele>354</ele>
        <time>2012-04-09T20:21:39Z</time>
      </trkpt>
      <trkpt lat="40.75706" lon="-73.98526">
        <ele>356</ele>
        <time>2012-04-09T20:21:40Z</time>
      </trkpt>
      <trkpt lat="40.75707" lon="-73.98524">
        <ele>358</ele>
        <time>2012-04-09T20:21:41Z</time>
      </trkpt>
      <trkpt lat="40.75708" lon="-73.98522">
        <ele>360</ele>
        <time>2012-04-09T20:21:42Z</time>
      </trkpt>
      <trkpt lat="40.75711" lon="-73.98523">
        <ele>362</ele>
        <time>2012-04-09T20:21:43Z</time>
      </trkpt>
      <trkpt lat="40.75713" lon="-73.98524">
        <ele>365</ele>
        <time>2012-04-09T20:21:44Z</time>
      </trkpt>
      <trkpt lat="40.75713" lon="-73.98522">
        <ele>370</ele>
        <time>2012-04-09T20:21:46Z</time>
      </trkpt>
      <trkpt lat="40.75711" lon="-73.98523">
        <ele>372</ele>
        <time>2012-04-09T20:21:47Z</time>
      </trkpt>
      <trkpt lat="40.75708" lon="-73.98524">
        <ele>376</ele>
        <time>2012-04-09T20:21:50Z</time>
      </trkpt>
      <trkpt lat="40.7571" lon="-73.98525">
        <ele>377</ele>
        <time>2012-04-09T20:21:53Z</time>
      </trkpt>
      <trkpt lat="40.75708" lon="-73.98528">
        <ele>377</ele>
        <time>2012-04-09T20:21:56Z</time>
      </trkpt>
      <trkpt lat="40.75714" lon="-73.98537">
        <ele>376</ele>
        <time>2012-04-09T20:21:58Z</time>
      </trkpt>
      <trkpt lat="40.75715" lon="-73.98538">
        <ele>375</ele>
        <time>2012-04-09T20:21:59Z</time>
      </trkpt>
      <trkpt lat="40.75716" lon="-73.98541">
        <ele>374</ele>
        <time>2012-04-09T20:22:00Z</time>
      </trkpt>
      <trkpt lat="40.75717" lon="-73.98544">
        <ele>373</ele>
        <time>2012-04-09T20:22:01Z</time>
      </trkpt>
      <trkpt lat="40.75719" lon="-73.98547">
        <ele>372</ele>
        <time>2012-04-09T20:22:02Z</time>
      </trkpt>
      <trkpt lat="40.75715" lon="-73.98549">
        <ele>371</ele>
        <time>2012-04-09T20:22:03Z</time>
      </trkpt>
      <trkpt lat="40.75713" lon="-73.98551">
        <ele>370</ele>
        <time>2012-04-09T20:22:04Z</time>
      </trkpt>
      <trkpt lat="40.75711" lon="-73.98553">
        <ele>368</ele>
        <time>2012-04-09T20:22:05Z</time>
      </trkpt>
      <trkpt lat="40.7571" lon="-73.98555">
        <ele>366</ele>
        <time>2012-04-09T20:22:06Z</time>
      </trkpt>
      <trkpt lat="40.75709" lon="-73.98557">
        <ele>355</ele>
        <time>2012-04-09T20:22:10Z</time>
      </trkpt>
      <trkpt lat="40.75708" lon="-73.9856">
        <ele>347</ele>
        <time>2012-04-09T20:22:12Z</time>
      </trkpt>
      <trkpt lat="40.75707" lon="-73.9856">
        <ele>342</ele>
        <time>2012-04-09T20:22:13Z</time>
      </trkpt>
      <trkpt lat="40.75705" lon="-73.98562">
        <ele>337</ele>
        <time>2012-04-09T20:22:14Z</time>
      </trkpt>
      <trkpt lat="40.75704" lon="-73.98565">
        <ele>320</ele>
        <time>2012-04-09T20:22:17Z</time>
      </trkpt>
      <trkpt lat="40.75703" lon="-73.98566">
        <ele>310</ele>
        <time>2012-04-09T20:22:19Z</time>
      </trkpt>
      <trkpt lat="40.75704" lon="-73.98569">
        <ele>306</ele>
        <time>2012-04-09T20:22:20Z</time>
      </trkpt>
      <trkpt lat="40.75705" lon="-73.98572">
        <ele>302</ele>
        <time>2012-04-09T20:22:21Z</time>
      </trkpt>
      <trkpt lat="40.75706" lon="-73.98575">
        <ele>293</ele>
        <time>2012-04-09T20:22:24Z</time>
      </trkpt>
      <trkpt lat="40.75695" lon="-73.98586">
        <ele>292</ele>
        <time>2012-04-09T20:22:25Z</time>
      </trkpt>
      <trkpt lat="40.75697" lon="-73.98588">
        <ele>296</ele>
        <time>2012-04-09T20:22:27Z</time>
      </trkpt>
      <trkpt lat="40.75698" lon="-73.9859">
        <ele>305</ele>
        <time>2012-04-09T20:22:29Z</time>
      </trkpt>
      <trkpt lat="40.75699" lon="-73.98592">
        <ele>309</ele>
        <time>2012-04-09T20:22:30Z</time>
      </trkpt>
      <trkpt lat="40.757" lon="-73.98593">
        <ele>313</ele>
        <time>2012-04-09T20:22:31Z</time>
      </trkpt>
      <trkpt lat="40.75701" lon="-73.98595">
        <ele>317</ele>
        <time>2012-04-09T20:22:32Z</time>
      </trkpt>
      <trkpt lat="40.75702" lon="-73.98599">
        <ele>323</ele>
        <time>2012-04-09T20:22:34Z</time>
      </trkpt>
      <trkpt lat="40.75703" lon="-73.98603">
        <ele>329</ele>
        <time>2012-04-09T20:22:36Z</time>
      </trkpt>
      <trkpt lat="40.75704" lon="-73.98605">
        <ele>333</ele>
        <time>2012-04-09T20:22:38Z</time>
      </trkpt>
      <trkpt lat="40.75705" lon="-73.98608">
        <ele>335</ele>
        <time>2012-04-09T20:22:39Z</time>
      </trkpt>
      <trkpt lat="40.75707" lon="-73.9861">
        <ele>339</ele>
        <time>2012-04-09T20:22:41Z</time>
      </trkpt>
      <trkpt lat="40.75707" lon="-73.98611">
        <ele>341</ele>
        <time>2012-04-09T20:22:42Z</time>
      </trkpt>
      <trkpt lat="40.75708" lon="-73.98614">
        <ele>342</ele>
        <time>2012-04-09T20:22:43Z</time>
      </trkpt>
      <trkpt lat="40.75709" lon="-73.98618">
        <ele>343</ele>
        <time>2012-04-09T20:22:44Z</time>
      </trkpt>
      <trkpt lat="40.75711" lon="-73.98618">
        <ele>344</ele>
        <time>2012-04-09T20:22:45Z</time>
      </trkpt>
      <trkpt lat="40.7571" lon="-73.98621">
        <ele>346</ele>
        <time>2012-04-09T20:22:47Z</time>
      </trkpt>
      <trkpt lat="40.7571" lon="-73.98622">
        <ele>350</ele>
        <time>2012-04-09T20:22:49Z</time>
      </trkpt>
      <trkpt lat="40.75795" lon="-73.98647">
        <ele>369</ele>
        <time>2012-04-09T20:26:10Z</time>
      </trkpt>
      <trkpt lat="40.75795" lon="-73.98644">
        <ele>370</ele>
        <time>2012-04-09T20:26:11Z</time>
      </trkpt>
      <trkpt lat="40.75796" lon="-73.9864">
        <ele>371</ele>
        <time>2012-04-09T20:26:12Z</time>
      </trkpt>
      <trkpt lat="40.75795" lon="-73.98636">
        <ele>373</ele>
        <time>2012-04-09T20:26:14Z</time>
      </trkpt>
      <trkpt lat="40.75795" lon="-73.98634">
        <ele>375</ele>
        <time>2012-04-09T20:26:15Z</time>
      </trkpt>
      <trkpt lat="40.75793" lon="-73.98631">
        <ele>379</ele>
        <time>2012-04-09T20:26:17Z</time>
      </trkpt>
      <trkpt lat="40.75795" lon="-73.98628">
        <ele>383</ele>
        <time>2012-04-09T20:26:19Z</time>
      </trkpt>
      <trkpt lat="40.75797" lon="-73.98631">
        <ele>394</ele>
        <time>2012-04-09T20:26:25Z</time>
      </trkpt>
      <trkpt lat="40.75797" lon="-73.98629">
        <ele>395</ele>
        <time>2012-04-09T20:26:26Z</time>
      </trkpt>
      <trkpt lat="40.75794" lon="-73.98627">
        <ele>396</ele>
        <time>2012-04-09T20:26:27Z</time>
      </trkpt>
      <trkpt lat="40.75795" lon="-73.98626">
        <ele>396</ele>
        <time>2012-04-09T20:26:28Z</time>
      </trkpt>
      <trkpt lat="40.75796" lon="-73.98627">
        <ele>396</ele>
        <time>2012-04-09T20:26:29Z</time>
      </trkpt>
      <trkpt lat="40.758" lon="-73.98649">
        <ele>360</ele>
        <time>2012-04-09T20:26:40Z</time>
      </trkpt>
      <trkpt lat="40.75799" lon="-73.98646">
        <ele>354</ele>
        <time>2012-04-09T20:26:42Z</time>
      </trkpt>
      <trkpt lat="40.75798" lon="-73.98643">
        <ele>347</ele>
        <time>2012-04-09T20:26:47Z</time>
      </trkpt>
      <trkpt lat="40.75797" lon="-73.9864">
        <ele>345</ele>
        <time>2012-04-09T20:26:48Z</time>
      </trkpt>
      <trkpt lat="40.75795" lon="-73.98637">
        <ele>343</ele>
        <time>2012-04-09T20:26:49Z</time>
      </trkpt>
      <trkpt lat="40.75793" lon="-73.98634">
        <ele>341</ele>
        <time>2012-04-09T20:26:50Z</time>
      </trkpt>
      <trkpt lat="40.75793" lon="-73.98632">
        <ele>339</ele>
        <time>2012-04-09T20:26:51Z</time>
      </trkpt>
      <trkpt lat="40.75792" lon="-73.98628">
        <ele>337</ele>
        <time>2012-04-09T20:26:52Z</time>
      </trkpt>
      <trkpt lat="40.7579" lon="-73.9863">
        <ele>336</ele>
        <time>2012-04-09T20:26:53Z</time>
      </trkpt>
      <trkpt lat="40.75792" lon="-73.98629">
        <ele>336</ele>
        <time>2012-04-09T20:26:54Z</time>
      </trkpt>
      <trkpt lat="40.7579" lon="-73.98636">
        <ele>352</ele>
        <time>2012-04-09T20:27:33Z</time>
      </trkpt>
      <trkpt lat="40.7578" lon="-73.98637">
        <ele>353</ele>
        <time>2012-04-09T20:27:34Z</time>
      </trkpt>
      <trkpt lat="40.75756" lon="-73.9865">
        <ele>355</ele>
        <time>2012-04-09T20:27:40Z</time>
      </trkpt>
      <trkpt lat="40.75759" lon="-73.9865">
        <ele>356</ele>
        <time>2012-04-09T20:27:41Z</time>
      </trkpt>
      <trkpt lat="40.75761" lon="-73.98651">
        <ele>357</ele>
        <time>2012-04-09T20:27:42Z</time>
      </trkpt>
      <trkpt lat="40.75763" lon="-73.98653">
        <ele>358</ele>
        <time>2012-04-09T20:27:43Z</time>
      </trkpt>
      <trkpt lat="40.75765" lon="-73.98654">
        <ele>359</ele>
        <time>2012-04-09T20:27:44Z</time>
      </trkpt>
      <trkpt lat="40.75767" lon="-73.98656">
        <ele>360</ele>
        <time>2012-04-09T20:27:45Z</time>
      </trkpt>
      <trkpt lat="40.75764" lon="-73.98666">
        <ele>361</ele>
        <time>2012-04-09T20:27:51Z</time>
      </trkpt>
      <trkpt lat="40.75765" lon="-73.98667">
        <ele>362</ele>
        <time>2012-04-09T20:27:52Z</time>
      </trkpt>
      <trkpt lat="40.75765" lon="-73.9867">
        <ele>363</ele>
        <time>2012-04-09T20:27:53Z</time>
      </trkpt>
      <trkpt lat="40.75767" lon="-73.98672">
        <ele>363</ele>
        <time>2012-04-09T20:27:54Z</time>
      </trkpt>
      <trkpt lat="40.75761" lon="-73.98661">
        <ele>367</ele>
        <time>2012-04-09T20:28:10Z</time>
      </trkpt>
      <trkpt lat="40.75762" lon="-73.9866">
        <ele>368</ele>
        <time>2012-04-09T20:28:11Z</time>
      </trkpt>
      <trkpt lat="40.75763" lon="-73.98659">
        <ele>370</ele>
        <time>2012-04-09T20:28:12Z</time>
      </trkpt>
      <trkpt lat="40.75767" lon="-73.98658">
        <ele>376</ele>
        <time>2012-04-09T20:28:14Z</time>
      </trkpt>
      <trkpt lat="40.75771" lon="-73.98658">
        <ele>380</ele>
        <time>2012-04-09T20:28:16Z</time>
      </trkpt>
      <trkpt lat="40.75772" lon="-73.98659">
        <ele>384</ele>
        <time>2012-04-09T20:28:17Z</time>
      </trkpt>
      <trkpt lat="40.75751" lon="-73.98668">
        <ele>396</ele>
        <time>2012-04-09T20:28:39Z</time>
      </trkpt>
      <trkpt lat="40.75753" lon="-73.98669">
        <ele>398</ele>
        <time>2012-04-09T20:28:40Z</time>
      </trkpt>
      <trkpt lat="40.75754" lon="-73.98669">
        <ele>399</ele>
        <time>2012-04-09T20:28:41Z</time>
      </trkpt>
      <trkpt lat="40.7575" lon="-73.98668">
        <ele>401</ele>
        <time>2012-04-09T20:28:46Z</time>
      </trkpt>
      <trkpt lat="40.75748" lon="-73.9867">
        <ele>401</ele>
        <time>2012-04-09T20:28:48Z</time>
      </trkpt>
      <trkpt lat="40.75749" lon="-73.98672">
        <ele>401</ele>
        <time>2012-04-09T20:28:49Z</time>
      </trkpt>
      <trkpt lat="40.75751" lon="-73.98674">
        <ele>401</ele>
        <time>2012-04-09T20:28:51Z</time>
      </trkpt>
      <trkpt lat="40.75754" lon="-73.98674">
        <ele>401</ele>
        <time>2012-04-09T20:28:53Z</time>
      </trkpt>
      <trkpt lat="40.75754" lon="-73.98672">
        <ele>404</ele>
        <time>2012-04-09T20:28:56Z</time>
      </trkpt>
      <trkpt lat="40.75753" lon="-73.98672">
        <ele>405</ele>
        <time>2012-04-09T20:28:57Z</time>
      </trkpt>
      <trkpt lat="40.75751" lon="-73.98672">
        <ele>406</ele>
        <time>2012-04-09T20:28:58Z</time>
      </trkpt>
      <trkpt lat="40.75749" lon="-73.98672">
        <ele>407</ele>
        <time>2012-04-09T20:28:59Z</time>
      </trkpt>
      <trkpt lat="40.75756" lon="-73.9866">
        <ele>420</ele>
        <time>2012-04-09T20:29:10Z</time>
      </trkpt>
      <trkpt lat="40.75756" lon="-73.98658">
        <ele>421</ele>
        <time>2012-04-09T20:29:11Z</time>
      </trkpt>
      <trkpt lat="40.75755" lon="-73.98656">
        <ele>422</ele>
        <time>2012-04-09T20:29:12Z</time>
      </trkpt>
      <trkpt lat="40.75754" lon="-73.98654">
        <ele>423</ele>
        <time>2012-04-09T20:29:13Z</time>
      </trkpt>
      <trkpt lat="40.75754" lon="-73.98653">
        <ele>424</ele>
        <time>2012-04-09T20:29:14Z</time>
      </trkpt>
      <trkpt lat="40.75754" lon="-73.98651">
        <ele>425</ele>
        <time>2012-04-09T20:29:15Z</time>
      </trkpt>
      <trkpt lat="40.75753" lon="-73.98647">
        <ele>426</ele>
        <time>2012-04-09T20:29:16Z</time>
      </trkpt>
      <trkpt lat="40.75753" lon="-73.98645">
        <ele>427</ele>
        <time>2012-04-09T20:29:17Z</time>
      </trkpt>
      <trkpt lat="40.75754" lon="-73.98643">
        <ele>428</ele>
        <time>2012-04-09T20:29:18Z</time>
      </trkpt>
      <trkpt lat="40.75755" lon="-73.98641">
        <ele>429</ele>
        <time>2012-04-09T20:29:19Z</time>
      </trkpt>
      <trkpt lat="40.75756" lon="-73.9864">
        <ele>430</ele>
        <time>2012-04-09T20:29:20Z</time>
      </trkpt>
      <trkpt lat="40.75758" lon="-73.98638">
        <ele>431</ele>
        <time>2012-04-09T20:29:21Z</time>
      </trkpt>
      <trkpt lat="40.75759" lon="-73.98635">
        <ele>433</ele>
        <time>2012-04-09T20:29:23Z</time>
      </trkpt>
      <trkpt lat="40.7576" lon="-73.98633">
        <ele>435</ele>
        <time>2012-04-09T20:29:25Z</time>
      </trkpt>
      <trkpt lat="40.75761" lon="-73.98632">
        <ele>435</ele>
        <time>2012-04-09T20:29:26Z</time>
      </trkpt>
      <trkpt lat="40.75763" lon="-73.98631">
        <ele>435</ele>
        <time>2012-04-09T20:29:27Z</time>
      </trkpt>
      <trkpt lat="40.75763" lon="-73.98629">
        <ele>435</ele>
        <time>2012-04-09T20:29:28Z</time>
      </trkpt>
      <trkpt lat="40.75763" lon="-73.98627">
        <ele>434</ele>
        <time>2012-04-09T20:29:29Z</time>
      </trkpt>
      <trkpt lat="40.75765" lon="-73.98627">
        <ele>432</ele>
        <time>2012-04-09T20:29:31Z</time>
      </trkpt>
      <trkpt lat="40.75768" lon="-73.98629">
        <ele>429</ele>
        <time>2012-04-09T20:29:33Z</time>
      </trkpt>
      <trkpt lat="40.75769" lon="-73.98632">
        <ele>427</ele>
        <time>2012-04-09T20:29:38Z</time>
      </trkpt>
      <trkpt lat="40.75771" lon="-73.98631">
        <ele>423</ele>
        <time>2012-04-09T20:29:40Z</time>
      </trkpt>
      <trkpt lat="40.75772" lon="-73.98631">
        <ele>421</ele>
        <time>2012-04-09T20:29:41Z</time>
      </trkpt>
      <trkpt lat="40.75771" lon="-73.98631">
        <ele>419</ele>
        <time>2012-04-09T20:29:42Z</time>
      </trkpt>
      <trkpt lat="40.75769" lon="-73.9863">
        <ele>417</ele>
        <time>2012-04-09T20:29:43Z</time>
      </trkpt>
      <trkpt lat="40.75806" lon="-73.9864">
        <ele>369</ele>
        <time>2012-04-09T20:30:20Z</time>
      </trkpt>
      <trkpt lat="40.75806" lon="-73.98641">
        <ele>371</ele>
        <time>2012-04-09T20:30:21Z</time>
      </trkpt>
      <trkpt lat="40.75805" lon="-73.98643">
        <ele>375</ele>
        <time>2012-04-09T20:30:23Z</time>
      </trkpt>
      <trkpt lat="40.75804" lon="-73.98646">
        <ele>379</ele>
        <time>2012-04-09T20:30:25Z</time>
      </trkpt>
      <trkpt lat="40.75803" lon="-73.98656">
        <ele>390</ele>
        <time>2012-04-09T20:30:50Z</time>
      </trkpt>
      <trkpt lat="40.75803" lon="-73.98658">
        <ele>390</ele>
        <time>2012-04-09T20:30:52Z</time>
      </trkpt>
      <trkpt lat="40.75805" lon="-73.9866">
        <ele>390</ele>
        <time>2012-04-09T20:30:53Z</time>
      </trkpt>
      <trkpt lat="40.75808" lon="-73.98661">
        <ele>390</ele>
        <time>2012-04-09T20:30:54Z</time>
      </trkpt>
      <trkpt lat="40.75776" lon="-73.98642">
        <ele>350</ele>
        <time>2012-04-09T20:33:48Z</time>
      </trkpt>
      <trkpt lat="40.75772" lon="-73.98634">
        <ele>341</ele>
        <time>2012-04-09T20:33:49Z</time>
      </trkpt>
      <trkpt lat="40.75772" lon="-73.98637">
        <ele>322</ele>
        <time>2012-04-09T20:33:51Z</time>
      </trkpt>
      <trkpt lat="40.7577" lon="-73.98636">
        <ele>313</ele>
        <time>2012-04-09T20:33:52Z</time>
      </trkpt>
      <trkpt lat="40.75767" lon="-73.98635">
        <ele>304</ele>
        <time>2012-04-09T20:33:53Z</time>
      </trkpt>
      <trkpt lat="40.75765" lon="-73.98634">
        <ele>297</ele>
        <time>2012-04-09T20:33:54Z</time>
      </trkpt>
      <trkpt lat="40.75763" lon="-73.98633">
        <ele>291</ele>
        <time>2012-04-09T20:33:55Z</time>
      </trkpt>
      <trkpt lat="40.7576" lon="-73.98634">
        <ele>282</ele>
        <time>2012-04-09T20:33:57Z</time>
      </trkpt>
      <trkpt lat="40.75759" lon="-73.98635">
        <ele>277</ele>
        <time>2012-04-09T20:33:59Z</time>
      </trkpt>
      <trkpt lat="40.75759" lon="-73.98637">
        <ele>275</ele>
        <time>2012-04-09T20:34:02Z</time>
      </trkpt>
      <trkpt lat="40.75756" lon="-73.98636">
        <ele>276</ele>
        <time>2012-04-09T20:34:04Z</time>
      </trkpt>
      <trkpt lat="40.75756" lon="-73.98632">
        <ele>279</ele>
        <time>2012-04-09T20:34:07Z</time>
      </trkpt>
      <trkpt lat="40.75757" lon="-73.98631">
        <ele>280</ele>
        <time>2012-04-09T20:34:08Z</time>
      </trkpt>
      <trkpt lat="40.75757" lon="-73.98628">
        <ele>281</ele>
        <time>2012-04-09T20:34:09Z</time>
      </trkpt>
      <trkpt lat="40.75757" lon="-73.98627">
        <ele>282</ele>
        <time>2012-04-09T20:34:10Z</time>
      </trkpt>
      <trkpt lat="40.75756" lon="-73.98624">
        <ele>283</ele>
        <time>2012-04-09T20:34:13Z</time>
      </trkpt>
      <trkpt lat="40.75758" lon="-73.98622">
        <ele>287</ele>
        <time>2012-04-09T20:34:15Z</time>
      </trkpt>
      <trkpt lat="40.75759" lon="-73.98618">
        <ele>293</ele>
        <time>2012-04-09T20:34:20Z</time>
      </trkpt>
      <trkpt lat="40.7576" lon="-73.98617">
        <ele>295</ele>
        <time>2012-04-09T20:34:23Z</time>
      </trkpt>
      <trkpt lat="40.75762" lon="-73.98615">
        <ele>296</ele>
        <time>2012-04-09T20:34:24Z</time>
      </trkpt>
      <trkpt lat="40.75763" lon="-73.98615">
        <ele>298</ele>
        <time>2012-04-09T20:34:26Z</time>
      </trkpt>
      <trkpt lat="40.75761" lon="-73.98615">
        <ele>301</ele>
        <time>2012-04-09T20:34:31Z</time>
      </trkpt>
      <trkpt lat="40.75762" lon="-73.98616">
        <ele>301</ele>
        <time>2012-04-09T20:34:32Z</time>
      </trkpt>
      <trkpt lat="40.75764" lon="-73.98615">
        <ele>301</ele>
        <time>2012-04-09T20:34:34Z</time>
      </trkpt>
      <trkpt lat="40.75766" lon="-73.98616">
        <ele>301</ele>
        <time>2012-04-09T20:34:36Z</time>
      </trkpt>
      <trkpt lat="40.75768" lon="-73.98615">
        <ele>301</ele>
        <time>2012-04-09T20:34:37Z</time>
      </trkpt>
      <trkpt lat="40.75768" lon="-73.98613">
        <ele>301</ele>
        <time>2012-04-09T20:34:38Z</time>
      </trkpt>
      <trkpt lat="40.75768" lon="-73.98611">
        <ele>296</ele>
        <time>2012-04-09T20:34:44Z</time>
      </trkpt>
      <trkpt lat="40.75766" lon="-73.98609">
        <ele>295</ele>
        <time>2012-04-09T20:34:45Z</time>
      </trkpt>
      <trkpt lat="40.75764" lon="-73.98608">
        <ele>293</ele>
        <time>2012-04-09T20:34:46Z</time>
      </trkpt>
      <trkpt lat="40.75763" lon="-73.98606">
        <ele>291</ele>
        <time>2012-04-09T20:34:47Z</time>
      </trkpt>
      <trkpt lat="40.75763" lon="-73.98604">
        <ele>287</ele>
        <time>2012-04-09T20:34:49Z</time>
      </trkpt>
      <trkpt lat="40.75767" lon="-73.98597">
        <ele>281</ele>
        <time>2012-04-09T20:34:56Z</time>
      </trkpt>
      <trkpt lat="40.75767" lon="-73.98595">
        <ele>279</ele>
        <time>2012-04-09T20:34:58Z</time>
      </trkpt>
      <trkpt lat="40.75769" lon="-73.98593">
        <ele>278</ele>
        <time>2012-04-09T20:35:00Z</time>
      </trkpt>
      <trkpt lat="40.75771" lon="-73.98591">
        <ele>277</ele>
        <time>2012-04-09T20:35:01Z</time>
      </trkpt>
      <trkpt lat="40.7577" lon="-73.98589">
        <ele>276</ele>
        <time>2012-04-09T20:35:02Z</time>
      </trkpt>
      <trkpt lat="40.75771" lon="-73.98586">
        <ele>275</ele>
        <time>2012-04-09T20:35:03Z</time>
      </trkpt>
      <trkpt lat="40.75772" lon="-73.98586">
        <ele>274</ele>
        <time>2012-04-09T20:35:04Z</time>
      </trkpt>
      <trkpt lat="40.75772" lon="-73.98583">
        <ele>271</ele>
        <time>2012-04-09T20:35:07Z</time>
      </trkpt>
      <trkpt lat="40.75773" lon="-73.98581">
        <ele>265</ele>
        <time>2012-04-09T20:35:12Z</time>
      </trkpt>
      <trkpt lat="40.75779" lon="-73.9858">
        <ele>259</ele>
        <time>2012-04-09T20:35:20Z</time>
      </trkpt>
      <trkpt lat="40.75789" lon="-73.98576">
        <ele>258</ele>
        <time>2012-04-09T20:35:36Z</time>
      </trkpt>
      <trkpt lat="40.75905" lon="-73.98582">
        <ele>261</ele>
        <time>2012-04-09T21:02:05Z</time>
      </trkpt>
      <trkpt lat="40.75903" lon="-73.98586">
        <ele>264</ele>
        <time>2012-04-09T21:02:06Z</time>
      </trkpt>
      <trkpt lat="40.75901" lon="-73.98587">
        <ele>268</ele>
        <time>2012-04-09T21:02:09Z</time>
      </trkpt>
      <trkpt lat="40.75899" lon="-73.98583">
        <ele>271</ele>
        <time>2012-04-09T21:02:10Z</time>
      </trkpt>
      <trkpt lat="40.75896" lon="-73.98582">
        <ele>276</ele>
        <time>2012-04-09T21:02:12Z</time>
      </trkpt>
      <trkpt lat="40.75885" lon="-73.9859">
        <ele>277</ele>
        <time>2012-04-09T21:02:39Z</time>
      </trkpt>
      <trkpt lat="40.75887" lon="-73.98593">
        <ele>278</ele>
        <time>2012-04-09T21:02:40Z</time>
      </trkpt>
      <trkpt lat="40.7589" lon="-73.98595">
        <ele>278</ele>
        <time>2012-04-09T21:02:41Z</time>
      </trkpt>
      <trkpt lat="40.75891" lon="-73.98596">
        <ele>277</ele>
        <time>2012-04-09T21:02:42Z</time>
      </trkpt>
      <trkpt lat="40.75892" lon="-73.98593">
        <ele>275</ele>
        <time>2012-04-09T21:02:44Z</time>
      </trkpt>
      <trkpt lat="40.75892" lon="-73.98592">
        <ele>274</ele>
        <time>2012-04-09T21:02:45Z</time>
      </trkpt>
      <trkpt lat="40.75893" lon="-73.98591">
        <ele>273</ele>
        <time>2012-04-09T21:02:47Z</time>
      </trkpt>
      <trkpt lat="40.75892" lon="-73.98592">
        <ele>272</ele>
        <time>2012-04-09T21:02:48Z</time>
      </trkpt>
      <trkpt lat="40.75891" lon="-73.98589">
        <ele>264</ele>
        <time>2012-04-09T21:02:52Z</time>
      </trkpt>
      <trkpt lat="40.75891" lon="-73.98588">
        <ele>260</ele>
        <time>2012-04-09T21:02:54Z</time>
      </trkpt>
      <trkpt lat="40.75904" lon="-73.9858">
        <ele>244</ele>
        <time>2012-04-09T21:03:00Z</time>
      </trkpt>
      <trkpt lat="40.75905" lon="-73.98579">
        <ele>232</ele>
        <time>2012-04-09T21:03:03Z</time>
      </trkpt>
      <trkpt lat="40.75906" lon="-73.98577">
        <ele>223</ele>
        <time>2012-04-09T21:03:06Z</time>
      </trkpt>
      <trkpt lat="40.75911" lon="-73.98575">
        <ele>219</ele>
        <time>2012-04-09T21:03:08Z</time>
      </trkpt>
      <trkpt lat="40.75914" lon="-73.98573">
        <ele>217</ele>
        <time>2012-04-09T21:03:09Z</time>
      </trkpt>
      <trkpt lat="40.75915" lon="-73.9857">
        <ele>215</ele>
        <time>2012-04-09T21:03:10Z</time>
      </trkpt>
      <trkpt lat="40.75931" lon="-73.98554">
        <ele>213</ele>
        <time>2012-04-09T21:03:11Z</time>
      </trkpt>
      <trkpt lat="40.75931" lon="-73.98553">
        <ele>211</ele>
        <time>2012-04-09T21:03:12Z</time>
      </trkpt>
      <trkpt lat="40.75944" lon="-73.98537">
        <ele>209</ele>
        <time>2012-04-09T21:03:13Z</time>
      </trkpt>
      <trkpt lat="40.75945" lon="-73.98529">
        <ele>207</ele>
        <time>2012-04-09T21:03:14Z</time>
      </trkpt>
      <trkpt lat="40.75948" lon="-73.98521">
        <ele>204</ele>
        <time>2012-04-09T21:03:15Z</time>
      </trkpt>
      <trkpt lat="40.75951" lon="-73.98515">
        <ele>201</ele>
        <time>2012-04-09T21:03:16Z</time>
      </trkpt>
      <trkpt lat="40.75954" lon="-73.98512">
        <ele>198</ele>
        <time>2012-04-09T21:03:17Z</time>
      </trkpt>
      <trkpt lat="40.75957" lon="-73.9851">
        <ele>195</ele>
        <time>2012-04-09T21:03:18Z</time>
      </trkpt>
      <trkpt lat="40.75959" lon="-73.98508">
        <ele>192</ele>
        <time>2012-04-09T21:03:19Z</time>
      </trkpt>
      <trkpt lat="40.7596" lon="-73.98508">
        <ele>189</ele>
        <time>2012-04-09T21:03:20Z</time>
      </trkpt>
      <trkpt lat="40.75961" lon="-73.98506">
        <ele>186</ele>
        <time>2012-04-09T21:03:21Z</time>
      </trkpt>
      <trkpt lat="40.75959" lon="-73.98505">
        <ele>181</ele>
        <time>2012-04-09T21:03:23Z</time>
      </trkpt>
      <trkpt lat="40.75957" lon="-73.98505">
        <ele>178</ele>
        <time>2012-04-09T21:03:24Z</time>
      </trkpt>
      <trkpt lat="40.75956" lon="-73.98508">
        <ele>176</ele>
        <time>2012-04-09T21:03:25Z</time>
      </trkpt>
      <trkpt lat="40.75956" lon="-73.98511">
        <ele>174</ele>
        <time>2012-04-09T21:03:26Z</time>
      </trkpt>
      <trkpt lat="40.75956" lon="-73.98513">
        <ele>172</ele>
        <time>2012-04-09T21:03:27Z</time>
      </trkpt>
      <trkpt lat="40.75957" lon="-73.98515">
        <ele>170</ele>
        <time>2012-04-09T21:03:28Z</time>
      </trkpt>
      <trkpt lat="40.75962" lon="-73.98515">
        <ele>168</ele>
        <time>2012-04-09T21:03:29Z</time>
      </trkpt>
      <trkpt lat="40.75963" lon="-73.98515">
        <ele>166</ele>
        <time>2012-04-09T21:03:30Z</time>
      </trkpt>
      <trkpt lat="40.75964" lon="-73.98517">
        <ele>162</ele>
        <time>2012-04-09T21:03:32Z</time>
      </trkpt>
      <trkpt lat="40.75965" lon="-73.98517">
        <ele>154</ele>
        <time>2012-04-09T21:03:35Z</time>
      </trkpt>
      <trkpt lat="40.75967" lon="-73.98516">
        <ele>151</ele>
        <time>2012-04-09T21:03:36Z</time>
      </trkpt>
      <trkpt lat="40.75968" lon="-73.98515">
        <ele>148</ele>
        <time>2012-04-09T21:03:37Z</time>
      </trkpt>
      <trkpt lat="40.75967" lon="-73.98517">
        <ele>145</ele>
        <time>2012-04-09T21:03:38Z</time>
      </trkpt>
      <trkpt lat="40.75964" lon="-73.98518">
        <ele>142</ele>
        <time>2012-04-09T21:03:39Z</time>
      </trkpt>
      <trkpt lat="40.75962" lon="-73.98519">
        <ele>139</ele>
        <time>2012-04-09T21:03:40Z</time>
      </trkpt>
      <trkpt lat="40.75959" lon="-73.98523">
        <ele>133</ele>
        <time>2012-04-09T21:03:44Z</time>
      </trkpt>
      <trkpt lat="40.75958" lon="-73.98521">
        <ele>131</ele>
        <time>2012-04-09T21:03:45Z</time>
      </trkpt>
      <trkpt lat="40.75958" lon="-73.9852">
        <ele>129</ele>
        <time>2012-04-09T21:03:46Z</time>
      </trkpt>
      <trkpt lat="40.75958" lon="-73.98517">
        <ele>125</ele>
        <time>2012-04-09T21:03:48Z</time>
      </trkpt>
      <trkpt lat="40.75958" lon="-73.98515">
        <ele>123</ele>
        <time>2012-04-09T21:03:49Z</time>
      </trkpt>
      <trkpt lat="40.75958" lon="-73.98514">
        <ele>121</ele>
        <time>2012-04-09T21:03:50Z</time>
      </trkpt>
      <trkpt lat="40.75958" lon="-73.98512">
        <ele>119</ele>
        <time>2012-04-09T21:03:51Z</time>
      </trkpt>
      <trkpt lat="40.75959" lon="-73.98509">
        <ele>115</ele>
        <time>2012-04-09T21:03:53Z</time>
      </trkpt>
      <trkpt lat="40.7596" lon="-73.98508">
        <ele>113</ele>
        <time>2012-04-09T21:03:54Z</time>
      </trkpt>
      <trkpt lat="40.75964" lon="-73.98505">
        <ele>112</ele>
        <time>2012-04-09T21:03:55Z</time>
      </trkpt>
      <trkpt lat="40.75965" lon="-73.98504">
        <ele>111</ele>
        <time>2012-04-09T21:03:56Z</time>
      </trkpt>
      <trkpt lat="40.75966" lon="-73.98501">
        <ele>109</ele>
        <time>2012-04-09T21:03:58Z</time>
      </trkpt>
      <trkpt lat="40.75967" lon="-73.98499">
        <ele>108</ele>
        <time>2012-04-09T21:03:59Z</time>
      </trkpt>
      <trkpt lat="40.75968" lon="-73.98497">
        <ele>106</ele>
        <time>2012-04-09T21:04:01Z</time>
      </trkpt>
      <trkpt lat="40.75969" lon="-73.98496">
        <ele>105</ele>
        <time>2012-04-09T21:04:02Z</time>
      </trkpt>
      <trkpt lat="40.7597" lon="-73.98494">
        <ele>103</ele>
        <time>2012-04-09T21:04:04Z</time>
      </trkpt>
      <trkpt lat="40.75972" lon="-73.98492">
        <ele>101</ele>
        <time>2012-04-09T21:04:06Z</time>
      </trkpt>
      <trkpt lat="40.75976" lon="-73.98488">
        <ele>100</ele>
        <time>2012-04-09T21:04:09Z</time>
      </trkpt>
      <trkpt lat="40.7598" lon="-73.98486">
        <ele>99</ele>
        <time>2012-04-09T21:04:10Z</time>
      </trkpt>
      <trkpt lat="40.75985" lon="-73.98483">
        <ele>97</ele>
        <time>2012-04-09T21:04:11Z</time>
      </trkpt>
      <trkpt lat="40.75982" lon="-73.98481">
        <ele>93</ele>
        <time>2012-04-09T21:04:13Z</time>
      </trkpt>
      <trkpt lat="40.75982" lon="-73.98479">
        <ele>91</ele>
        <time>2012-04-09T21:04:14Z</time>
      </trkpt>
      <trkpt lat="40.7598" lon="-73.98479">
        <ele>90</ele>
        <time>2012-04-09T21:04:15Z</time>
      </trkpt>
      <trkpt lat="40.75978" lon="-73.98477">
        <ele>89</ele>
        <time>2012-04-09T21:04:16Z</time>
      </trkpt>
      <trkpt lat="40.75975" lon="-73.98476">
        <ele>88</ele>
        <time>2012-04-09T21:04:17Z</time>
      </trkpt>
      <trkpt lat="40.75972" lon="-73.9847">
        <ele>87</ele>
        <time>2012-04-09T21:04:18Z</time>
      </trkpt>
      <trkpt lat="40.75969" lon="-73.98466">
        <ele>85</ele>
        <time>2012-04-09T21:04:19Z</time>
      </trkpt>
      <trkpt lat="40.7597" lon="-73.98463">
        <ele>83</ele>
        <time>2012-04-09T21:04:20Z</time>
      </trkpt>
      <trkpt lat="40.7597" lon="-73.98459">
        <ele>81</ele>
        <time>2012-04-09T21:04:23Z</time>
      </trkpt>
      <trkpt lat="40.75969" lon="-73.98457">
        <ele>79</ele>
        <time>2012-04-09T21:04:24Z</time>
      </trkpt>
      <trkpt lat="40.75971" lon="-73.98455">
        <ele>77</ele>
        <time>2012-04-09T21:04:25Z</time>
      </trkpt>
      <trkpt lat="40.75973" lon="-73.98454">
        <ele>75</ele>
        <time>2012-04-09T21:04:26Z</time>
      </trkpt>
      <trkpt lat="40.75975" lon="-73.98452">
        <ele>73</ele>
        <time>2012-04-09T21:04:27Z</time>
      </trkpt>
      <trkpt lat="40.75977" lon="-73.9845">
        <ele>71</ele>
        <time>2012-04-09T21:04:28Z</time>
      </trkpt>
      <trkpt lat="40.75978" lon="-73.98448">
        <ele>69</ele>
        <time>2012-04-09T21:04:29Z</time>
      </trkpt>
      <trkpt lat="40.75989" lon="-73.98421">
        <ele>42</ele>
        <time>2012-04-09T21:04:47Z</time>
      </trkpt>
      <trkpt lat="40.75989" lon="-73.98417">
        <ele>39</ele>
        <time>2012-04-09T21:04:48Z</time>
      </trkpt>
      <trkpt lat="40.75993" lon="-73.98411">
        <ele>36</ele>
        <time>2012-04-09T21:04:49Z</time>
      </trkpt>
      <trkpt lat="40.75996" lon="-73.98407">
        <ele>33</ele>
        <time>2012-04-09T21:04:50Z</time>
      </trkpt>
      <trkpt lat="40.75998" lon="-73.984">
        <ele>30</ele>
        <time>2012-04-09T21:04:53Z</time>
      </trkpt>
      <trkpt lat="40.76003" lon="-73.98399">
        <ele>26</ele>
        <time>2012-04-09T21:04:54Z</time>
      </trkpt>
      <trkpt lat="40.76004" lon="-73.98397">
        <ele>23</ele>
        <time>2012-04-09T21:04:55Z</time>
      </trkpt>
      <trkpt lat="40.76003" lon="-73.98396">
        <ele>20</ele>
        <time>2012-04-09T21:04:56Z</time>
      </trkpt>
      <trkpt lat="40.76004" lon="-73.98394">
        <ele>17</ele>
        <time>2012-04-09T21:04:57Z</time>
      </trkpt>
      <trkpt lat="40.76004" lon="-73.98391">
        <ele>15</ele>
        <time>2012-04-09T21:04:58Z</time>
      </trkpt>
      <trkpt lat="40.76006" lon="-73.9839">
        <ele>13</ele>
        <time>2012-04-09T21:04:59Z</time>
      </trkpt>
      <trkpt lat="40.76008" lon="-73.98389">
        <ele>11</ele>
        <time>2012-04-09T21:05:00Z</time>
      </trkpt>
      <trkpt lat="40.76009" lon="-73.98386">
        <ele>9</ele>
        <time>2012-04-09T21:05:01Z</time>
      </trkpt>
      <trkpt lat="40.7601" lon="-73.98385">
        <ele>7</ele>
        <time>2012-04-09T21:05:02Z</time>
      </trkpt>
      <trkpt lat="40.76012" lon="-73.98381">
        <ele>4</ele>
        <time>2012-04-09T21:05:04Z</time>
      </trkpt>
      <trkpt lat="40.76012" lon="-73.98379">
        <ele>2</ele>
        <time>2012-04-09T21:05:05Z</time>
      </trkpt>
      <trkpt lat="40.76012" lon="-73.98376">
        <time>2012-04-09T21:05:06Z</time>
      </trkpt>
      <trkpt lat="40.76009" lon="-73.98372">
        <time>2012-04-09T21:05:08Z</time>
      </trkpt>
      <trkpt lat="40.76007" lon="-73.9837">
        <time>2012-04-09T21:05:10Z</time>
      </trkpt>
      <trkpt lat="40.76011" lon="-73.98354">
        <ele>-3</ele>
        <time>2012-04-09T21:05:24Z</time>
      </trkpt>
      <trkpt lat="40.76012" lon="-73.98353">
        <ele>-2</ele>
        <time>2012-04-09T21:05:30Z</time>
      </trkpt>
      <trkpt lat="40.76014" lon="-73.9835">
        <ele>-1</ele>
        <time>2012-04-09T21:05:31Z</time>
      </trkpt>
      <trkpt lat="40.76017" lon="-73.98345">
        <time>2012-04-09T21:05:33Z</time>
      </trkpt>
      <trkpt lat="40.76022" lon="-73.98322">
        <ele>3</ele>
        <time>2012-04-09T21:08:18Z</time>
      </trkpt>
      <trkpt lat="40.76066" lon="-73.98363">
        <ele>12</ele>
        <time>2012-04-09T21:08:19Z</time>
      </trkpt>
      <trkpt lat="40.76086" lon="-73.98378">
        <ele>28</ele>
        <time>2012-04-09T21:08:20Z</time>
      </trkpt>
      <trkpt lat="40.76095" lon="-73.98389">
        <ele>52</ele>
        <time>2012-04-09T21:08:21Z</time>
      </trkpt>
      <trkpt lat="40.76092" lon="-73.98386">
        <ele>84</ele>
        <time>2012-04-09T21:08:22Z</time>
      </trkpt>
      <trkpt lat="40.76089" lon="-73.98384">
        <ele>121</ele>
        <time>2012-04-09T21:08:23Z</time>
      </trkpt>
      <trkpt lat="40.76085" lon="-73.98379">
        <ele>157</ele>
        <time>2012-04-09T21:08:24Z</time>
      </trkpt>
      <trkpt lat="40.76077" lon="-73.98371">
        <ele>180</ele>
        <time>2012-04-09T21:08:25Z</time>
      </trkpt>
      <trkpt lat="40.7607" lon="-73.98363">
        <ele>198</ele>
        <time>2012-04-09T21:08:26Z</time>
      </trkpt>
      <trkpt lat="40.76064" lon="-73.98357">
        <ele>211</ele>
        <time>2012-04-09T21:08:27Z</time>
      </trkpt>
      <trkpt lat="40.76062" lon="-73.98354">
        <ele>220</ele>
        <time>2012-04-09T21:08:28Z</time>
      </trkpt>
      <trkpt lat="40.76038" lon="-73.98331">
        <ele>225</ele>
        <time>2012-04-09T21:08:29Z</time>
      </trkpt>
      <trkpt lat="40.76036" lon="-73.9833">
        <ele>227</ele>
        <time>2012-04-09T21:08:31Z</time>
      </trkpt>
      <trkpt lat="40.7602" lon="-73.98317">
        <ele>226</ele>
        <time>2012-04-09T21:08:31Z</time>
      </trkpt>
      <trkpt lat="40.76017" lon="-73.98315">
        <ele>223</ele>
        <time>2012-04-09T21:08:32Z</time>
      </trkpt>
      <trkpt lat="40.76006" lon="-73.98306">
        <ele>217</ele>
        <time>2012-04-09T21:08:33Z</time>
      </trkpt>
      <trkpt lat="40.75999" lon="-73.983">
        <ele>211</ele>
        <time>2012-04-09T21:08:34Z</time>
      </trkpt>
      <trkpt lat="40.75993" lon="-73.98296">
        <ele>204</ele>
        <time>2012-04-09T21:08:35Z</time>
      </trkpt>
      <trkpt lat="40.75987" lon="-73.98292">
        <ele>197</ele>
        <time>2012-04-09T21:08:36Z</time>
      </trkpt>
      <trkpt lat="40.75983" lon="-73.98287">
        <ele>189</ele>
        <time>2012-04-09T21:08:37Z</time>
      </trkpt>
      <trkpt lat="40.75978" lon="-73.98284">
        <ele>182</ele>
        <time>2012-04-09T21:08:38Z</time>
      </trkpt>
      <trkpt lat="40.75975" lon="-73.98283">
        <ele>175</ele>
        <time>2012-04-09T21:08:39Z</time>
      </trkpt>
      <trkpt lat="40.75972" lon="-73.98281">
        <ele>169</ele>
        <time>2012-04-09T21:08:40Z</time>
      </trkpt>
      <trkpt lat="40.7597" lon="-73.9828">
        <ele>163</ele>
        <time>2012-04-09T21:08:41Z</time>
      </trkpt>
      <trkpt lat="40.75968" lon="-73.98279">
        <ele>158</ele>
        <time>2012-04-09T21:08:42Z</time>
      </trkpt>
      <trkpt lat="40.75965" lon="-73.98277">
        <ele>154</ele>
        <time>2012-04-09T21:08:43Z</time>
      </trkpt>
      <trkpt lat="40.7596" lon="-73.98272">
        <ele>150</ele>
        <time>2012-04-09T21:08:44Z</time>
      </trkpt>
      <trkpt lat="40.75957" lon="-73.9827">
        <ele>147</ele>
        <time>2012-04-09T21:08:45Z</time>
      </trkpt>
      <trkpt lat="40.75956" lon="-73.98269">
        <ele>144</ele>
        <time>2012-04-09T21:08:46Z</time>
      </trkpt>
      <trkpt lat="40.75954" lon="-73.98267">
        <ele>142</ele>
        <time>2012-04-09T21:08:47Z</time>
      </trkpt>
      <trkpt lat="40.75953" lon="-73.98267">
        <ele>140</ele>
        <time>2012-04-09T21:08:48Z</time>
      </trkpt>
      <trkpt lat="40.75951" lon="-73.98266">
        <ele>138</ele>
        <time>2012-04-09T21:08:49Z</time>
      </trkpt>
      <trkpt lat="40.75951" lon="-73.98264">
        <ele>137</ele>
        <time>2012-04-09T21:08:50Z</time>
      </trkpt>
      <trkpt lat="40.75948" lon="-73.9826">
        <ele>137</ele>
        <time>2012-04-09T21:08:51Z</time>
      </trkpt>
      <trkpt lat="40.75946" lon="-73.98259">
        <ele>137</ele>
        <time>2012-04-09T21:08:52Z</time>
      </trkpt>
      <trkpt lat="40.75941" lon="-73.98256">
        <ele>137</ele>
        <time>2012-04-09T21:08:53Z</time>
      </trkpt>
      <trkpt lat="40.75938" lon="-73.98255">
        <ele>137</ele>
        <time>2012-04-09T21:08:54Z</time>
      </trkpt>
      <trkpt lat="40.75936" lon="-73.98254">
        <ele>138</ele>
        <time>2012-04-09T21:08:55Z</time>
      </trkpt>
      <trkpt lat="40.75934" lon="-73.98252">
        <ele>142</ele>
        <time>2012-04-09T21:08:58Z</time>
      </trkpt>
      <trkpt lat="40.75932" lon="-73.98251">
        <ele>144</ele>
        <time>2012-04-09T21:08:59Z</time>
      </trkpt>
      <trkpt lat="40.75931" lon="-73.98251">
        <ele>146</ele>
        <time>2012-04-09T21:09:00Z</time>
      </trkpt>
      <trkpt lat="40.7593" lon="-73.98249">
        <ele>149</ele>
        <time>2012-04-09T21:09:01Z</time>
      </trkpt>
      <trkpt lat="40.75928" lon="-73.98249">
        <ele>155</ele>
        <time>2012-04-09T21:09:04Z</time>
      </trkpt>
      <trkpt lat="40.75928" lon="-73.98247">
        <ele>159</ele>
        <time>2012-04-09T21:09:06Z</time>
      </trkpt>
      <trkpt lat="40.7593" lon="-73.98245">
        <ele>162</ele>
        <time>2012-04-09T21:09:08Z</time>
      </trkpt>
      <trkpt lat="40.75933" lon="-73.98246">
        <ele>163</ele>
        <time>2012-04-09T21:09:09Z</time>
      </trkpt>
      <trkpt lat="40.75935" lon="-73.98246">
        <ele>164</ele>
        <time>2012-04-09T21:09:10Z</time>
      </trkpt>
      <trkpt lat="40.75937" lon="-73.98247">
        <ele>165</ele>
        <time>2012-04-09T21:09:11Z</time>
      </trkpt>
      <trkpt lat="40.75939" lon="-73.98247">
        <ele>165</ele>
        <time>2012-04-09T21:09:12Z</time>
      </trkpt>
      <trkpt lat="40.75941" lon="-73.98247">
        <ele>165</ele>
        <time>2012-04-09T21:09:13Z</time>
      </trkpt>
      <trkpt lat="40.75941" lon="-73.98245">
        <ele>165</ele>
        <time>2012-04-09T21:09:15Z</time>
      </trkpt>
      <trkpt lat="40.7594" lon="-73.98244">
        <ele>165</ele>
        <time>2012-04-09T21:09:18Z</time>
      </trkpt>
      <trkpt lat="40.7594" lon="-73.98246">
        <ele>167</ele>
        <time>2012-04-09T21:09:21Z</time>
      </trkpt>
      <trkpt lat="40.75941" lon="-73.98248">
        <ele>169</ele>
        <time>2012-04-09T21:09:23Z</time>
      </trkpt>
      <trkpt lat="40.7594" lon="-73.98248">
        <ele>173</ele>
        <time>2012-04-09T21:09:27Z</time>
      </trkpt>
      <trkpt lat="40.75938" lon="-73.98247">
        <ele>174</ele>
        <time>2012-04-09T21:09:28Z</time>
      </trkpt>
      <trkpt lat="40.75937" lon="-73.98247">
        <ele>178</ele>
        <time>2012-04-09T21:09:30Z</time>
      </trkpt>
      <trkpt lat="40.75933" lon="-73.98246">
        <ele>187</ele>
        <time>2012-04-09T21:09:37Z</time>
      </trkpt>
      <trkpt lat="40.75931" lon="-73.98243">
        <ele>193</ele>
        <time>2012-04-09T21:09:40Z</time>
      </trkpt>
      <trkpt lat="40.75927" lon="-73.9824">
        <ele>196</ele>
        <time>2012-04-09T21:09:41Z</time>
      </trkpt>
      <trkpt lat="40.75925" lon="-73.98236">
        <ele>199</ele>
        <time>2012-04-09T21:09:42Z</time>
      </trkpt>
      <trkpt lat="40.75926" lon="-73.98235">
        <ele>202</ele>
        <time>2012-04-09T21:09:43Z</time>
      </trkpt>
      <trkpt lat="40.75923" lon="-73.98235">
        <ele>206</ele>
        <time>2012-04-09T21:09:44Z</time>
      </trkpt>
      <trkpt lat="40.75921" lon="-73.98236">
        <ele>210</ele>
        <time>2012-04-09T21:09:45Z</time>
      </trkpt>
      <trkpt lat="40.75917" lon="-73.98238">
        <ele>214</ele>
        <time>2012-04-09T21:09:46Z</time>
      </trkpt>
      <trkpt lat="40.75912" lon="-73.98241">
        <ele>219</ele>
        <time>2012-04-09T21:09:47Z</time>
      </trkpt>
      <trkpt lat="40.7591" lon="-73.98243">
        <ele>224</ele>
        <time>2012-04-09T21:09:50Z</time>
      </trkpt>
      <trkpt lat="40.75909" lon="-73.98248">
        <ele>229</ele>
        <time>2012-04-09T21:09:51Z</time>
      </trkpt>
      <trkpt lat="40.75908" lon="-73.98249">
        <ele>234</ele>
        <time>2012-04-09T21:09:52Z</time>
      </trkpt>
      <trkpt lat="40.75906" lon="-73.98251">
        <ele>239</ele>
        <time>2012-04-09T21:09:53Z</time>
      </trkpt>
      <trkpt lat="40.759" lon="-73.98254">
        <ele>244</ele>
        <time>2012-04-09T21:09:56Z</time>
      </trkpt>
      <trkpt lat="40.75898" lon="-73.98246">
        <ele>249</ele>
        <time>2012-04-09T21:09:57Z</time>
      </trkpt>
      <trkpt lat="40.75896" lon="-73.98244">
        <ele>254</ele>
        <time>2012-04-09T21:09:58Z</time>
      </trkpt>
      <trkpt lat="40.75898" lon="-73.98247">
        <ele>264</ele>
        <time>2012-04-09T21:10:00Z</time>
      </trkpt>
      <trkpt lat="40.75899" lon="-73.98249">
        <ele>269</ele>
        <time>2012-04-09T21:10:01Z</time>
      </trkpt>
      <trkpt lat="40.75901" lon="-73.9825">
        <ele>274</ele>
        <time>2012-04-09T21:10:02Z</time>
      </trkpt>
      <trkpt lat="40.75903" lon="-73.98248">
        <ele>278</ele>
        <time>2012-04-09T21:10:03Z</time>
      </trkpt>
      <trkpt lat="40.75904" lon="-73.98251">
        <ele>286</ele>
        <time>2012-04-09T21:10:05Z</time>
      </trkpt>
      <trkpt lat="40.75905" lon="-73.98253">
        <ele>289</ele>
        <time>2012-04-09T21:10:06Z</time>
      </trkpt>
      <trkpt lat="40.75905" lon="-73.98251">
        <ele>292</ele>
        <time>2012-04-09T21:10:07Z</time>
      </trkpt>
      <trkpt lat="40.75906" lon="-73.98248">
        <ele>298</ele>
        <time>2012-04-09T21:10:09Z</time>
      </trkpt>
      <trkpt lat="40.75906" lon="-73.98246">
        <ele>300</ele>
        <time>2012-04-09T21:10:10Z</time>
      </trkpt>
      <trkpt lat="40.75908" lon="-73.98245">
        <ele>304</ele>
        <time>2012-04-09T21:10:12Z</time>
      </trkpt>
      <trkpt lat="40.75909" lon="-73.98244">
        <ele>310</ele>
        <time>2012-04-09T21:10:15Z</time>
      </trkpt>
      <trkpt lat="40.75909" lon="-73.98241">
        <ele>312</ele>
        <time>2012-04-09T21:10:16Z</time>
      </trkpt>
      <trkpt lat="40.75907" lon="-73.98239">
        <ele>314</ele>
        <time>2012-04-09T21:10:17Z</time>
      </trkpt>
      <trkpt lat="40.75908" lon="-73.98237">
        <ele>318</ele>
        <time>2012-04-09T21:10:19Z</time>
      </trkpt>
      <trkpt lat="40.75908" lon="-73.98235">
        <ele>326</ele>
        <time>2012-04-09T21:10:22Z</time>
      </trkpt>
      <trkpt lat="40.75908" lon="-73.98234">
        <ele>328</ele>
        <time>2012-04-09T21:10:23Z</time>
      </trkpt>
      <trkpt lat="40.75909" lon="-73.98236">
        <ele>335</ele>
        <time>2012-04-09T21:10:32Z</time>
      </trkpt>
      <trkpt lat="40.75908" lon="-73.98238">
        <ele>336</ele>
        <time>2012-04-09T21:10:33Z</time>
      </trkpt>
      <trkpt lat="40.75904" lon="-73.98241">
        <ele>337</ele>
        <time>2012-04-09T21:10:34Z</time>
      </trkpt>
      <trkpt lat="40.75902" lon="-73.98309">
        <ele>337</ele>
        <time>2012-04-09T21:10:35Z</time>
      </trkpt>
      <trkpt lat="40.75899" lon="-73.98309">
        <ele>332</ele>
        <time>2012-04-09T21:10:37Z</time>
      </trkpt>
      <trkpt lat="40.75898" lon="-73.98308">
        <ele>328</ele>
        <time>2012-04-09T21:10:38Z</time>
      </trkpt>
      <trkpt lat="40.75898" lon="-73.98305">
        <ele>323</ele>
        <time>2012-04-09T21:10:39Z</time>
      </trkpt>
      <trkpt lat="40.75895" lon="-73.98303">
        <ele>319</ele>
        <time>2012-04-09T21:10:40Z</time>
      </trkpt>
      <trkpt lat="40.7589" lon="-73.983">
        <ele>315</ele>
        <time>2012-04-09T21:10:41Z</time>
      </trkpt>
      <trkpt lat="40.75889" lon="-73.983">
        <ele>312</ele>
        <time>2012-04-09T21:10:42Z</time>
      </trkpt>
      <trkpt lat="40.75886" lon="-73.98299">
        <ele>309</ele>
        <time>2012-04-09T21:10:43Z</time>
      </trkpt>
      <trkpt lat="40.75884" lon="-73.983">
        <ele>307</ele>
        <time>2012-04-09T21:10:44Z</time>
      </trkpt>
      <trkpt lat="40.75886" lon="-73.983">
        <ele>303</ele>
        <time>2012-04-09T21:10:46Z</time>
      </trkpt>
      <trkpt lat="40.75881" lon="-73.98322">
        <ele>301</ele>
        <time>2012-04-09T21:10:47Z</time>
      </trkpt>
      <trkpt lat="40.75884" lon="-73.98322">
        <ele>299</ele>
        <time>2012-04-09T21:10:48Z</time>
      </trkpt>
      <trkpt lat="40.75886" lon="-73.98322">
        <ele>297</ele>
        <time>2012-04-09T21:10:49Z</time>
      </trkpt>
      <trkpt lat="40.75889" lon="-73.98322">
        <ele>295</ele>
        <time>2012-04-09T21:10:50Z</time>
      </trkpt>
      <trkpt lat="40.75892" lon="-73.98324">
        <ele>292</ele>
        <time>2012-04-09T21:10:51Z</time>
      </trkpt>
      <trkpt lat="40.75895" lon="-73.98325">
        <ele>286</ele>
        <time>2012-04-09T21:10:53Z</time>
      </trkpt>
      <trkpt lat="40.75898" lon="-73.98325">
        <ele>283</ele>
        <time>2012-04-09T21:10:54Z</time>
      </trkpt>
      <trkpt lat="40.759" lon="-73.98327">
        <ele>280</ele>
        <time>2012-04-09T21:10:55Z</time>
      </trkpt>
      <trkpt lat="40.75904" lon="-73.98326">
        <ele>277</ele>
        <time>2012-04-09T21:10:56Z</time>
      </trkpt>
      <trkpt lat="40.75905" lon="-73.98323">
        <ele>273</ele>
        <time>2012-04-09T21:10:58Z</time>
      </trkpt>
      <trkpt lat="40.75903" lon="-73.98322">
        <ele>269</ele>
        <time>2012-04-09T21:10:59Z</time>
      </trkpt>
      <trkpt lat="40.7588" lon="-73.98325">
        <ele>265</ele>
        <time>2012-04-09T21:11:08Z</time>
      </trkpt>
      <trkpt lat="40.75877" lon="-73.98324">
        <ele>262</ele>
        <time>2012-04-09T21:11:09Z</time>
      </trkpt>
      <trkpt lat="40.75874" lon="-73.98322">
        <ele>259</ele>
        <time>2012-04-09T21:11:10Z</time>
      </trkpt>
      <trkpt lat="40.7587" lon="-73.98321">
        <ele>257</ele>
        <time>2012-04-09T21:11:11Z</time>
      </trkpt>
      <trkpt lat="40.7587" lon="-73.98319">
        <ele>255</ele>
        <time>2012-04-09T21:11:12Z</time>
      </trkpt>
      <trkpt lat="40.75872" lon="-73.98317">
        <ele>254</ele>
        <time>2012-04-09T21:11:13Z</time>
      </trkpt>
      <trkpt lat="40.75873" lon="-73.98315">
        <ele>254</ele>
        <time>2012-04-09T21:11:15Z</time>
      </trkpt>
      <trkpt lat="40.75872" lon="-73.98318">
        <ele>256</ele>
        <time>2012-04-09T21:11:18Z</time>
      </trkpt>
      <trkpt lat="40.75874" lon="-73.98316">
        <ele>258</ele>
        <time>2012-04-09T21:11:20Z</time>
      </trkpt>
      <trkpt lat="40.75872" lon="-73.98317">
        <ele>260</ele>
        <time>2012-04-09T21:11:21Z</time>
      </trkpt>
      <trkpt lat="40.75872" lon="-73.98315">
        <ele>266</ele>
        <time>2012-04-09T21:11:24Z</time>
      </trkpt>
      <trkpt lat="40.75875" lon="-73.98314">
        <ele>270</ele>
        <time>2012-04-09T21:11:26Z</time>
      </trkpt>
      <trkpt lat="40.75877" lon="-73.98313">
        <ele>272</ele>
        <time>2012-04-09T21:11:27Z</time>
      </trkpt>
      <trkpt lat="40.75879" lon="-73.98313">
        <ele>274</ele>
        <time>2012-04-09T21:11:28Z</time>
      </trkpt>
      <trkpt lat="40.75881" lon="-73.98313">
        <ele>276</ele>
        <time>2012-04-09T21:11:29Z</time>
      </trkpt>
      <trkpt lat="40.75889" lon="-73.9829">
        <ele>279</ele>
        <time>2012-04-09T21:11:48Z</time>
      </trkpt>
      <trkpt lat="40.75892" lon="-73.98292">
        <ele>285</ele>
        <time>2012-04-09T21:11:50Z</time>
      </trkpt>
      <trkpt lat="40.75896" lon="-73.98296">
        <ele>288</ele>
        <time>2012-04-09T21:11:51Z</time>
      </trkpt>
      <trkpt lat="40.75905" lon="-73.98303">
        <ele>291</ele>
        <time>2012-04-09T21:11:52Z</time>
      </trkpt>
      <trkpt lat="40.75909" lon="-73.98306">
        <ele>293</ele>
        <time>2012-04-09T21:11:53Z</time>
      </trkpt>
      <trkpt lat="40.75912" lon="-73.98309">
        <ele>295</ele>
        <time>2012-04-09T21:11:56Z</time>
      </trkpt>
      <trkpt lat="40.75919" lon="-73.9831">
        <ele>297</ele>
        <time>2012-04-09T21:11:57Z</time>
      </trkpt>
      <trkpt lat="40.7592" lon="-73.9831">
        <ele>298</ele>
        <time>2012-04-09T21:11:58Z</time>
      </trkpt>
      <trkpt lat="40.75923" lon="-73.98312">
        <ele>299</ele>
        <time>2012-04-09T21:11:59Z</time>
      </trkpt>
      <trkpt lat="40.75927" lon="-73.98313">
        <ele>301</ele>
        <time>2012-04-09T21:12:01Z</time>
      </trkpt>
      <trkpt lat="40.7593" lon="-73.98312">
        <ele>303</ele>
        <time>2012-04-09T21:12:03Z</time>
      </trkpt>
      <trkpt lat="40.75932" lon="-73.98313">
        <ele>303</ele>
        <time>2012-04-09T21:12:04Z</time>
      </trkpt>
      <trkpt lat="40.75933" lon="-73.98314">
        <ele>303</ele>
        <time>2012-04-09T21:12:05Z</time>
      </trkpt>
      <trkpt lat="40.75936" lon="-73.98314">
        <ele>303</ele>
        <time>2012-04-09T21:12:07Z</time>
      </trkpt>
      <trkpt lat="40.75938" lon="-73.98315">
        <ele>303</ele>
        <time>2012-04-09T21:12:08Z</time>
      </trkpt>
      <trkpt lat="40.75939" lon="-73.98315">
        <ele>302</ele>
        <time>2012-04-09T21:12:09Z</time>
      </trkpt>
      <trkpt lat="40.75941" lon="-73.98316">
        <ele>301</ele>
        <time>2012-04-09T21:12:10Z</time>
      </trkpt>
      <trkpt lat="40.75943" lon="-73.98315">
        <ele>299</ele>
        <time>2012-04-09T21:12:11Z</time>
      </trkpt>
      <trkpt lat="40.75945" lon="-73.98315">
        <ele>297</ele>
        <time>2012-04-09T21:12:12Z</time>
      </trkpt>
      <trkpt lat="40.75947" lon="-73.98316">
        <ele>295</ele>
        <time>2012-04-09T21:12:13Z</time>
      </trkpt>
      <trkpt lat="40.75948" lon="-73.98317">
        <ele>293</ele>
        <time>2012-04-09T21:12:14Z</time>
      </trkpt>
      <trkpt lat="40.7595" lon="-73.98318">
        <ele>291</ele>
        <time>2012-04-09T21:12:15Z</time>
      </trkpt>
      <trkpt lat="40.75951" lon="-73.98318">
        <ele>289</ele>
        <time>2012-04-09T21:12:16Z</time>
      </trkpt>
      <trkpt lat="40.75953" lon="-73.98318">
        <ele>287</ele>
        <time>2012-04-09T21:12:17Z</time>
      </trkpt>
      <trkpt lat="40.75954" lon="-73.98318">
        <ele>285</ele>
        <time>2012-04-09T21:12:18Z</time>
      </trkpt>
      <trkpt lat="40.75958" lon="-73.98317">
        <ele>283</ele>
        <time>2012-04-09T21:12:19Z</time>
      </trkpt>
      <trkpt lat="40.75961" lon="-73.98318">
        <ele>282</ele>
        <time>2012-04-09T21:12:20Z</time>
      </trkpt>
      <trkpt lat="40.75963" lon="-73.98318">
        <ele>281</ele>
        <time>2012-04-09T21:12:21Z</time>
      </trkpt>
      <trkpt lat="40.75966" lon="-73.98318">
        <ele>280</ele>
        <time>2012-04-09T21:12:22Z</time>
      </trkpt>
      <trkpt lat="40.7597" lon="-73.98318">
        <ele>279</ele>
        <time>2012-04-09T21:12:23Z</time>
      </trkpt>
      <trkpt lat="40.75972" lon="-73.98318">
        <ele>278</ele>
        <time>2012-04-09T21:12:24Z</time>
      </trkpt>
      <trkpt lat="40.75974" lon="-73.98318">
        <ele>277</ele>
        <time>2012-04-09T21:12:25Z</time>
      </trkpt>
      <trkpt lat="40.75978" lon="-73.98318">
        <ele>277</ele>
        <time>2012-04-09T21:12:26Z</time>
      </trkpt>
      <trkpt lat="40.7598" lon="-73.98317">
        <ele>277</ele>
        <time>2012-04-09T21:12:27Z</time>
      </trkpt>
      <trkpt lat="40.75984" lon="-73.98316">
        <ele>277</ele>
        <time>2012-04-09T21:12:28Z</time>
      </trkpt>
      <trkpt lat="40.75986" lon="-73.98316">
        <ele>277</ele>
        <time>2012-04-09T21:12:29Z</time>
      </trkpt>
      <trkpt lat="40.7599" lon="-73.98316">
        <ele>277</ele>
        <time>2012-04-09T21:12:30Z</time>
      </trkpt>
      <trkpt lat="40.75992" lon="-73.98317">
        <ele>277</ele>
        <time>2012-04-09T21:12:31Z</time>
      </trkpt>
      <trkpt lat="40.75995" lon="-73.98316">
        <ele>277</ele>
        <time>2012-04-09T21:12:32Z</time>
      </trkpt>
      <trkpt lat="40.75998" lon="-73.98316">
        <ele>277</ele>
        <time>2012-04-09T21:12:33Z</time>
      </trkpt>
      <trkpt lat="40.76" lon="-73.98318">
        <ele>278</ele>
        <time>2012-04-09T21:12:34Z</time>
      </trkpt>
      <trkpt lat="40.76002" lon="-73.98318">
        <ele>279</ele>
        <time>2012-04-09T21:12:35Z</time>
      </trkpt>
      <trkpt lat="40.76028" lon="-73.98312">
        <ele>279</ele>
        <time>2012-04-09T21:12:40Z</time>
      </trkpt>
      <trkpt lat="40.76022" lon="-73.98312">
        <ele>279</ele>
        <time>2012-04-09T21:12:43Z</time>
      </trkpt>
      <trkpt lat="40.7602" lon="-73.98314">
        <ele>277</ele>
        <time>2012-04-09T21:12:46Z</time>
      </trkpt>
      <trkpt lat="40.76024" lon="-73.98312">
        <ele>274</ele>
        <time>2012-04-09T21:12:50Z</time>
      </trkpt>
      <trkpt lat="40.76031" lon="-73.98309">
        <ele>272</ele>
        <time>2012-04-09T21:12:53Z</time>
      </trkpt>
      <trkpt lat="40.76038" lon="-73.98306">
        <ele>270</ele>
        <time>2012-04-09T21:12:54Z</time>
      </trkpt>
      <trkpt lat="40.76051" lon="-73.98311">
        <ele>268</ele>
        <time>2012-04-09T21:12:55Z</time>
      </trkpt>
      <trkpt lat="40.76052" lon="-73.98311">
        <ele>266</ele>
        <time>2012-04-09T21:12:56Z</time>
      </trkpt>
      <trkpt lat="40.76063" lon="-73.98317">
        <ele>264</ele>
        <time>2012-04-09T21:12:57Z</time>
      </trkpt>
      <trkpt lat="40.76069" lon="-73.98318">
        <ele>262</ele>
        <time>2012-04-09T21:12:59Z</time>
      </trkpt>
      <trkpt lat="40.76081" lon="-73.98323">
        <ele>260</ele>
        <time>2012-04-09T21:13:01Z</time>
      </trkpt>
      <trkpt lat="40.76083" lon="-73.98322">
        <ele>258</ele>
        <time>2012-04-09T21:13:02Z</time>
      </trkpt>
      <trkpt lat="40.76093" lon="-73.98328">
        <ele>256</ele>
        <time>2012-04-09T21:13:03Z</time>
      </trkpt>
      <trkpt lat="40.76104" lon="-73.98332">
        <ele>252</ele>
        <time>2012-04-09T21:13:05Z</time>
      </trkpt>
      <trkpt lat="40.76107" lon="-73.98331">
        <ele>250</ele>
        <time>2012-04-09T21:13:06Z</time>
      </trkpt>
      <trkpt lat="40.76116" lon="-73.98336">
        <ele>248</ele>
        <time>2012-04-09T21:13:07Z</time>
      </trkpt>
      <trkpt lat="40.76118" lon="-73.98335">
        <ele>247</ele>
        <time>2012-04-09T21:13:08Z</time>
      </trkpt>
      <trkpt lat="40.76127" lon="-73.9834">
        <ele>245</ele>
        <time>2012-04-09T21:13:09Z</time>
      </trkpt>
      <trkpt lat="40.76135" lon="-73.98344">
        <ele>243</ele>
        <time>2012-04-09T21:13:11Z</time>
      </trkpt>
      <trkpt lat="40.76141" lon="-73.9835">
        <ele>241</ele>
        <time>2012-04-09T21:13:13Z</time>
      </trkpt>
      <trkpt lat="40.76151" lon="-73.9836">
        <ele>239</ele>
        <time>2012-04-09T21:13:15Z</time>
      </trkpt>
      <trkpt lat="40.76191" lon="-73.98404">
        <ele>239</ele>
        <time>2012-04-09T21:13:17Z</time>
      </trkpt>
      <trkpt lat="40.76192" lon="-73.98407">
        <ele>239</ele>
        <time>2012-04-09T21:13:18Z</time>
      </trkpt>
      <trkpt lat="40.76212" lon="-73.9843">
        <ele>239</ele>
        <time>2012-04-09T21:13:19Z</time>
      </trkpt>
      <trkpt lat="40.76213" lon="-73.98432">
        <ele>239</ele>
        <time>2012-04-09T21:13:20Z</time>
      </trkpt>
      <trkpt lat="40.76212" lon="-73.98432">
        <ele>239</ele>
        <time>2012-04-09T21:13:21Z</time>
      </trkpt>
      <trkpt lat="40.7621" lon="-73.98431">
        <ele>239</ele>
        <time>2012-04-09T21:13:22Z</time>
      </trkpt>
      <trkpt lat="40.76209" lon="-73.98429">
        <ele>239</ele>
        <time>2012-04-09T21:13:24Z</time>
      </trkpt>
      <trkpt lat="40.76207" lon="-73.98427">
        <ele>237</ele>
        <time>2012-04-09T21:13:26Z</time>
      </trkpt>
      <trkpt lat="40.76205" lon="-73.98426">
        <ele>231</ele>
        <time>2012-04-09T21:13:29Z</time>
      </trkpt>
      <trkpt lat="40.76204" lon="-73.98426">
        <ele>223</ele>
        <time>2012-04-09T21:13:33Z</time>
      </trkpt>
      <trkpt lat="40.76202" lon="-73.9843">
        <ele>215</ele>
        <time>2012-04-09T21:13:36Z</time>
      </trkpt>
      <trkpt lat="40.76202" lon="-73.98431">
        <ele>212</ele>
        <time>2012-04-09T21:13:37Z</time>
      </trkpt>
      <trkpt lat="40.76203" lon="-73.98434">
        <ele>208</ele>
        <time>2012-04-09T21:13:38Z</time>
      </trkpt>
      <trkpt lat="40.76201" lon="-73.98434">
        <ele>203</ele>
        <time>2012-04-09T21:13:39Z</time>
      </trkpt>
      <trkpt lat="40.76199" lon="-73.98434">
        <ele>198</ele>
        <time>2012-04-09T21:13:40Z</time>
      </trkpt>
      <trkpt lat="40.76198" lon="-73.98435">
        <ele>192</ele>
        <time>2012-04-09T21:13:41Z</time>
      </trkpt>
      <trkpt lat="40.76196" lon="-73.98436">
        <ele>186</ele>
        <time>2012-04-09T21:13:42Z</time>
      </trkpt>
      <trkpt lat="40.76193" lon="-73.98434">
        <ele>180</ele>
        <time>2012-04-09T21:13:43Z</time>
      </trkpt>
      <trkpt lat="40.76192" lon="-73.98435">
        <ele>174</ele>
        <time>2012-04-09T21:13:44Z</time>
      </trkpt>
      <trkpt lat="40.7619" lon="-73.98436">
        <ele>155</ele>
        <time>2012-04-09T21:13:48Z</time>
      </trkpt>
      <trkpt lat="40.76188" lon="-73.98437">
        <ele>151</ele>
        <time>2012-04-09T21:13:49Z</time>
      </trkpt>
      <trkpt lat="40.76185" lon="-73.9844">
        <ele>147</ele>
        <time>2012-04-09T21:13:51Z</time>
      </trkpt>
      <trkpt lat="40.76182" lon="-73.98434">
        <ele>141</ele>
        <time>2012-04-09T21:13:53Z</time>
      </trkpt>
      <trkpt lat="40.7618" lon="-73.98435">
        <ele>138</ele>
        <time>2012-04-09T21:13:54Z</time>
      </trkpt>
      <trkpt lat="40.76178" lon="-73.98431">
        <ele>134</ele>
        <time>2012-04-09T21:13:55Z</time>
      </trkpt>
      <trkpt lat="40.76179" lon="-73.98428">
        <ele>130</ele>
        <time>2012-04-09T21:13:57Z</time>
      </trkpt>
      <trkpt lat="40.76176" lon="-73.98421">
        <ele>126</ele>
        <time>2012-04-09T21:14:00Z</time>
      </trkpt>
      <trkpt lat="40.76176" lon="-73.9842">
        <ele>122</ele>
        <time>2012-04-09T21:14:01Z</time>
      </trkpt>
      <trkpt lat="40.76171" lon="-73.98414">
        <ele>118</ele>
        <time>2012-04-09T21:14:02Z</time>
      </trkpt>
      <trkpt lat="40.76174" lon="-73.98412">
        <ele>114</ele>
        <time>2012-04-09T21:14:03Z</time>
      </trkpt>
      <trkpt lat="40.76176" lon="-73.98412">
        <ele>111</ele>
        <time>2012-04-09T21:14:04Z</time>
      </trkpt>
      <trkpt lat="40.76178" lon="-73.98411">
        <ele>108</ele>
        <time>2012-04-09T21:14:05Z</time>
      </trkpt>
      <trkpt lat="40.76181" lon="-73.9841">
        <ele>105</ele>
        <time>2012-04-09T21:14:06Z</time>
      </trkpt>
      <trkpt lat="40.76184" lon="-73.98409">
        <ele>102</ele>
        <time>2012-04-09T21:14:07Z</time>
      </trkpt>
      <trkpt lat="40.76185" lon="-73.98409">
        <ele>100</ele>
        <time>2012-04-09T21:14:08Z</time>
      </trkpt>
      <trkpt lat="40.76186" lon="-73.98411">
        <ele>98</ele>
        <time>2012-04-09T21:14:09Z</time>
      </trkpt>
      <trkpt lat="40.76188" lon="-73.98412">
        <ele>95</ele>
        <time>2012-04-09T21:14:11Z</time>
      </trkpt>
      <trkpt lat="40.76189" lon="-73.98409">
        <ele>89</ele>
        <time>2012-04-09T21:14:16Z</time>
      </trkpt>
      <trkpt lat="40.76191" lon="-73.98407">
        <ele>86</ele>
        <time>2012-04-09T21:14:18Z</time>
      </trkpt>
      <trkpt lat="40.76188" lon="-73.98402">
        <ele>84</ele>
        <time>2012-04-09T21:14:22Z</time>
      </trkpt>
      <trkpt lat="40.76119" lon="-73.9836">
        <ele>83</ele>
        <time>2012-04-09T21:14:23Z</time>
      </trkpt>
      <trkpt lat="40.76117" lon="-73.98356">
        <ele>82</ele>
        <time>2012-04-09T21:14:26Z</time>
      </trkpt>
      <trkpt lat="40.76108" lon="-73.98351">
        <ele>81</ele>
        <time>2012-04-09T21:14:27Z</time>
      </trkpt>
      <trkpt lat="40.76109" lon="-73.98351">
        <ele>80</ele>
        <time>2012-04-09T21:14:28Z</time>
      </trkpt>
      <trkpt lat="40.7611" lon="-73.98339">
        <ele>78</ele>
        <time>2012-04-09T21:14:29Z</time>
      </trkpt>
      <trkpt lat="40.76111" lon="-73.98338">
        <ele>76</ele>
        <time>2012-04-09T21:14:30Z</time>
      </trkpt>
      <trkpt lat="40.76114" lon="-73.98322">
        <ele>73</ele>
        <time>2012-04-09T21:14:31Z</time>
      </trkpt>
      <trkpt lat="40.76119" lon="-73.98326">
        <ele>70</ele>
        <time>2012-04-09T21:14:32Z</time>
      </trkpt>
      <trkpt lat="40.76126" lon="-73.98322">
        <ele>66</ele>
        <time>2012-04-09T21:14:33Z</time>
      </trkpt>
      <trkpt lat="40.76129" lon="-73.98321">
        <ele>62</ele>
        <time>2012-04-09T21:14:34Z</time>
      </trkpt>
      <trkpt lat="40.76138" lon="-73.98322">
        <ele>58</ele>
        <time>2012-04-09T21:14:35Z</time>
      </trkpt>
      <trkpt lat="40.76144" lon="-73.98322">
        <ele>54</ele>
        <time>2012-04-09T21:14:36Z</time>
      </trkpt>
      <trkpt lat="40.7615" lon="-73.98322">
        <ele>50</ele>
        <time>2012-04-09T21:14:37Z</time>
      </trkpt>
      <trkpt lat="40.76154" lon="-73.98323">
        <ele>46</ele>
        <time>2012-04-09T21:14:38Z</time>
      </trkpt>
      <trkpt lat="40.76157" lon="-73.98324">
        <ele>42</ele>
        <time>2012-04-09T21:14:39Z</time>
      </trkpt>
      <trkpt lat="40.7616" lon="-73.98324">
        <ele>38</ele>
        <time>2012-04-09T21:14:40Z</time>
      </trkpt>
      <trkpt lat="40.76162" lon="-73.98324">
        <ele>34</ele>
        <time>2012-04-09T21:14:41Z</time>
      </trkpt>
      <trkpt lat="40.76163" lon="-73.98325">
        <ele>31</ele>
        <time>2012-04-09T21:14:42Z</time>
      </trkpt>
      <trkpt lat="40.76164" lon="-73.98327">
        <ele>25</ele>
        <time>2012-04-09T21:14:44Z</time>
      </trkpt>
      <trkpt lat="40.76164" lon="-73.98329">
        <ele>23</ele>
        <time>2012-04-09T21:14:46Z</time>
      </trkpt>
      <trkpt lat="40.76164" lon="-73.98331">
        <ele>19</ele>
        <time>2012-04-09T21:14:48Z</time>
      </trkpt>
      <trkpt lat="40.76154" lon="-73.98336">
        <ele>18</ele>
        <time>2012-04-09T21:15:01Z</time>
      </trkpt>
      <trkpt lat="40.76126" lon="-73.98347">
        <ele>31</ele>
        <time>2012-04-09T21:15:20Z</time>
      </trkpt>
      <trkpt lat="40.76124" lon="-73.98347">
        <ele>37</ele>
        <time>2012-04-09T21:15:21Z</time>
      </trkpt>
      <trkpt lat="40.76122" lon="-73.98346">
        <ele>42</ele>
        <time>2012-04-09T21:15:22Z</time>
      </trkpt>
      <trkpt lat="40.76231" lon="-73.98338">
        <ele>76</ele>
        <time>2012-04-09T21:17:50Z</time>
      </trkpt>
      <trkpt lat="40.76227" lon="-73.98337">
        <ele>96</ele>
        <time>2012-04-09T21:17:53Z</time>
      </trkpt>
      <trkpt lat="40.76222" lon="-73.98333">
        <ele>117</ele>
        <time>2012-04-09T21:17:54Z</time>
      </trkpt>
      <trkpt lat="40.76219" lon="-73.98335">
        <ele>135</ele>
        <time>2012-04-09T21:17:55Z</time>
      </trkpt>
      <trkpt lat="40.76212" lon="-73.98338">
        <ele>149</ele>
        <time>2012-04-09T21:17:58Z</time>
      </trkpt>
      <trkpt lat="40.7621" lon="-73.9834">
        <ele>161</ele>
        <time>2012-04-09T21:18:00Z</time>
      </trkpt>
      <trkpt lat="40.76203" lon="-73.9835">
        <ele>170</ele>
        <time>2012-04-09T21:18:01Z</time>
      </trkpt>
      <trkpt lat="40.76201" lon="-73.98352">
        <ele>177</ele>
        <time>2012-04-09T21:18:03Z</time>
      </trkpt>
      <trkpt lat="40.762" lon="-73.98354">
        <ele>182</ele>
        <time>2012-04-09T21:18:04Z</time>
      </trkpt>
      <trkpt lat="40.76199" lon="-73.98355">
        <ele>186</ele>
        <time>2012-04-09T21:18:05Z</time>
      </trkpt>
      <trkpt lat="40.76185" lon="-73.98353">
        <ele>188</ele>
        <time>2012-04-09T21:18:06Z</time>
      </trkpt>
      <trkpt lat="40.76179" lon="-73.98356">
        <ele>190</ele>
        <time>2012-04-09T21:18:07Z</time>
      </trkpt>
      <trkpt lat="40.76164" lon="-73.98358">
        <ele>191</ele>
        <time>2012-04-09T21:18:08Z</time>
      </trkpt>
      <trkpt lat="40.76161" lon="-73.9836">
        <ele>192</ele>
        <time>2012-04-09T21:18:09Z</time>
      </trkpt>
      <trkpt lat="40.76151" lon="-73.9836">
        <ele>192</ele>
        <time>2012-04-09T21:18:10Z</time>
      </trkpt>
      <trkpt lat="40.7615" lon="-73.9836">
        <ele>191</ele>
        <time>2012-04-09T21:18:11Z</time>
      </trkpt>
      <trkpt lat="40.76141" lon="-73.9836">
        <ele>189</ele>
        <time>2012-04-09T21:18:12Z</time>
      </trkpt>
      <trkpt lat="40.7614" lon="-73.98361">
        <ele>187</ele>
        <time>2012-04-09T21:18:13Z</time>
      </trkpt>
      <trkpt lat="40.76132" lon="-73.98357">
        <ele>184</ele>
        <time>2012-04-09T21:18:14Z</time>
      </trkpt>
      <trkpt lat="40.76128" lon="-73.98357">
        <ele>181</ele>
        <time>2012-04-09T21:18:16Z</time>
      </trkpt>
      <trkpt lat="40.76123" lon="-73.98354">
        <ele>178</ele>
        <time>2012-04-09T21:18:17Z</time>
      </trkpt>
      <trkpt lat="40.76116" lon="-73.98351">
        <ele>172</ele>
        <time>2012-04-09T21:18:19Z</time>
      </trkpt>
      <trkpt lat="40.76114" lon="-73.98344">
        <ele>169</ele>
        <time>2012-04-09T21:18:24Z</time>
      </trkpt>
      <trkpt lat="40.76117" lon="-73.98345">
        <ele>166</ele>
        <time>2012-04-09T21:18:25Z</time>
      </trkpt>
      <trkpt lat="40.76125" lon="-73.9835">
        <ele>158</ele>
        <time>2012-04-09T21:18:27Z</time>
      </trkpt>
      <trkpt lat="40.76129" lon="-73.98354">
        <ele>154</ele>
        <time>2012-04-09T21:18:28Z</time>
      </trkpt>
      <trkpt lat="40.76133" lon="-73.98357">
        <ele>150</ele>
        <time>2012-04-09T21:18:29Z</time>
      </trkpt>
      <trkpt lat="40.76135" lon="-73.98357">
        <ele>147</ele>
        <time>2012-04-09T21:18:30Z</time>
      </trkpt>
      <trkpt lat="40.76135" lon="-73.98358">
        <ele>144</ele>
        <time>2012-04-09T21:18:31Z</time>
      </trkpt>
      <trkpt lat="40.76147" lon="-73.98357">
        <ele>141</ele>
        <time>2012-04-09T21:18:32Z</time>
      </trkpt>
      <trkpt lat="40.7616" lon="-73.98348">
        <ele>137</ele>
        <time>2012-04-09T21:18:45Z</time>
      </trkpt>
      <trkpt lat="40.76169" lon="-73.9835">
        <ele>133</ele>
        <time>2012-04-09T21:18:51Z</time>
      </trkpt>
      <trkpt lat="40.76165" lon="-73.98346">
        <ele>128</ele>
        <time>2012-04-09T21:18:56Z</time>
      </trkpt>
      <trkpt lat="40.76165" lon="-73.98348">
        <ele>118</ele>
        <time>2012-04-09T21:18:58Z</time>
      </trkpt>
      <trkpt lat="40.76164" lon="-73.9835">
        <ele>114</ele>
        <time>2012-04-09T21:18:59Z</time>
      </trkpt>
      <trkpt lat="40.76142" lon="-73.98333">
        <ele>110</ele>
        <time>2012-04-09T21:19:01Z</time>
      </trkpt>
      <trkpt lat="40.76138" lon="-73.98331">
        <ele>107</ele>
        <time>2012-04-09T21:19:02Z</time>
      </trkpt>
      <trkpt lat="40.76135" lon="-73.98331">
        <ele>90</ele>
        <time>2012-04-09T21:19:11Z</time>
      </trkpt>
      <trkpt lat="40.7613" lon="-73.9833">
        <ele>89</ele>
        <time>2012-04-09T21:19:12Z</time>
      </trkpt>
      <trkpt lat="40.76128" lon="-73.98331">
        <ele>88</ele>
        <time>2012-04-09T21:19:13Z</time>
      </trkpt>
      <trkpt lat="40.76121" lon="-73.98328">
        <ele>87</ele>
        <time>2012-04-09T21:19:14Z</time>
      </trkpt>
      <trkpt lat="40.76115" lon="-73.98325">
        <ele>85</ele>
        <time>2012-04-09T21:19:16Z</time>
      </trkpt>
      <trkpt lat="40.7611" lon="-73.98322">
        <ele>83</ele>
        <time>2012-04-09T21:19:18Z</time>
      </trkpt>
      <trkpt lat="40.76103" lon="-73.9832">
        <ele>82</ele>
        <time>2012-04-09T21:19:20Z</time>
      </trkpt>
      <trkpt lat="40.76102" lon="-73.98321">
        <ele>81</ele>
        <time>2012-04-09T21:19:21Z</time>
      </trkpt>
      <trkpt lat="40.76094" lon="-73.98317">
        <ele>80</ele>
        <time>2012-04-09T21:19:22Z</time>
      </trkpt>
      <trkpt lat="40.76091" lon="-73.98318">
        <ele>79</ele>
        <time>2012-04-09T21:19:23Z</time>
      </trkpt>
      <trkpt lat="40.76088" lon="-73.98318">
        <ele>78</ele>
        <time>2012-04-09T21:19:24Z</time>
      </trkpt>
      <trkpt lat="40.7608" lon="-73.98315">
        <ele>77</ele>
        <time>2012-04-09T21:19:25Z</time>
      </trkpt>
      <trkpt lat="40.76077" lon="-73.98316">
        <ele>77</ele>
        <time>2012-04-09T21:19:26Z</time>
      </trkpt>
      <trkpt lat="40.76073" lon="-73.98322">
        <ele>77</ele>
        <time>2012-04-09T21:19:29Z</time>
      </trkpt>
      <trkpt lat="40.76091" lon="-73.98346">
        <ele>76</ele>
        <time>2012-04-09T21:19:30Z</time>
      </trkpt>
      <trkpt lat="40.76094" lon="-73.98351">
        <ele>75</ele>
        <time>2012-04-09T21:19:31Z</time>
      </trkpt>
      <trkpt lat="40.76102" lon="-73.98362">
        <ele>73</ele>
        <time>2012-04-09T21:19:32Z</time>
      </trkpt>
      <trkpt lat="40.76104" lon="-73.98366">
        <ele>71</ele>
        <time>2012-04-09T21:19:33Z</time>
      </trkpt>
      <trkpt lat="40.76105" lon="-73.98373">
        <ele>68</ele>
        <time>2012-04-09T21:19:34Z</time>
      </trkpt>
      <trkpt lat="40.76107" lon="-73.98378">
        <ele>65</ele>
        <time>2012-04-09T21:19:35Z</time>
      </trkpt>
      <trkpt lat="40.76113" lon="-73.98386">
        <ele>63</ele>
        <time>2012-04-09T21:19:36Z</time>
      </trkpt>
      <trkpt lat="40.76118" lon="-73.98391">
        <ele>61</ele>
        <time>2012-04-09T21:19:37Z</time>
      </trkpt>
      <trkpt lat="40.7612" lon="-73.98397">
        <ele>59</ele>
        <time>2012-04-09T21:19:38Z</time>
      </trkpt>
      <trkpt lat="40.76121" lon="-73.98402">
        <ele>58</ele>
        <time>2012-04-09T21:19:39Z</time>
      </trkpt>
      <trkpt lat="40.76123" lon="-73.98406">
        <ele>58</ele>
        <time>2012-04-09T21:19:40Z</time>
      </trkpt>
      <trkpt lat="40.76126" lon="-73.98409">
        <ele>58</ele>
        <time>2012-04-09T21:19:41Z</time>
      </trkpt>
      <trkpt lat="40.76128" lon="-73.98411">
        <ele>58</ele>
        <time>2012-04-09T21:19:42Z</time>
      </trkpt>
      <trkpt lat="40.76129" lon="-73.98413">
        <ele>59</ele>
        <time>2012-04-09T21:19:43Z</time>
      </trkpt>
      <trkpt lat="40.7613" lon="-73.98416">
        <ele>60</ele>
        <time>2012-04-09T21:19:44Z</time>
      </trkpt>
      <trkpt lat="40.7613" lon="-73.98418">
        <ele>62</ele>
        <time>2012-04-09T21:19:46Z</time>
      </trkpt>
      <trkpt lat="40.7613" lon="-73.98422">
        <ele>63</ele>
        <time>2012-04-09T21:19:48Z</time>
      </trkpt>
      <trkpt lat="40.7613" lon="-73.98425">
        <ele>63</ele>
        <time>2012-04-09T21:19:50Z</time>
      </trkpt>
      <trkpt lat="40.76132" lon="-73.98425">
        <ele>64</ele>
        <time>2012-04-09T21:19:52Z</time>
      </trkpt>
      <trkpt lat="40.76138" lon="-73.98426">
        <ele>65</ele>
        <time>2012-04-09T21:19:57Z</time>
      </trkpt>
      <trkpt lat="40.76139" lon="-73.98428">
        <ele>66</ele>
        <time>2012-04-09T21:19:59Z</time>
      </trkpt>
      <trkpt lat="40.7614" lon="-73.98427">
        <ele>68</ele>
        <time>2012-04-09T21:20:01Z</time>
      </trkpt>
      <trkpt lat="40.76145" lon="-73.9843">
        <ele>70</ele>
        <time>2012-04-09T21:20:03Z</time>
      </trkpt>
      <trkpt lat="40.76148" lon="-73.98432">
        <ele>71</ele>
        <time>2012-04-09T21:20:04Z</time>
      </trkpt>
      <trkpt lat="40.76149" lon="-73.98434">
        <ele>73</ele>
        <time>2012-04-09T21:20:05Z</time>
      </trkpt>
      <trkpt lat="40.76151" lon="-73.98437">
        <ele>75</ele>
        <time>2012-04-09T21:20:06Z</time>
      </trkpt>
      <trkpt lat="40.76152" lon="-73.98439">
        <ele>78</ele>
        <time>2012-04-09T21:20:07Z</time>
      </trkpt>
      <trkpt lat="40.76155" lon="-73.98438">
        <ele>81</ele>
        <time>2012-04-09T21:20:08Z</time>
      </trkpt>
      <trkpt lat="40.76157" lon="-73.98439">
        <ele>84</ele>
        <time>2012-04-09T21:20:09Z</time>
      </trkpt>
      <trkpt lat="40.76158" lon="-73.98439">
        <ele>86</ele>
        <time>2012-04-09T21:20:10Z</time>
      </trkpt>
      <trkpt lat="40.7616" lon="-73.98439">
        <ele>88</ele>
        <time>2012-04-09T21:20:11Z</time>
      </trkpt>
      <trkpt lat="40.76162" lon="-73.98439">
        <ele>90</ele>
        <time>2012-04-09T21:20:12Z</time>
      </trkpt>
      <trkpt lat="40.76165" lon="-73.98438">
        <ele>91</ele>
        <time>2012-04-09T21:20:13Z</time>
      </trkpt>
      <trkpt lat="40.76166" lon="-73.98438">
        <ele>92</ele>
        <time>2012-04-09T21:20:14Z</time>
      </trkpt>
      <trkpt lat="40.76164" lon="-73.98438">
        <ele>95</ele>
        <time>2012-04-09T21:20:17Z</time>
      </trkpt>
      <trkpt lat="40.76163" lon="-73.98438">
        <ele>97</ele>
        <time>2012-04-09T21:20:18Z</time>
      </trkpt>
      <trkpt lat="40.76161" lon="-73.98438">
        <ele>99</ele>
        <time>2012-04-09T21:20:19Z</time>
      </trkpt>
      <trkpt lat="40.7616" lon="-73.98437">
        <ele>105</ele>
        <time>2012-04-09T21:20:22Z</time>
      </trkpt>
      <trkpt lat="40.76157" lon="-73.98436">
        <ele>108</ele>
        <time>2012-04-09T21:20:24Z</time>
      </trkpt>
      <trkpt lat="40.76156" lon="-73.98437">
        <ele>110</ele>
        <time>2012-04-09T21:20:25Z</time>
      </trkpt>
      <trkpt lat="40.76157" lon="-73.98436">
        <ele>118</ele>
        <time>2012-04-09T21:20:28Z</time>
      </trkpt>
      <trkpt lat="40.76158" lon="-73.98438">
        <ele>123</ele>
        <time>2012-04-09T21:20:30Z</time>
      </trkpt>
      <trkpt lat="40.76156" lon="-73.98438">
        <ele>129</ele>
        <time>2012-04-09T21:20:32Z</time>
      </trkpt>
      <trkpt lat="40.76158" lon="-73.98439">
        <ele>135</ele>
        <time>2012-04-09T21:20:35Z</time>
      </trkpt>
      <trkpt lat="40.76158" lon="-73.98441">
        <ele>140</ele>
        <time>2012-04-09T21:20:37Z</time>
      </trkpt>
      <trkpt lat="40.76157" lon="-73.98444">
        <ele>145</ele>
        <time>2012-04-09T21:20:39Z</time>
      </trkpt>
      <trkpt lat="40.76156" lon="-73.98445">
        <ele>149</ele>
        <time>2012-04-09T21:20:41Z</time>
      </trkpt>
      <trkpt lat="40.76154" lon="-73.98446">
        <ele>157</ele>
        <time>2012-04-09T21:20:44Z</time>
      </trkpt>
      <trkpt lat="40.76152" lon="-73.98446">
        <ele>160</ele>
        <time>2012-04-09T21:20:45Z</time>
      </trkpt>
      <trkpt lat="40.76149" lon="-73.98445">
        <ele>163</ele>
        <time>2012-04-09T21:20:46Z</time>
      </trkpt>
      <trkpt lat="40.76147" lon="-73.98444">
        <ele>166</ele>
        <time>2012-04-09T21:20:47Z</time>
      </trkpt>
      <trkpt lat="40.76145" lon="-73.98444">
        <ele>169</ele>
        <time>2012-04-09T21:20:48Z</time>
      </trkpt>
      <trkpt lat="40.76144" lon="-73.98445">
        <ele>172</ele>
        <time>2012-04-09T21:20:49Z</time>
      </trkpt>
      <trkpt lat="40.76143" lon="-73.98444">
        <ele>178</ele>
        <time>2012-04-09T21:20:51Z</time>
      </trkpt>
      <trkpt lat="40.7614" lon="-73.98443">
        <ele>184</ele>
        <time>2012-04-09T21:20:53Z</time>
      </trkpt>
      <trkpt lat="40.76139" lon="-73.98441">
        <ele>188</ele>
        <time>2012-04-09T21:20:54Z</time>
      </trkpt>
      <trkpt lat="40.76137" lon="-73.98441">
        <ele>192</ele>
        <time>2012-04-09T21:20:55Z</time>
      </trkpt>
      <trkpt lat="40.76135" lon="-73.98442">
        <ele>196</ele>
        <time>2012-04-09T21:20:56Z</time>
      </trkpt>
      <trkpt lat="40.76133" lon="-73.98442">
        <ele>204</ele>
        <time>2012-04-09T21:20:58Z</time>
      </trkpt>
      <trkpt lat="40.76132" lon="-73.98443">
        <ele>212</ele>
        <time>2012-04-09T21:21:00Z</time>
      </trkpt>
      <trkpt lat="40.76131" lon="-73.98444">
        <ele>216</ele>
        <time>2012-04-09T21:21:01Z</time>
      </trkpt>
      <trkpt lat="40.76129" lon="-73.98444">
        <ele>219</ele>
        <time>2012-04-09T21:21:02Z</time>
      </trkpt>
      <trkpt lat="40.76128" lon="-73.98446">
        <ele>229</ele>
        <time>2012-04-09T21:21:05Z</time>
      </trkpt>
      <trkpt lat="40.76132" lon="-73.98445">
        <ele>236</ele>
        <time>2012-04-09T21:21:07Z</time>
      </trkpt>
      <trkpt lat="40.76137" lon="-73.98446">
        <ele>240</ele>
        <time>2012-04-09T21:21:08Z</time>
      </trkpt>
      <trkpt lat="40.7614" lon="-73.98447">
        <ele>244</ele>
        <time>2012-04-09T21:21:09Z</time>
      </trkpt>
      <trkpt lat="40.76137" lon="-73.98445">
        <ele>249</ele>
        <time>2012-04-09T21:21:10Z</time>
      </trkpt>
      <trkpt lat="40.76133" lon="-73.98442">
        <ele>254</ele>
        <time>2012-04-09T21:21:11Z</time>
      </trkpt>
      <trkpt lat="40.76134" lon="-73.98441">
        <ele>259</ele>
        <time>2012-04-09T21:21:12Z</time>
      </trkpt>
      <trkpt lat="40.76135" lon="-73.98441">
        <ele>264</ele>
        <time>2012-04-09T21:21:13Z</time>
      </trkpt>
      <trkpt lat="40.76138" lon="-73.98441">
        <ele>268</ele>
        <time>2012-04-09T21:21:14Z</time>
      </trkpt>
      <trkpt lat="40.76139" lon="-73.98443">
        <ele>272</ele>
        <time>2012-04-09T21:21:15Z</time>
      </trkpt>
      <trkpt lat="40.76141" lon="-73.98445">
        <ele>280</ele>
        <time>2012-04-09T21:21:17Z</time>
      </trkpt>
      <trkpt lat="40.76144" lon="-73.98447">
        <ele>286</ele>
        <time>2012-04-09T21:21:19Z</time>
      </trkpt>
      <trkpt lat="40.76147" lon="-73.98447">
        <ele>289</ele>
        <time>2012-04-09T21:21:20Z</time>
      </trkpt>
      <trkpt lat="40.76148" lon="-73.98447">
        <ele>292</ele>
        <time>2012-04-09T21:21:21Z</time>
      </trkpt>
      <trkpt lat="40.76149" lon="-73.98448">
        <ele>295</ele>
        <time>2012-04-09T21:21:22Z</time>
      </trkpt>
      <trkpt lat="40.76152" lon="-73.9845">
        <ele>301</ele>
        <time>2012-04-09T21:21:24Z</time>
      </trkpt>
      <trkpt lat="40.76155" lon="-73.98452">
        <ele>305</ele>
        <time>2012-04-09T21:21:25Z</time>
      </trkpt>
      <trkpt lat="40.76153" lon="-73.98453">
        <ele>314</ele>
        <time>2012-04-09T21:21:28Z</time>
      </trkpt>
      <trkpt lat="40.76153" lon="-73.98454">
        <ele>320</ele>
        <time>2012-04-09T21:21:30Z</time>
      </trkpt>
      <trkpt lat="40.76149" lon="-73.98452">
        <ele>322</ele>
        <time>2012-04-09T21:21:31Z</time>
      </trkpt>
      <trkpt lat="40.76146" lon="-73.98451">
        <ele>324</ele>
        <time>2012-04-09T21:21:32Z</time>
      </trkpt>
      <trkpt lat="40.76143" lon="-73.9845">
        <ele>326</ele>
        <time>2012-04-09T21:21:33Z</time>
      </trkpt>
      <trkpt lat="40.76141" lon="-73.98451">
        <ele>328</ele>
        <time>2012-04-09T21:21:34Z</time>
      </trkpt>
      <trkpt lat="40.7614" lon="-73.98451">
        <ele>330</ele>
        <time>2012-04-09T21:21:35Z</time>
      </trkpt>
      <trkpt lat="40.76138" lon="-73.9845">
        <ele>333</ele>
        <time>2012-04-09T21:21:36Z</time>
      </trkpt>
      <trkpt lat="40.76133" lon="-73.98449">
        <ele>336</ele>
        <time>2012-04-09T21:21:37Z</time>
      </trkpt>
      <trkpt lat="40.76131" lon="-73.98449">
        <ele>339</ele>
        <time>2012-04-09T21:21:38Z</time>
      </trkpt>
      <trkpt lat="40.76128" lon="-73.98449">
        <ele>342</ele>
        <time>2012-04-09T21:21:39Z</time>
      </trkpt>
      <trkpt lat="40.76125" lon="-73.98449">
        <ele>344</ele>
        <time>2012-04-09T21:21:40Z</time>
      </trkpt>
      <trkpt lat="40.76123" lon="-73.9845">
        <ele>348</ele>
        <time>2012-04-09T21:21:42Z</time>
      </trkpt>
      <trkpt lat="40.76122" lon="-73.9845">
        <ele>350</ele>
        <time>2012-04-09T21:21:43Z</time>
      </trkpt>
      <trkpt lat="40.76119" lon="-73.9845">
        <ele>351</ele>
        <time>2012-04-09T21:21:44Z</time>
      </trkpt>
      <trkpt lat="40.76117" lon="-73.9845">
        <ele>352</ele>
        <time>2012-04-09T21:21:45Z</time>
      </trkpt>
      <trkpt lat="40.76114" lon="-73.98448">
        <ele>353</ele>
        <time>2012-04-09T21:21:46Z</time>
      </trkpt>
      <trkpt lat="40.76116" lon="-73.98449">
        <ele>355</ele>
        <time>2012-04-09T21:21:48Z</time>
      </trkpt>
      <trkpt lat="40.76113" lon="-73.98448">
        <ele>357</ele>
        <time>2012-04-09T21:21:50Z</time>
      </trkpt>
      <trkpt lat="40.76111" lon="-73.98447">
        <ele>358</ele>
        <time>2012-04-09T21:21:51Z</time>
      </trkpt>
      <trkpt lat="40.76108" lon="-73.98447">
        <ele>359</ele>
        <time>2012-04-09T21:21:52Z</time>
      </trkpt>
      <trkpt lat="40.76105" lon="-73.98447">
        <ele>360</ele>
        <time>2012-04-09T21:21:53Z</time>
      </trkpt>
      <trkpt lat="40.76102" lon="-73.98444">
        <ele>362</ele>
        <time>2012-04-09T21:21:54Z</time>
      </trkpt>
      <trkpt lat="40.76099" lon="-73.98442">
        <ele>364</ele>
        <time>2012-04-09T21:21:55Z</time>
      </trkpt>
      <trkpt lat="40.76096" lon="-73.9844">
        <ele>366</ele>
        <time>2012-04-09T21:21:56Z</time>
      </trkpt>
      <trkpt lat="40.76094" lon="-73.98438">
        <ele>369</ele>
        <time>2012-04-09T21:21:57Z</time>
      </trkpt>
      <trkpt lat="40.76091" lon="-73.98438">
        <ele>372</ele>
        <time>2012-04-09T21:21:58Z</time>
      </trkpt>
      <trkpt lat="40.76087" lon="-73.98438">
        <ele>376</ele>
        <time>2012-04-09T21:21:59Z</time>
      </trkpt>
      <trkpt lat="40.76084" lon="-73.98435">
        <ele>380</ele>
        <time>2012-04-09T21:22:00Z</time>
      </trkpt>
      <trkpt lat="40.76079" lon="-73.98435">
        <ele>384</ele>
        <time>2012-04-09T21:22:01Z</time>
      </trkpt>
      <trkpt lat="40.76075" lon="-73.98436">
        <ele>389</ele>
        <time>2012-04-09T21:22:02Z</time>
      </trkpt>
      <trkpt lat="40.76076" lon="-73.98438">
        <ele>404</ele>
        <time>2012-04-09T21:22:05Z</time>
      </trkpt>
      <trkpt lat="40.7608" lon="-73.98437">
        <ele>409</ele>
        <time>2012-04-09T21:22:06Z</time>
      </trkpt>
      <trkpt lat="40.76082" lon="-73.98436">
        <ele>414</ele>
        <time>2012-04-09T21:22:07Z</time>
      </trkpt>
      <trkpt lat="40.7608" lon="-73.98435">
        <ele>418</ele>
        <time>2012-04-09T21:22:08Z</time>
      </trkpt>
      <trkpt lat="40.76076" lon="-73.98431">
        <ele>422</ele>
        <time>2012-04-09T21:22:09Z</time>
      </trkpt>
      <trkpt lat="40.76077" lon="-73.9843">
        <ele>426</ele>
        <time>2012-04-09T21:22:10Z</time>
      </trkpt>
      <trkpt lat="40.76084" lon="-73.98433">
        <ele>430</ele>
        <time>2012-04-09T21:22:11Z</time>
      </trkpt>
      <trkpt lat="40.7609" lon="-73.98435">
        <ele>434</ele>
        <time>2012-04-09T21:22:12Z</time>
      </trkpt>
      <trkpt lat="40.76092" lon="-73.98434">
        <ele>437</ele>
        <time>2012-04-09T21:22:13Z</time>
      </trkpt>
      <trkpt lat="40.76095" lon="-73.98434">
        <ele>443</ele>
        <time>2012-04-09T21:22:15Z</time>
      </trkpt>
      <trkpt lat="40.76097" lon="-73.98433">
        <ele>446</ele>
        <time>2012-04-09T21:22:16Z</time>
      </trkpt>
      <trkpt lat="40.761" lon="-73.98434">
        <ele>448</ele>
        <time>2012-04-09T21:22:17Z</time>
      </trkpt>
      <trkpt lat="40.76103" lon="-73.98435">
        <ele>450</ele>
        <time>2012-04-09T21:22:18Z</time>
      </trkpt>
      <trkpt lat="40.76105" lon="-73.98438">
        <ele>452</ele>
        <time>2012-04-09T21:22:19Z</time>
      </trkpt>
      <trkpt lat="40.76108" lon="-73.98439">
        <ele>454</ele>
        <time>2012-04-09T21:22:20Z</time>
      </trkpt>
      <trkpt lat="40.76111" lon="-73.9844">
        <ele>456</ele>
        <time>2012-04-09T21:22:21Z</time>
      </trkpt>
      <trkpt lat="40.76112" lon="-73.98441">
        <ele>460</ele>
        <time>2012-04-09T21:22:23Z</time>
      </trkpt>
      <trkpt lat="40.76114" lon="-73.98442">
        <ele>462</ele>
        <time>2012-04-09T21:22:24Z</time>
      </trkpt>
      <trkpt lat="40.76115" lon="-73.98443">
        <ele>464</ele>
        <time>2012-04-09T21:22:25Z</time>
      </trkpt>
      <trkpt lat="40.76117" lon="-73.98444">
        <ele>466</ele>
        <time>2012-04-09T21:22:26Z</time>
      </trkpt>
      <trkpt lat="40.76119" lon="-73.98444">
        <ele>468</ele>
        <time>2012-04-09T21:22:27Z</time>
      </trkpt>
      <trkpt lat="40.76121" lon="-73.98445">
        <ele>470</ele>
        <time>2012-04-09T21:22:28Z</time>
      </trkpt>
      <trkpt lat="40.76123" lon="-73.98448">
        <ele>474</ele>
        <time>2012-04-09T21:22:32Z</time>
      </trkpt>
      <trkpt lat="40.7612" lon="-73.98447">
        <ele>476</ele>
        <time>2012-04-09T21:22:33Z</time>
      </trkpt>
      <trkpt lat="40.76117" lon="-73.98447">
        <ele>478</ele>
        <time>2012-04-09T21:22:34Z</time>
      </trkpt>
      <trkpt lat="40.76108" lon="-73.98439">
        <ele>481</ele>
        <time>2012-04-09T21:22:36Z</time>
      </trkpt>
      <trkpt lat="40.76113" lon="-73.98444">
        <ele>482</ele>
        <time>2012-04-09T21:22:37Z</time>
      </trkpt>
      <trkpt lat="40.76118" lon="-73.9845">
        <ele>483</ele>
        <time>2012-04-09T21:22:41Z</time>
      </trkpt>
      <trkpt lat="40.76115" lon="-73.98454">
        <ele>483</ele>
        <time>2012-04-09T21:22:42Z</time>
      </trkpt>
      <trkpt lat="40.76116" lon="-73.98457">
        <ele>483</ele>
        <time>2012-04-09T21:22:43Z</time>
      </trkpt>
      <trkpt lat="40.76112" lon="-73.98468">
        <ele>483</ele>
        <time>2012-04-09T21:22:44Z</time>
      </trkpt>
      <trkpt lat="40.76112" lon="-73.9847">
        <ele>483</ele>
        <time>2012-04-09T21:22:45Z</time>
      </trkpt>
      <trkpt lat="40.76114" lon="-73.9847">
        <ele>483</ele>
        <time>2012-04-09T21:22:46Z</time>
      </trkpt>
      <trkpt lat="40.76121" lon="-73.98469">
        <ele>483</ele>
        <time>2012-04-09T21:22:50Z</time>
      </trkpt>
      <trkpt lat="40.76092" lon="-73.98431">
        <ele>488</ele>
        <time>2012-04-09T21:23:57Z</time>
      </trkpt>
      <trkpt lat="40.76088" lon="-73.98429">
        <ele>498</ele>
        <time>2012-04-09T21:24:01Z</time>
      </trkpt>
      <trkpt lat="40.76086" lon="-73.9843">
        <ele>529</ele>
        <time>2012-04-09T21:24:03Z</time>
      </trkpt>
      <trkpt lat="40.75933" lon="-73.98309">
        <ele>546</ele>
        <time>2012-04-09T21:25:48Z</time>
      </trkpt>
      <trkpt lat="40.75935" lon="-73.98312">
        <ele>556</ele>
        <time>2012-04-09T21:25:49Z</time>
      </trkpt>
      <trkpt lat="40.7594" lon="-73.98342">
        <ele>560</ele>
        <time>2012-04-09T21:25:58Z</time>
      </trkpt>
      <trkpt lat="40.75942" lon="-73.98351">
        <ele>557</ele>
        <time>2012-04-09T21:25:59Z</time>
      </trkpt>
      <trkpt lat="40.75943" lon="-73.98358">
        <ele>549</ele>
        <time>2012-04-09T21:26:00Z</time>
      </trkpt>
      <trkpt lat="40.75943" lon="-73.98367">
        <ele>540</ele>
        <time>2012-04-09T21:26:01Z</time>
      </trkpt>
      <trkpt lat="40.75945" lon="-73.98376">
        <ele>529</ele>
        <time>2012-04-09T21:26:02Z</time>
      </trkpt>
      <trkpt lat="40.75949" lon="-73.98398">
        <ele>518</ele>
        <time>2012-04-09T21:26:05Z</time>
      </trkpt>
      <trkpt lat="40.75952" lon="-73.98404">
        <ele>507</ele>
        <time>2012-04-09T21:26:06Z</time>
      </trkpt>
      <trkpt lat="40.76017" lon="-73.98543">
        <ele>490</ele>
        <time>2012-04-09T21:26:07Z</time>
      </trkpt>
      <trkpt lat="40.76026" lon="-73.98569">
        <ele>467</ele>
        <time>2012-04-09T21:26:08Z</time>
      </trkpt>
      <trkpt lat="40.76028" lon="-73.98576">
        <ele>439</ele>
        <time>2012-04-09T21:26:09Z</time>
      </trkpt>
      <trkpt lat="40.7603" lon="-73.98585">
        <ele>407</ele>
        <time>2012-04-09T21:26:10Z</time>
      </trkpt>
      <trkpt lat="40.76038" lon="-73.98594">
        <ele>372</ele>
        <time>2012-04-09T21:26:11Z</time>
      </trkpt>
      <trkpt lat="40.76032" lon="-73.98589">
        <ele>340</ele>
        <time>2012-04-09T21:26:12Z</time>
      </trkpt>
      <trkpt lat="40.76028" lon="-73.98586">
        <ele>312</ele>
        <time>2012-04-09T21:26:13Z</time>
      </trkpt>
      <trkpt lat="40.76023" lon="-73.98585">
        <ele>287</ele>
        <time>2012-04-09T21:26:14Z</time>
      </trkpt>
      <trkpt lat="40.76023" lon="-73.98586">
        <ele>266</ele>
        <time>2012-04-09T21:26:15Z</time>
      </trkpt>
      <trkpt lat="40.7602" lon="-73.98586">
        <ele>249</ele>
        <time>2012-04-09T21:26:16Z</time>
      </trkpt>
      <trkpt lat="40.76019" lon="-73.98587">
        <ele>234</ele>
        <time>2012-04-09T21:26:17Z</time>
      </trkpt>
      <trkpt lat="40.76017" lon="-73.98586">
        <ele>221</ele>
        <time>2012-04-09T21:26:18Z</time>
      </trkpt>
      <trkpt lat="40.76015" lon="-73.98585">
        <ele>210</ele>
        <time>2012-04-09T21:26:19Z</time>
      </trkpt>
      <trkpt lat="40.75943" lon="-73.98747">
        <ele>164</ele>
        <time>2012-04-09T21:27:13Z</time>
      </trkpt>
      <trkpt lat="40.75944" lon="-73.98754">
        <ele>159</ele>
        <time>2012-04-09T21:27:14Z</time>
      </trkpt>
      <trkpt lat="40.75949" lon="-73.98758">
        <ele>156</ele>
        <time>2012-04-09T21:27:15Z</time>
      </trkpt>
      <trkpt lat="40.75951" lon="-73.98759">
        <ele>154</ele>
        <time>2012-04-09T21:27:16Z</time>
      </trkpt>
      <trkpt lat="40.75947" lon="-73.98761">
        <ele>154</ele>
        <time>2012-04-09T21:27:17Z</time>
      </trkpt>
      <trkpt lat="40.75947" lon="-73.98757">
        <ele>157</ele>
        <time>2012-04-09T21:27:20Z</time>
      </trkpt>
      <trkpt lat="40.75946" lon="-73.98756">
        <ele>159</ele>
        <time>2012-04-09T21:27:21Z</time>
      </trkpt>
      <trkpt lat="40.75949" lon="-73.98747">
        <ele>162</ele>
        <time>2012-04-09T21:27:27Z</time>
      </trkpt>
      <trkpt lat="40.75914" lon="-73.9876">
        <ele>165</ele>
        <time>2012-04-09T21:27:49Z</time>
      </trkpt>
      <trkpt lat="40.75914" lon="-73.98763">
        <ele>168</ele>
        <time>2012-04-09T21:27:50Z</time>
      </trkpt>
      <trkpt lat="40.75914" lon="-73.98764">
        <ele>171</ele>
        <time>2012-04-09T21:27:51Z</time>
      </trkpt>
      <trkpt lat="40.75914" lon="-73.98766">
        <ele>177</ele>
        <time>2012-04-09T21:27:53Z</time>
      </trkpt>
      <trkpt lat="40.75916" lon="-73.9877">
        <ele>183</ele>
        <time>2012-04-09T21:27:55Z</time>
      </trkpt>
      <trkpt lat="40.75917" lon="-73.98772">
        <ele>191</ele>
        <time>2012-04-09T21:28:01Z</time>
      </trkpt>
      <trkpt lat="40.75917" lon="-73.98769">
        <ele>194</ele>
        <time>2012-04-09T21:28:03Z</time>
      </trkpt>
      <trkpt lat="40.75915" lon="-73.98767">
        <ele>196</ele>
        <time>2012-04-09T21:28:05Z</time>
      </trkpt>
      <trkpt lat="40.75913" lon="-73.98767">
        <ele>196</ele>
        <time>2012-04-09T21:28:06Z</time>
      </trkpt>
      <trkpt lat="40.75912" lon="-73.98766">
        <ele>196</ele>
        <time>2012-04-09T21:28:07Z</time>
      </trkpt>
      <trkpt lat="40.75911" lon="-73.98766">
        <ele>196</ele>
        <time>2012-04-09T21:28:08Z</time>
      </trkpt>
      <trkpt lat="40.75911" lon="-73.98765">
        <ele>196</ele>
        <time>2012-04-09T21:28:09Z</time>
      </trkpt>
      <trkpt lat="40.7591" lon="-73.98767">
        <ele>196</ele>
        <time>2012-04-09T21:28:10Z</time>
      </trkpt>
      <trkpt lat="40.75909" lon="-73.98769">
        <ele>196</ele>
        <time>2012-04-09T21:28:12Z</time>
      </trkpt>
      <trkpt lat="40.75907" lon="-73.98771">
        <ele>196</ele>
        <time>2012-04-09T21:28:14Z</time>
      </trkpt>
      <trkpt lat="40.75905" lon="-73.98772">
        <ele>196</ele>
        <time>2012-04-09T21:28:16Z</time>
      </trkpt>
      <trkpt lat="40.75904" lon="-73.98772">
        <ele>196</ele>
        <time>2012-04-09T21:28:18Z</time>
      </trkpt>
      <trkpt lat="40.75904" lon="-73.98772">
        <ele>196</ele>
        <time>2012-04-09T21:28:23Z</time>
      </trkpt>
      <trkpt lat="40.75905" lon="-73.98773">
        <ele>196</ele>
        <time>2012-04-09T21:28:27Z</time>
      </trkpt>
      <trkpt lat="40.75904" lon="-73.98773">
        <ele>196</ele>
        <time>2012-04-09T21:28:30Z</time>
      </trkpt>
      <trkpt lat="40.75903" lon="-73.98773">
        <ele>196</ele>
        <time>2012-04-09T21:28:33Z</time>
      </trkpt>
      <trkpt lat="40.759" lon="-73.98775">
        <ele>195</ele>
        <time>2012-04-09T21:28:35Z</time>
      </trkpt>
      <trkpt lat="40.75898" lon="-73.98775">
        <ele>195</ele>
        <time>2012-04-09T21:28:37Z</time>
      </trkpt>
      <trkpt lat="40.759" lon="-73.98773">
        <ele>198</ele>
        <time>2012-04-09T21:28:42Z</time>
      </trkpt>
      <trkpt lat="40.75901" lon="-73.98772">
        <ele>199</ele>
        <time>2012-04-09T21:28:43Z</time>
      </trkpt>
      <trkpt lat="40.75898" lon="-73.9877">
        <ele>201</ele>
        <time>2012-04-09T21:28:44Z</time>
      </trkpt>
      <trkpt lat="40.75898" lon="-73.98768">
        <ele>203</ele>
        <time>2012-04-09T21:28:45Z</time>
      </trkpt>
      <trkpt lat="40.75898" lon="-73.98766">
        <ele>212</ele>
        <time>2012-04-09T21:28:49Z</time>
      </trkpt>
      <trkpt lat="40.75898" lon="-73.98764">
        <ele>215</ele>
        <time>2012-04-09T21:28:50Z</time>
      </trkpt>
      <trkpt lat="40.75899" lon="-73.98763">
        <ele>218</ele>
        <time>2012-04-09T21:28:51Z</time>
      </trkpt>
      <trkpt lat="40.759" lon="-73.9876">
        <ele>221</ele>
        <time>2012-04-09T21:28:52Z</time>
      </trkpt>
      <trkpt lat="40.759" lon="-73.98758">
        <ele>224</ele>
        <time>2012-04-09T21:28:53Z</time>
      </trkpt>
      <trkpt lat="40.75898" lon="-73.98756">
        <ele>227</ele>
        <time>2012-04-09T21:28:54Z</time>
      </trkpt>
      <trkpt lat="40.75896" lon="-73.98755">
        <ele>230</ele>
        <time>2012-04-09T21:28:55Z</time>
      </trkpt>
      <trkpt lat="40.75895" lon="-73.98753">
        <ele>233</ele>
        <time>2012-04-09T21:28:56Z</time>
      </trkpt>
      <trkpt lat="40.75894" lon="-73.9875">
        <ele>236</ele>
        <time>2012-04-09T21:28:57Z</time>
      </trkpt>
      <trkpt lat="40.75893" lon="-73.98746">
        <ele>239</ele>
        <time>2012-04-09T21:28:58Z</time>
      </trkpt>
      <trkpt lat="40.75893" lon="-73.98743">
        <ele>242</ele>
        <time>2012-04-09T21:28:59Z</time>
      </trkpt>
      <trkpt lat="40.75891" lon="-73.9874">
        <ele>244</ele>
        <time>2012-04-09T21:29:00Z</time>
      </trkpt>
      <trkpt lat="40.75892" lon="-73.98734">
        <ele>246</ele>
        <time>2012-04-09T21:29:01Z</time>
      </trkpt>
      <trkpt lat="40.75892" lon="-73.98731">
        <ele>248</ele>
        <time>2012-04-09T21:29:02Z</time>
      </trkpt>
      <trkpt lat="40.75893" lon="-73.98728">
        <ele>250</ele>
        <time>2012-04-09T21:29:03Z</time>
      </trkpt>
      <trkpt lat="40.75895" lon="-73.98724">
        <ele>252</ele>
        <time>2012-04-09T21:29:04Z</time>
      </trkpt>
      <trkpt lat="40.75893" lon="-73.98722">
        <ele>253</ele>
        <time>2012-04-09T21:29:05Z</time>
      </trkpt>
      <trkpt lat="40.75892" lon="-73.98719">
        <ele>254</ele>
        <time>2012-04-09T21:29:06Z</time>
      </trkpt>
      <trkpt lat="40.75892" lon="-73.98717">
        <ele>255</ele>
        <time>2012-04-09T21:29:07Z</time>
      </trkpt>
      <trkpt lat="40.75892" lon="-73.98714">
        <ele>256</ele>
        <time>2012-04-09T21:29:08Z</time>
      </trkpt>
      <trkpt lat="40.75892" lon="-73.98712">
        <ele>257</ele>
        <time>2012-04-09T21:29:09Z</time>
      </trkpt>
      <trkpt lat="40.75893" lon="-73.9871">
        <ele>258</ele>
        <time>2012-04-09T21:29:10Z</time>
      </trkpt>
      <trkpt lat="40.75894" lon="-73.98708">
        <ele>259</ele>
        <time>2012-04-09T21:29:12Z</time>
      </trkpt>
      <trkpt lat="40.75895" lon="-73.98705">
        <ele>259</ele>
        <time>2012-04-09T21:29:13Z</time>
      </trkpt>
      <trkpt lat="40.75895" lon="-73.98704">
        <ele>259</ele>
        <time>2012-04-09T21:29:14Z</time>
      </trkpt>
      <trkpt lat="40.75896" lon="-73.98702">
        <ele>259</ele>
        <time>2012-04-09T21:29:15Z</time>
      </trkpt>
      <trkpt lat="40.75897" lon="-73.987">
        <ele>258</ele>
        <time>2012-04-09T21:29:16Z</time>
      </trkpt>
      <trkpt lat="40.759" lon="-73.98698">
        <ele>257</ele>
        <time>2012-04-09T21:29:17Z</time>
      </trkpt>
      <trkpt lat="40.75901" lon="-73.98695">
        <ele>256</ele>
        <time>2012-04-09T21:29:18Z</time>
      </trkpt>
      <trkpt lat="40.75903" lon="-73.98692">
        <ele>255</ele>
        <time>2012-04-09T21:29:19Z</time>
      </trkpt>
      <trkpt lat="40.75904" lon="-73.9869">
        <ele>255</ele>
        <time>2012-04-09T21:29:20Z</time>
      </trkpt>
      <trkpt lat="40.75902" lon="-73.98689">
        <ele>255</ele>
        <time>2012-04-09T21:29:21Z</time>
      </trkpt>
      <trkpt lat="40.75901" lon="-73.98686">
        <ele>254</ele>
        <time>2012-04-09T21:29:22Z</time>
      </trkpt>
      <trkpt lat="40.75899" lon="-73.98684">
        <ele>253</ele>
        <time>2012-04-09T21:29:23Z</time>
      </trkpt>
      <trkpt lat="40.75897" lon="-73.98682">
        <ele>252</ele>
        <time>2012-04-09T21:29:24Z</time>
      </trkpt>
      <trkpt lat="40.75892" lon="-73.98681">
        <ele>251</ele>
        <time>2012-04-09T21:29:25Z</time>
      </trkpt>
      <trkpt lat="40.7589" lon="-73.98679">
        <ele>250</ele>
        <time>2012-04-09T21:29:26Z</time>
      </trkpt>
      <trkpt lat="40.7589" lon="-73.98676">
        <ele>249</ele>
        <time>2012-04-09T21:29:27Z</time>
      </trkpt>
      <trkpt lat="40.7589" lon="-73.98669">
        <ele>248</ele>
        <time>2012-04-09T21:29:29Z</time>
      </trkpt>
      <trkpt lat="40.7589" lon="-73.98666">
        <ele>247</ele>
        <time>2012-04-09T21:29:30Z</time>
      </trkpt>
      <trkpt lat="40.75891" lon="-73.98663">
        <ele>245</ele>
        <time>2012-04-09T21:29:31Z</time>
      </trkpt>
      <trkpt lat="40.75892" lon="-73.98661">
        <ele>242</ele>
        <time>2012-04-09T21:29:32Z</time>
      </trkpt>
      <trkpt lat="40.7589" lon="-73.98659">
        <ele>235</ele>
        <time>2012-04-09T21:29:34Z</time>
      </trkpt>
      <trkpt lat="40.75889" lon="-73.98657">
        <ele>231</ele>
        <time>2012-04-09T21:29:35Z</time>
      </trkpt>
      <trkpt lat="40.75892" lon="-73.9865">
        <ele>227</ele>
        <time>2012-04-09T21:29:36Z</time>
      </trkpt>
      <trkpt lat="40.75893" lon="-73.98645">
        <ele>223</ele>
        <time>2012-04-09T21:29:37Z</time>
      </trkpt>
      <trkpt lat="40.75893" lon="-73.9864">
        <ele>218</ele>
        <time>2012-04-09T21:29:38Z</time>
      </trkpt>
      <trkpt lat="40.75894" lon="-73.98635">
        <ele>213</ele>
        <time>2012-04-09T21:29:39Z</time>
      </trkpt>
      <trkpt lat="40.75893" lon="-73.98611">
        <ele>206</ele>
        <time>2012-04-09T21:29:52Z</time>
      </trkpt>
      <trkpt lat="40.75894" lon="-73.98607">
        <ele>198</ele>
        <time>2012-04-09T21:29:56Z</time>
      </trkpt>
      <trkpt lat="40.75906" lon="-73.98607">
        <ele>189</ele>
        <time>2012-04-09T21:30:10Z</time>
      </trkpt>
      <trkpt lat="40.75903" lon="-73.98604">
        <ele>180</ele>
        <time>2012-04-09T21:30:11Z</time>
      </trkpt>
      <trkpt lat="40.759" lon="-73.98602">
        <ele>171</ele>
        <time>2012-04-09T21:30:12Z</time>
      </trkpt>
      <trkpt lat="40.75897" lon="-73.98599">
        <ele>164</ele>
        <time>2012-04-09T21:30:13Z</time>
      </trkpt>
      <trkpt lat="40.75895" lon="-73.98598">
        <ele>159</ele>
        <time>2012-04-09T21:30:14Z</time>
      </trkpt>
      <trkpt lat="40.75894" lon="-73.98598">
        <ele>155</ele>
        <time>2012-04-09T21:30:15Z</time>
      </trkpt>
      <trkpt lat="40.75892" lon="-73.98595">
        <ele>152</ele>
        <time>2012-04-09T21:30:16Z</time>
      </trkpt>
      <trkpt lat="40.7589" lon="-73.98595">
        <ele>150</ele>
        <time>2012-04-09T21:30:19Z</time>
      </trkpt>
      <trkpt lat="40.75888" lon="-73.98596">
        <ele>149</ele>
        <time>2012-04-09T21:30:21Z</time>
      </trkpt>
      <trkpt lat="40.75885" lon="-73.98598">
        <ele>152</ele>
        <time>2012-04-09T21:30:25Z</time>
      </trkpt>
      <trkpt lat="40.75884" lon="-73.98599">
        <ele>153</ele>
        <time>2012-04-09T21:30:26Z</time>
      </trkpt>
      <trkpt lat="40.75882" lon="-73.98602">
        <ele>155</ele>
        <time>2012-04-09T21:30:27Z</time>
      </trkpt>
      <trkpt lat="40.75885" lon="-73.98604">
        <ele>159</ele>
        <time>2012-04-09T21:30:29Z</time>
      </trkpt>
      <trkpt lat="40.75887" lon="-73.98605">
        <ele>161</ele>
        <time>2012-04-09T21:30:30Z</time>
      </trkpt>
      <trkpt lat="40.75887" lon="-73.98608">
        <ele>163</ele>
        <time>2012-04-09T21:30:31Z</time>
      </trkpt>
      <trkpt lat="40.75888" lon="-73.98609">
        <ele>164</ele>
        <time>2012-04-09T21:30:32Z</time>
      </trkpt>
      <trkpt lat="40.75889" lon="-73.9861">
        <ele>166</ele>
        <time>2012-04-09T21:30:33Z</time>
      </trkpt>
      <trkpt lat="40.7589" lon="-73.98618">
        <ele>168</ele>
        <time>2012-04-09T21:30:38Z</time>
      </trkpt>
      <trkpt lat="40.7589" lon="-73.98621">
        <ele>169</ele>
        <time>2012-04-09T21:30:39Z</time>
      </trkpt>
      <trkpt lat="40.7589" lon="-73.98625">
        <ele>170</ele>
        <time>2012-04-09T21:30:40Z</time>
      </trkpt>
      <trkpt lat="40.7589" lon="-73.9863">
        <ele>171</ele>
        <time>2012-04-09T21:30:41Z</time>
      </trkpt>
      <trkpt lat="40.75889" lon="-73.98632">
        <ele>172</ele>
        <time>2012-04-09T21:30:42Z</time>
      </trkpt>
      <trkpt lat="40.75888" lon="-73.98636">
        <ele>173</ele>
        <time>2012-04-09T21:30:43Z</time>
      </trkpt>
      <trkpt lat="40.75886" lon="-73.98639">
        <ele>173</ele>
        <time>2012-04-09T21:30:44Z</time>
      </trkpt>
      <trkpt lat="40.75885" lon="-73.98642">
        <ele>173</ele>
        <time>2012-04-09T21:30:45Z</time>
      </trkpt>
      <trkpt lat="40.75884" lon="-73.98646">
        <ele>173</ele>
        <time>2012-04-09T21:30:46Z</time>
      </trkpt>
      <trkpt lat="40.75882" lon="-73.98648">
        <ele>173</ele>
        <time>2012-04-09T21:30:47Z</time>
      </trkpt>
      <trkpt lat="40.7588" lon="-73.9865">
        <ele>173</ele>
        <time>2012-04-09T21:30:48Z</time>
      </trkpt>
      <trkpt lat="40.75877" lon="-73.98653">
        <ele>173</ele>
        <time>2012-04-09T21:30:49Z</time>
      </trkpt>
      <trkpt lat="40.75876" lon="-73.98653">
        <ele>173</ele>
        <time>2012-04-09T21:30:50Z</time>
      </trkpt>
      <trkpt lat="40.75873" lon="-73.98655">
        <ele>173</ele>
        <time>2012-04-09T21:30:51Z</time>
      </trkpt>
      <trkpt lat="40.75871" lon="-73.98656">
        <ele>173</ele>
        <time>2012-04-09T21:30:52Z</time>
      </trkpt>
      <trkpt lat="40.75869" lon="-73.98659">
        <ele>173</ele>
        <time>2012-04-09T21:30:53Z</time>
      </trkpt>
      <trkpt lat="40.75866" lon="-73.98661">
        <ele>173</ele>
        <time>2012-04-09T21:30:54Z</time>
      </trkpt>
      <trkpt lat="40.75864" lon="-73.98663">
        <ele>173</ele>
        <time>2012-04-09T21:30:55Z</time>
      </trkpt>
      <trkpt lat="40.75862" lon="-73.98666">
        <ele>173</ele>
        <time>2012-04-09T21:30:56Z</time>
      </trkpt>
      <trkpt lat="40.7586" lon="-73.98667">
        <ele>173</ele>
        <time>2012-04-09T21:30:57Z</time>
      </trkpt>
      <trkpt lat="40.75858" lon="-73.98669">
        <ele>173</ele>
        <time>2012-04-09T21:30:58Z</time>
      </trkpt>
      <trkpt lat="40.75855" lon="-73.98671">
        <ele>172</ele>
        <time>2012-04-09T21:30:59Z</time>
      </trkpt>
      <trkpt lat="40.75853" lon="-73.98673">
        <ele>172</ele>
        <time>2012-04-09T21:31:00Z</time>
      </trkpt>
      <trkpt lat="40.7585" lon="-73.98679">
        <ele>172</ele>
        <time>2012-04-09T21:31:01Z</time>
      </trkpt>
      <trkpt lat="40.7585" lon="-73.98682">
        <ele>171</ele>
        <time>2012-04-09T21:31:02Z</time>
      </trkpt>
      <trkpt lat="40.7585" lon="-73.98685">
        <ele>171</ele>
        <time>2012-04-09T21:31:03Z</time>
      </trkpt>
      <trkpt lat="40.7585" lon="-73.98689">
        <ele>170</ele>
        <time>2012-04-09T21:31:04Z</time>
      </trkpt>
      <trkpt lat="40.75852" lon="-73.98691">
        <ele>169</ele>
        <time>2012-04-09T21:31:05Z</time>
      </trkpt>
      <trkpt lat="40.75853" lon="-73.98692">
        <ele>168</ele>
        <time>2012-04-09T21:31:06Z</time>
      </trkpt>
      <trkpt lat="40.75855" lon="-73.98695">
        <ele>167</ele>
        <time>2012-04-09T21:31:07Z</time>
      </trkpt>
      <trkpt lat="40.75856" lon="-73.98697">
        <ele>166</ele>
        <time>2012-04-09T21:31:08Z</time>
      </trkpt>
      <trkpt lat="40.75855" lon="-73.98698">
        <ele>165</ele>
        <time>2012-04-09T21:31:09Z</time>
      </trkpt>
      <trkpt lat="40.75854" lon="-73.98699">
        <ele>164</ele>
        <time>2012-04-09T21:31:10Z</time>
      </trkpt>
      <trkpt lat="40.75856" lon="-73.98699">
        <ele>163</ele>
        <time>2012-04-09T21:31:11Z</time>
      </trkpt>
      <trkpt lat="40.75858" lon="-73.98698">
        <ele>162</ele>
        <time>2012-04-09T21:31:12Z</time>
      </trkpt>
      <trkpt lat="40.75856" lon="-73.98699">
        <ele>161</ele>
        <time>2012-04-09T21:31:13Z</time>
      </trkpt>
      <trkpt lat="40.7585" lon="-73.98704">
        <ele>160</ele>
        <time>2012-04-09T21:31:15Z</time>
      </trkpt>
      <trkpt lat="40.75848" lon="-73.98707">
        <ele>159</ele>
        <time>2012-04-09T21:31:16Z</time>
      </trkpt>
      <trkpt lat="40.75848" lon="-73.98709">
        <ele>157</ele>
        <time>2012-04-09T21:31:18Z</time>
      </trkpt>
      <trkpt lat="40.75849" lon="-73.98711">
        <ele>154</ele>
        <time>2012-04-09T21:31:20Z</time>
      </trkpt>
      <trkpt lat="40.7585" lon="-73.98711">
        <ele>150</ele>
        <time>2012-04-09T21:31:22Z</time>
      </trkpt>
      <trkpt lat="40.75852" lon="-73.9871">
        <ele>147</ele>
        <time>2012-04-09T21:31:24Z</time>
      </trkpt>
      <trkpt lat="40.75854" lon="-73.98708">
        <ele>143</ele>
        <time>2012-04-09T21:31:26Z</time>
      </trkpt>
      <trkpt lat="40.75855" lon="-73.98705">
        <ele>139</ele>
        <time>2012-04-09T21:31:28Z</time>
      </trkpt>
      <trkpt lat="40.75854" lon="-73.98701">
        <ele>137</ele>
        <time>2012-04-09T21:31:30Z</time>
      </trkpt>
      <trkpt lat="40.75854" lon="-73.987">
        <ele>135</ele>
        <time>2012-04-09T21:31:31Z</time>
      </trkpt>
      <trkpt lat="40.75853" lon="-73.98698">
        <ele>133</ele>
        <time>2012-04-09T21:31:32Z</time>
      </trkpt>
      <trkpt lat="40.75853" lon="-73.98696">
        <ele>131</ele>
        <time>2012-04-09T21:31:34Z</time>
      </trkpt>
      <trkpt lat="40.75855" lon="-73.98694">
        <ele>129</ele>
        <time>2012-04-09T21:31:35Z</time>
      </trkpt>
      <trkpt lat="40.75855" lon="-73.98692">
        <ele>127</ele>
        <time>2012-04-09T21:31:36Z</time>
      </trkpt>
      <trkpt lat="40.75853" lon="-73.98692">
        <ele>122</ele>
        <time>2012-04-09T21:31:40Z</time>
      </trkpt>
      <trkpt lat="40.75851" lon="-73.98692">
        <ele>121</ele>
        <time>2012-04-09T21:31:41Z</time>
      </trkpt>
      <trkpt lat="40.75851" lon="-73.98695">
        <ele>119</ele>
        <time>2012-04-09T21:31:44Z</time>
      </trkpt>
      <trkpt lat="40.75851" lon="-73.98698">
        <ele>119</ele>
        <time>2012-04-09T21:31:45Z</time>
      </trkpt>
      <trkpt lat="40.75849" lon="-73.98697">
        <ele>119</ele>
        <time>2012-04-09T21:31:46Z</time>
      </trkpt>
      <trkpt lat="40.75848" lon="-73.98695">
        <ele>119</ele>
        <time>2012-04-09T21:31:48Z</time>
      </trkpt>
      <trkpt lat="40.75847" lon="-73.98694">
        <ele>119</ele>
        <time>2012-04-09T21:31:49Z</time>
      </trkpt>
      <trkpt lat="40.7585" lon="-73.98696">
        <ele>119</ele>
        <time>2012-04-09T21:31:55Z</time>
      </trkpt>
      <trkpt lat="40.75848" lon="-73.98696">
        <ele>121</ele>
        <time>2012-04-09T21:31:57Z</time>
      </trkpt>
      <trkpt lat="40.75846" lon="-73.98696">
        <ele>122</ele>
        <time>2012-04-09T21:31:58Z</time>
      </trkpt>
      <trkpt lat="40.75848" lon="-73.98696">
        <ele>125</ele>
        <time>2012-04-09T21:32:01Z</time>
      </trkpt>
      <trkpt lat="40.75848" lon="-73.98699">
        <ele>126</ele>
        <time>2012-04-09T21:32:02Z</time>
      </trkpt>
      <trkpt lat="40.75845" lon="-73.98699">
        <ele>129</ele>
        <time>2012-04-09T21:32:05Z</time>
      </trkpt>
      <trkpt lat="40.75844" lon="-73.98703">
        <ele>130</ele>
        <time>2012-04-09T21:32:06Z</time>
      </trkpt>
      <trkpt lat="40.75843" lon="-73.98705">
        <ele>132</ele>
        <time>2012-04-09T21:32:08Z</time>
      </trkpt>
      <trkpt lat="40.75844" lon="-73.98708">
        <ele>133</ele>
        <time>2012-04-09T21:32:09Z</time>
      </trkpt>
      <trkpt lat="40.75843" lon="-73.98712">
        <ele>134</ele>
        <time>2012-04-09T21:32:10Z</time>
      </trkpt>
      <trkpt lat="40.75844" lon="-73.98714">
        <ele>135</ele>
        <time>2012-04-09T21:32:11Z</time>
      </trkpt>
      <trkpt lat="40.75849" lon="-73.98725">
        <ele>137</ele>
        <time>2012-04-09T21:32:14Z</time>
      </trkpt>
      <trkpt lat="40.75849" lon="-73.98727">
        <ele>139</ele>
        <time>2012-04-09T21:32:15Z</time>
      </trkpt>
      <trkpt lat="40.75847" lon="-73.98725">
        <ele>144</ele>
        <time>2012-04-09T21:32:17Z</time>
      </trkpt>
      <trkpt lat="40.75848" lon="-73.98725">
        <ele>151</ele>
        <time>2012-04-09T21:32:20Z</time>
      </trkpt>
      <trkpt lat="40.75848" lon="-73.98721">
        <ele>153</ele>
        <time>2012-04-09T21:32:21Z</time>
      </trkpt>
      <trkpt lat="40.75846" lon="-73.98719">
        <ele>157</ele>
        <time>2012-04-09T21:32:23Z</time>
      </trkpt>
      <trkpt lat="40.75845" lon="-73.98718">
        <ele>158</ele>
        <time>2012-04-09T21:32:24Z</time>
      </trkpt>
      <trkpt lat="40.75846" lon="-73.98717">
        <ele>160</ele>
        <time>2012-04-09T21:32:26Z</time>
      </trkpt>
      <trkpt lat="40.75845" lon="-73.98715">
        <ele>161</ele>
        <time>2012-04-09T21:32:28Z</time>
      </trkpt>
      <trkpt lat="40.75842" lon="-73.98713">
        <ele>161</ele>
        <time>2012-04-09T21:32:29Z</time>
      </trkpt>
      <trkpt lat="40.7584" lon="-73.98711">
        <ele>161</ele>
        <time>2012-04-09T21:32:30Z</time>
      </trkpt>
      <trkpt lat="40.75835" lon="-73.98705">
        <ele>161</ele>
        <time>2012-04-09T21:32:32Z</time>
      </trkpt>
      <trkpt lat="40.75833" lon="-73.98705">
        <ele>160</ele>
        <time>2012-04-09T21:32:33Z</time>
      </trkpt>
      <trkpt lat="40.75831" lon="-73.98702">
        <ele>159</ele>
        <time>2012-04-09T21:32:35Z</time>
      </trkpt>
      <trkpt lat="40.75829" lon="-73.98703">
        <ele>156</ele>
        <time>2012-04-09T21:32:38Z</time>
      </trkpt>
      <trkpt lat="40.75829" lon="-73.98706">
        <ele>155</ele>
        <time>2012-04-09T21:32:39Z</time>
      </trkpt>
      <trkpt lat="40.75829" lon="-73.98708">
        <ele>154</ele>
        <time>2012-04-09T21:32:41Z</time>
      </trkpt>
      <trkpt lat="40.75827" lon="-73.98711">
        <ele>153</ele>
        <time>2012-04-09T21:32:42Z</time>
      </trkpt>
      <trkpt lat="40.75826" lon="-73.98713">
        <ele>152</ele>
        <time>2012-04-09T21:32:43Z</time>
      </trkpt>
      <trkpt lat="40.75825" lon="-73.98718">
        <ele>152</ele>
        <time>2012-04-09T21:32:44Z</time>
      </trkpt>
      <trkpt lat="40.75823" lon="-73.9872">
        <ele>152</ele>
        <time>2012-04-09T21:32:45Z</time>
      </trkpt>
      <trkpt lat="40.75822" lon="-73.98717">
        <ele>152</ele>
        <time>2012-04-09T21:32:46Z</time>
      </trkpt>
      <trkpt lat="40.75819" lon="-73.98716">
        <ele>152</ele>
        <time>2012-04-09T21:32:47Z</time>
      </trkpt>
      <trkpt lat="40.75818" lon="-73.98714">
        <ele>152</ele>
        <time>2012-04-09T21:32:48Z</time>
      </trkpt>
      <trkpt lat="40.75817" lon="-73.98711">
        <ele>152</ele>
        <time>2012-04-09T21:32:49Z</time>
      </trkpt>
      <trkpt lat="40.75817" lon="-73.98708">
        <ele>151</ele>
        <time>2012-04-09T21:32:50Z</time>
      </trkpt>
      <trkpt lat="40.75816" lon="-73.98703">
        <ele>149</ele>
        <time>2012-04-09T21:32:51Z</time>
      </trkpt>
      <trkpt lat="40.75815" lon="-73.98698">
        <ele>147</ele>
        <time>2012-04-09T21:32:52Z</time>
      </trkpt>
      <trkpt lat="40.75814" lon="-73.98696">
        <ele>145</ele>
        <time>2012-04-09T21:32:53Z</time>
      </trkpt>
      <trkpt lat="40.75811" lon="-73.98695">
        <ele>139</ele>
        <time>2012-04-09T21:32:56Z</time>
      </trkpt>
      <trkpt lat="40.75811" lon="-73.98693">
        <ele>137</ele>
        <time>2012-04-09T21:32:57Z</time>
      </trkpt>
      <trkpt lat="40.7581" lon="-73.98692">
        <ele>133</ele>
        <time>2012-04-09T21:32:59Z</time>
      </trkpt>
      <trkpt lat="40.75809" lon="-73.98692">
        <ele>131</ele>
        <time>2012-04-09T21:33:01Z</time>
      </trkpt>
      <trkpt lat="40.75809" lon="-73.98689">
        <ele>129</ele>
        <time>2012-04-09T21:33:03Z</time>
      </trkpt>
      <trkpt lat="40.75808" lon="-73.98688">
        <ele>127</ele>
        <time>2012-04-09T21:33:05Z</time>
      </trkpt>
      <trkpt lat="40.75806" lon="-73.98688">
        <ele>126</ele>
        <time>2012-04-09T21:33:06Z</time>
      </trkpt>
      <trkpt lat="40.75804" lon="-73.98685">
        <ele>125</ele>
        <time>2012-04-09T21:33:07Z</time>
      </trkpt>
      <trkpt lat="40.75804" lon="-73.98682">
        <ele>124</ele>
        <time>2012-04-09T21:33:08Z</time>
      </trkpt>
      <trkpt lat="40.75804" lon="-73.98681">
        <ele>123</ele>
        <time>2012-04-09T21:33:09Z</time>
      </trkpt>
      <trkpt lat="40.75801" lon="-73.9868">
        <ele>121</ele>
        <time>2012-04-09T21:33:11Z</time>
      </trkpt>
      <trkpt lat="40.758" lon="-73.98678">
        <ele>120</ele>
        <time>2012-04-09T21:33:12Z</time>
      </trkpt>
      <trkpt lat="40.758" lon="-73.98676">
        <ele>120</ele>
        <time>2012-04-09T21:33:13Z</time>
      </trkpt>
      <trkpt lat="40.75798" lon="-73.98674">
        <ele>119</ele>
        <time>2012-04-09T21:33:15Z</time>
      </trkpt>
      <trkpt lat="40.75796" lon="-73.98674">
        <ele>118</ele>
        <time>2012-04-09T21:33:16Z</time>
      </trkpt>
      <trkpt lat="40.75795" lon="-73.98674">
        <ele>117</ele>
        <time>2012-04-09T21:33:17Z</time>
      </trkpt>
      <trkpt lat="40.75793" lon="-73.98672">
        <ele>117</ele>
        <time>2012-04-09T21:33:18Z</time>
      </trkpt>
      <trkpt lat="40.75792" lon="-73.98671">
        <ele>116</ele>
        <time>2012-04-09T21:33:19Z</time>
      </trkpt>
      <trkpt lat="40.75792" lon="-73.98669">
        <ele>115</ele>
        <time>2012-04-09T21:33:20Z</time>
      </trkpt>
      <trkpt lat="40.75791" lon="-73.98666">
        <ele>115</ele>
        <time>2012-04-09T21:33:21Z</time>
      </trkpt>
      <trkpt lat="40.7579" lon="-73.98666">
        <ele>114</ele>
        <time>2012-04-09T21:33:22Z</time>
      </trkpt>
      <trkpt lat="40.75788" lon="-73.98666">
        <ele>114</ele>
        <time>2012-04-09T21:33:23Z</time>
      </trkpt>
      <trkpt lat="40.75786" lon="-73.98665">
        <ele>113</ele>
        <time>2012-04-09T21:33:24Z</time>
      </trkpt>
      <trkpt lat="40.75785" lon="-73.98663">
        <ele>112</ele>
        <time>2012-04-09T21:33:25Z</time>
      </trkpt>
      <trkpt lat="40.75783" lon="-73.98663">
        <ele>110</ele>
        <time>2012-04-09T21:33:28Z</time>
      </trkpt>
      <trkpt lat="40.75781" lon="-73.98662">
        <ele>110</ele>
        <time>2012-04-09T21:33:32Z</time>
      </trkpt>
      <trkpt lat="40.7578" lon="-73.98662">
        <ele>112</ele>
        <time>2012-04-09T21:33:34Z</time>
      </trkpt>
      <trkpt lat="40.7578" lon="-73.9866">
        <ele>115</ele>
        <time>2012-04-09T21:33:37Z</time>
      </trkpt>
      <trkpt lat="40.7578" lon="-73.98663">
        <ele>121</ele>
        <time>2012-04-09T21:33:43Z</time>
      </trkpt>
      <trkpt lat="40.75702" lon="-73.98518">
        <ele>128</ele>
        <time>2012-04-09T21:38:25Z</time>
      </trkpt>
      <trkpt lat="40.75703" lon="-73.98521">
        <ele>129</ele>
        <time>2012-04-09T21:38:26Z</time>
      </trkpt>
      <trkpt lat="40.75705" lon="-73.98521">
        <ele>131</ele>
        <time>2012-04-09T21:38:27Z</time>
      </trkpt>
      <trkpt lat="40.75705" lon="-73.98521">
        <ele>133</ele>
        <time>2012-04-09T21:38:28Z</time>
      </trkpt>
      <trkpt lat="40.75711" lon="-73.98524">
        <ele>139</ele>
        <time>2012-04-09T21:38:30Z</time>
      </trkpt>
      <trkpt lat="40.75715" lon="-73.98524">
        <ele>142</ele>
        <time>2012-04-09T21:38:31Z</time>
      </trkpt>
      <trkpt lat="40.75714" lon="-73.98528">
        <ele>146</ele>
        <time>2012-04-09T21:38:32Z</time>
      </trkpt>
      <trkpt lat="40.75714" lon="-73.98529">
        <ele>154</ele>
        <time>2012-04-09T21:38:34Z</time>
      </trkpt>
      <trkpt lat="40.75713" lon="-73.98531">
        <ele>159</ele>
        <time>2012-04-09T21:38:35Z</time>
      </trkpt>
      <trkpt lat="40.75713" lon="-73.98533">
        <ele>164</ele>
        <time>2012-04-09T21:38:36Z</time>
      </trkpt>
      <trkpt lat="40.75716" lon="-73.98534">
        <ele>181</ele>
        <time>2012-04-09T21:38:40Z</time>
      </trkpt>
      <trkpt lat="40.75715" lon="-73.98536">
        <ele>187</ele>
        <time>2012-04-09T21:38:42Z</time>
      </trkpt>
      <trkpt lat="40.75713" lon="-73.98537">
        <ele>190</ele>
        <time>2012-04-09T21:38:43Z</time>
      </trkpt>
      <trkpt lat="40.75713" lon="-73.98539">
        <ele>196</ele>
        <time>2012-04-09T21:38:45Z</time>
      </trkpt>
      <trkpt lat="40.75713" lon="-73.98541">
        <ele>201</ele>
        <time>2012-04-09T21:38:47Z</time>
      </trkpt>
      <trkpt lat="40.75713" lon="-73.98544">
        <ele>204</ele>
        <time>2012-04-09T21:38:49Z</time>
      </trkpt>
      <trkpt lat="40.75712" lon="-73.98546">
        <ele>205</ele>
        <time>2012-04-09T21:38:50Z</time>
      </trkpt>
      <trkpt lat="40.75712" lon="-73.98549">
        <ele>205</ele>
        <time>2012-04-09T21:38:51Z</time>
      </trkpt>
      <trkpt lat="40.75708" lon="-73.98549">
        <ele>207</ele>
        <time>2012-04-09T21:38:53Z</time>
      </trkpt>
      <trkpt lat="40.75707" lon="-73.98549">
        <ele>208</ele>
        <time>2012-04-09T21:38:54Z</time>
      </trkpt>
      <trkpt lat="40.75711" lon="-73.98548">
        <ele>211</ele>
        <time>2012-04-09T21:38:57Z</time>
      </trkpt>
      <trkpt lat="40.75712" lon="-73.98548">
        <ele>213</ele>
        <time>2012-04-09T21:38:59Z</time>
      </trkpt>
      <trkpt lat="40.75714" lon="-73.98549">
        <ele>215</ele>
        <time>2012-04-09T21:39:01Z</time>
      </trkpt>
      <trkpt lat="40.75711" lon="-73.98549">
        <ele>216</ele>
        <time>2012-04-09T21:39:03Z</time>
      </trkpt>
      <trkpt lat="40.75709" lon="-73.9855">
        <ele>216</ele>
        <time>2012-04-09T21:39:05Z</time>
      </trkpt>
      <trkpt lat="40.75707" lon="-73.9855">
        <ele>216</ele>
        <time>2012-04-09T21:39:08Z</time>
      </trkpt>
      <trkpt lat="40.75705" lon="-73.9855">
        <ele>216</ele>
        <time>2012-04-09T21:39:09Z</time>
      </trkpt>
      <trkpt lat="40.75703" lon="-73.9855">
        <ele>216</ele>
        <time>2012-04-09T21:39:10Z</time>
      </trkpt>
      <trkpt lat="40.757" lon="-73.98555">
        <ele>217</ele>
        <time>2012-04-09T21:39:11Z</time>
      </trkpt>
      <trkpt lat="40.75698" lon="-73.98556">
        <ele>218</ele>
        <time>2012-04-09T21:39:12Z</time>
      </trkpt>
      <trkpt lat="40.75696" lon="-73.98559">
        <ele>219</ele>
        <time>2012-04-09T21:39:13Z</time>
      </trkpt>
      <trkpt lat="40.75693" lon="-73.98559">
        <ele>220</ele>
        <time>2012-04-09T21:39:14Z</time>
      </trkpt>
      <trkpt lat="40.7569" lon="-73.98559">
        <ele>221</ele>
        <time>2012-04-09T21:39:15Z</time>
      </trkpt>
      <trkpt lat="40.75688" lon="-73.98561">
        <ele>223</ele>
        <time>2012-04-09T21:39:16Z</time>
      </trkpt>
      <trkpt lat="40.75688" lon="-73.98563">
        <ele>225</ele>
        <time>2012-04-09T21:39:17Z</time>
      </trkpt>
      <trkpt lat="40.75687" lon="-73.98563">
        <ele>228</ele>
        <time>2012-04-09T21:39:18Z</time>
      </trkpt>
      <trkpt lat="40.75686" lon="-73.98561">
        <ele>240</ele>
        <time>2012-04-09T21:39:22Z</time>
      </trkpt>
      <trkpt lat="40.75687" lon="-73.98558">
        <ele>242</ele>
        <time>2012-04-09T21:39:23Z</time>
      </trkpt>
      <trkpt lat="40.75687" lon="-73.98556">
        <ele>244</ele>
        <time>2012-04-09T21:39:24Z</time>
      </trkpt>
      <trkpt lat="40.75688" lon="-73.98554">
        <ele>248</ele>
        <time>2012-04-09T21:39:26Z</time>
      </trkpt>
      <trkpt lat="40.75689" lon="-73.98552">
        <ele>250</ele>
        <time>2012-04-09T21:39:28Z</time>
      </trkpt>
      <trkpt lat="40.75689" lon="-73.9855">
        <ele>253</ele>
        <time>2012-04-09T21:39:31Z</time>
      </trkpt>
      <trkpt lat="40.75692" lon="-73.9855">
        <ele>256</ele>
        <time>2012-04-09T21:39:34Z</time>
      </trkpt>
      <trkpt lat="40.75693" lon="-73.98549">
        <ele>257</ele>
        <time>2012-04-09T21:39:35Z</time>
      </trkpt>
      <trkpt lat="40.75695" lon="-73.98549">
        <ele>259</ele>
        <time>2012-04-09T21:39:36Z</time>
      </trkpt>
      <trkpt lat="40.75697" lon="-73.98548">
        <ele>261</ele>
        <time>2012-04-09T21:39:37Z</time>
      </trkpt>
      <trkpt lat="40.75697" lon="-73.98546">
        <ele>265</ele>
        <time>2012-04-09T21:39:39Z</time>
      </trkpt>
      <trkpt lat="40.75699" lon="-73.98547">
        <ele>267</ele>
        <time>2012-04-09T21:39:40Z</time>
      </trkpt>
      <trkpt lat="40.75697" lon="-73.98545">
        <ele>269</ele>
        <time>2012-04-09T21:39:41Z</time>
      </trkpt>
      <trkpt lat="40.75692" lon="-73.98543">
        <ele>271</ele>
        <time>2012-04-09T21:39:42Z</time>
      </trkpt>
      <trkpt lat="40.75693" lon="-73.98541">
        <ele>275</ele>
        <time>2012-04-09T21:39:45Z</time>
      </trkpt>
      <trkpt lat="40.75695" lon="-73.9854">
        <ele>277</ele>
        <time>2012-04-09T21:39:47Z</time>
      </trkpt>
      <trkpt lat="40.75696" lon="-73.9854">
        <ele>279</ele>
        <time>2012-04-09T21:39:49Z</time>
      </trkpt>
      <trkpt lat="40.75697" lon="-73.98539">
        <ele>281</ele>
        <time>2012-04-09T21:39:50Z</time>
      </trkpt>
      <trkpt lat="40.75701" lon="-73.98537">
        <ele>285</ele>
        <time>2012-04-09T21:39:52Z</time>
      </trkpt>
      <trkpt lat="40.75703" lon="-73.98538">
        <ele>295</ele>
        <time>2012-04-09T21:39:56Z</time>
      </trkpt>
      <trkpt lat="40.75701" lon="-73.98536">
        <ele>306</ele>
        <time>2012-04-09T21:39:59Z</time>
      </trkpt>
      <trkpt lat="40.75702" lon="-73.98534">
        <ele>314</ele>
        <time>2012-04-09T21:40:01Z</time>
      </trkpt>
      <trkpt lat="40.75702" lon="-73.98533">
        <ele>318</ele>
        <time>2012-04-09T21:40:02Z</time>
      </trkpt>
      <trkpt lat="40.75704" lon="-73.98533">
        <ele>324</ele>
        <time>2012-04-09T21:40:04Z</time>
      </trkpt>
      <trkpt lat="40.75701" lon="-73.98532">
        <ele>327</ele>
        <time>2012-04-09T21:40:06Z</time>
      </trkpt>
      <trkpt lat="40.757" lon="-73.98534">
        <ele>330</ele>
        <time>2012-04-09T21:40:07Z</time>
      </trkpt>
      <trkpt lat="40.75698" lon="-73.98534">
        <ele>333</ele>
        <time>2012-04-09T21:40:08Z</time>
      </trkpt>
      <trkpt lat="40.75697" lon="-73.98534">
        <ele>342</ele>
        <time>2012-04-09T21:40:12Z</time>
      </trkpt>
      <trkpt lat="40.75695" lon="-73.98533">
        <ele>344</ele>
        <time>2012-04-09T21:40:14Z</time>
      </trkpt>
      <trkpt lat="40.75697" lon="-73.98537">
        <ele>344</ele>
        <time>2012-04-09T21:40:17Z</time>
      </trkpt>
      <trkpt lat="40.75695" lon="-73.98538">
        <ele>344</ele>
        <time>2012-04-09T21:40:18Z</time>
      </trkpt>
      <trkpt lat="40.75694" lon="-73.98537">
        <ele>344</ele>
        <time>2012-04-09T21:40:19Z</time>
      </trkpt>
      <trkpt lat="40.75691" lon="-73.98535">
        <ele>344</ele>
        <time>2012-04-09T21:40:20Z</time>
      </trkpt>
      <trkpt lat="40.75689" lon="-73.98531">
        <ele>344</ele>
        <time>2012-04-09T21:40:21Z</time>
      </trkpt>
      <trkpt lat="40.7569" lon="-73.98529">
        <ele>344</ele>
        <time>2012-04-09T21:40:22Z</time>
      </trkpt>
      <trkpt lat="40.75691" lon="-73.98528">
        <ele>344</ele>
        <time>2012-04-09T21:40:23Z</time>
      </trkpt>
      <trkpt lat="40.75691" lon="-73.98526">
        <ele>344</ele>
        <time>2012-04-09T21:40:24Z</time>
      </trkpt>
      <trkpt lat="40.75691" lon="-73.98524">
        <ele>344</ele>
        <time>2012-04-09T21:40:25Z</time>
      </trkpt>
      <trkpt lat="40.75689" lon="-73.98522">
        <ele>344</ele>
        <time>2012-04-09T21:40:26Z</time>
      </trkpt>
      <trkpt lat="40.75689" lon="-73.98519">
        <ele>343</ele>
        <time>2012-04-09T21:40:27Z</time>
      </trkpt>
      <trkpt lat="40.75689" lon="-73.98517">
        <ele>342</ele>
        <time>2012-04-09T21:40:28Z</time>
      </trkpt>
      <trkpt lat="40.7569" lon="-73.98515">
        <ele>341</ele>
        <time>2012-04-09T21:40:29Z</time>
      </trkpt>
      <trkpt lat="40.7569" lon="-73.98511">
        <ele>340</ele>
        <time>2012-04-09T21:40:30Z</time>
      </trkpt>
      <trkpt lat="40.7569" lon="-73.98508">
        <ele>339</ele>
        <time>2012-04-09T21:40:31Z</time>
      </trkpt>
      <trkpt lat="40.7569" lon="-73.98505">
        <ele>337</ele>
        <time>2012-04-09T21:40:32Z</time>
      </trkpt>
      <trkpt lat="40.7569" lon="-73.98504">
        <ele>335</ele>
        <time>2012-04-09T21:40:33Z</time>
      </trkpt>
      <trkpt lat="40.7569" lon="-73.98501">
        <ele>331</ele>
        <time>2012-04-09T21:40:35Z</time>
      </trkpt>
      <trkpt lat="40.7569" lon="-73.98499">
        <ele>329</ele>
        <time>2012-04-09T21:40:36Z</time>
      </trkpt>
      <trkpt lat="40.7569" lon="-73.98497">
        <ele>327</ele>
        <time>2012-04-09T21:40:37Z</time>
      </trkpt>
      <trkpt lat="40.7569" lon="-73.98494">
        <ele>324</ele>
        <time>2012-04-09T21:40:38Z</time>
      </trkpt>
      <trkpt lat="40.75687" lon="-73.98491">
        <ele>321</ele>
        <time>2012-04-09T21:40:41Z</time>
      </trkpt>
      <trkpt lat="40.75681" lon="-73.98489">
        <ele>318</ele>
        <time>2012-04-09T21:40:42Z</time>
      </trkpt>
      <trkpt lat="40.75682" lon="-73.98489">
        <ele>311</ele>
        <time>2012-04-09T21:40:44Z</time>
      </trkpt>
      <trkpt lat="40.75693" lon="-73.98483">
        <ele>291</ele>
        <time>2012-04-09T21:40:50Z</time>
      </trkpt>
      <trkpt lat="40.75695" lon="-73.9848">
        <ele>288</ele>
        <time>2012-04-09T21:40:51Z</time>
      </trkpt>
      <trkpt lat="40.75693" lon="-73.98481">
        <ele>279</ele>
        <time>2012-04-09T21:40:56Z</time>
      </trkpt>
      <trkpt lat="40.75697" lon="-73.98483">
        <ele>276</ele>
        <time>2012-04-09T21:40:57Z</time>
      </trkpt>
      <trkpt lat="40.75697" lon="-73.98485">
        <ele>274</ele>
        <time>2012-04-09T21:40:58Z</time>
      </trkpt>
      <trkpt lat="40.75693" lon="-73.98484">
        <ele>262</ele>
        <time>2012-04-09T21:41:10Z</time>
      </trkpt>
      <trkpt lat="40.75692" lon="-73.98483">
        <ele>264</ele>
        <time>2012-04-09T21:41:12Z</time>
      </trkpt>
      <trkpt lat="40.75692" lon="-73.9848">
        <ele>266</ele>
        <time>2012-04-09T21:41:14Z</time>
      </trkpt>
      <trkpt lat="40.75693" lon="-73.98483">
        <ele>274</ele>
        <time>2012-04-09T21:41:18Z</time>
      </trkpt>
      <trkpt lat="40.75706" lon="-73.98483">
        <ele>280</ele>
        <time>2012-04-09T21:41:30Z</time>
      </trkpt>
      <trkpt lat="40.75703" lon="-73.98486">
        <ele>284</ele>
        <time>2012-04-09T21:41:31Z</time>
      </trkpt>
      <trkpt lat="40.75704" lon="-73.98487">
        <ele>294</ele>
        <time>2012-04-09T21:41:33Z</time>
      </trkpt>
      <trkpt lat="40.75706" lon="-73.98483">
        <ele>298</ele>
        <time>2012-04-09T21:41:34Z</time>
      </trkpt>
      <trkpt lat="40.75708" lon="-73.98482">
        <ele>302</ele>
        <time>2012-04-09T21:41:35Z</time>
      </trkpt>
      <trkpt lat="40.7571" lon="-73.9848">
        <ele>305</ele>
        <time>2012-04-09T21:41:36Z</time>
      </trkpt>
      <trkpt lat="40.75711" lon="-73.98479">
        <ele>307</ele>
        <time>2012-04-09T21:41:37Z</time>
      </trkpt>
      <trkpt lat="40.75713" lon="-73.98476">
        <ele>309</ele>
        <time>2012-04-09T21:41:41Z</time>
      </trkpt>
      <trkpt lat="40.75714" lon="-73.98473">
        <ele>309</ele>
        <time>2012-04-09T21:41:42Z</time>
      </trkpt>
      <trkpt lat="40.75715" lon="-73.98471">
        <ele>309</ele>
        <time>2012-04-09T21:41:43Z</time>
      </trkpt>
      <trkpt lat="40.75716" lon="-73.98468">
        <ele>308</ele>
        <time>2012-04-09T21:41:44Z</time>
      </trkpt>
      <trkpt lat="40.75726" lon="-73.98474">
        <ele>307</ele>
        <time>2012-04-09T21:41:45Z</time>
      </trkpt>
      <trkpt lat="40.7573" lon="-73.98474">
        <ele>305</ele>
        <time>2012-04-09T21:41:46Z</time>
      </trkpt>
      <trkpt lat="40.75733" lon="-73.98473">
        <ele>303</ele>
        <time>2012-04-09T21:41:47Z</time>
      </trkpt>
      <trkpt lat="40.75737" lon="-73.98473">
        <ele>301</ele>
        <time>2012-04-09T21:41:48Z</time>
      </trkpt>
      <trkpt lat="40.75745" lon="-73.98475">
        <ele>298</ele>
        <time>2012-04-09T21:41:49Z</time>
      </trkpt>
      <trkpt lat="40.75751" lon="-73.98476">
        <ele>295</ele>
        <time>2012-04-09T21:41:50Z</time>
      </trkpt>
      <trkpt lat="40.75755" lon="-73.98475">
        <ele>292</ele>
        <time>2012-04-09T21:41:51Z</time>
      </trkpt>
      <trkpt lat="40.75759" lon="-73.98475">
        <ele>289</ele>
        <time>2012-04-09T21:41:52Z</time>
      </trkpt>
      <trkpt lat="40.75762" lon="-73.98473">
        <ele>285</ele>
        <time>2012-04-09T21:41:53Z</time>
      </trkpt>
      <trkpt lat="40.75764" lon="-73.9847">
        <ele>281</ele>
        <time>2012-04-09T21:41:54Z</time>
      </trkpt>
      <trkpt lat="40.75765" lon="-73.98467">
        <ele>277</ele>
        <time>2012-04-09T21:41:55Z</time>
      </trkpt>
      <trkpt lat="40.75768" lon="-73.98466">
        <ele>274</ele>
        <time>2012-04-09T21:41:56Z</time>
      </trkpt>
      <trkpt lat="40.75771" lon="-73.98463">
        <ele>270</ele>
        <time>2012-04-09T21:41:57Z</time>
      </trkpt>
      <trkpt lat="40.75779" lon="-73.9846">
        <ele>266</ele>
        <time>2012-04-09T21:41:58Z</time>
      </trkpt>
      <trkpt lat="40.75785" lon="-73.98457">
        <ele>262</ele>
        <time>2012-04-09T21:41:59Z</time>
      </trkpt>
      <trkpt lat="40.75787" lon="-73.98455">
        <ele>258</ele>
        <time>2012-04-09T21:42:00Z</time>
      </trkpt>
      <trkpt lat="40.75789" lon="-73.98454">
        <ele>254</ele>
        <time>2012-04-09T21:42:01Z</time>
      </trkpt>
      <trkpt lat="40.75791" lon="-73.98454">
        <ele>250</ele>
        <time>2012-04-09T21:42:02Z</time>
      </trkpt>
      <trkpt lat="40.75793" lon="-73.98453">
        <ele>245</ele>
        <time>2012-04-09T21:42:03Z</time>
      </trkpt>
      <trkpt lat="40.75795" lon="-73.9845">
        <ele>236</ele>
        <time>2012-04-09T21:42:05Z</time>
      </trkpt>
      <trkpt lat="40.75796" lon="-73.98449">
        <ele>232</ele>
        <time>2012-04-09T21:42:06Z</time>
      </trkpt>
      <trkpt lat="40.75798" lon="-73.98448">
        <ele>228</ele>
        <time>2012-04-09T21:42:07Z</time>
      </trkpt>
      <trkpt lat="40.75801" lon="-73.98447">
        <ele>224</ele>
        <time>2012-04-09T21:42:08Z</time>
      </trkpt>
      <trkpt lat="40.75805" lon="-73.98444">
        <ele>220</ele>
        <time>2012-04-09T21:42:09Z</time>
      </trkpt>
      <trkpt lat="40.75807" lon="-73.98441">
        <ele>216</ele>
        <time>2012-04-09T21:42:10Z</time>
      </trkpt>
      <trkpt lat="40.75808" lon="-73.98439">
        <ele>211</ele>
        <time>2012-04-09T21:42:11Z</time>
      </trkpt>
      <trkpt lat="40.75811" lon="-73.98436">
        <ele>206</ele>
        <time>2012-04-09T21:42:12Z</time>
      </trkpt>
      <trkpt lat="40.75814" lon="-73.9843">
        <ele>201</ele>
        <time>2012-04-09T21:42:14Z</time>
      </trkpt>
      <trkpt lat="40.75815" lon="-73.98425">
        <ele>196</ele>
        <time>2012-04-09T21:42:15Z</time>
      </trkpt>
      <trkpt lat="40.75816" lon="-73.98422">
        <ele>192</ele>
        <time>2012-04-09T21:42:16Z</time>
      </trkpt>
      <trkpt lat="40.75818" lon="-73.98421">
        <ele>184</ele>
        <time>2012-04-09T21:42:18Z</time>
      </trkpt>
      <trkpt lat="40.7582" lon="-73.98418">
        <ele>176</ele>
        <time>2012-04-09T21:42:20Z</time>
      </trkpt>
      <trkpt lat="40.75826" lon="-73.98432">
        <ele>173</ele>
        <time>2012-04-09T21:42:30Z</time>
      </trkpt>
      <trkpt lat="40.75825" lon="-73.9843">
        <ele>168</ele>
        <time>2012-04-09T21:42:33Z</time>
      </trkpt>
      <trkpt lat="40.75819" lon="-73.98425">
        <ele>165</ele>
        <time>2012-04-09T21:42:36Z</time>
      </trkpt>
      <trkpt lat="40.75818" lon="-73.98418">
        <ele>164</ele>
        <time>2012-04-09T21:42:47Z</time>
      </trkpt>
      <trkpt lat="40.75863" lon="-73.98328">
        <ele>164</ele>
        <time>2012-04-09T21:42:48Z</time>
      </trkpt>
      <trkpt lat="40.75862" lon="-73.98335">
        <ele>164</ele>
        <time>2012-04-09T21:42:49Z</time>
      </trkpt>
      <trkpt lat="40.75892" lon="-73.9834">
        <ele>165</ele>
        <time>2012-04-09T21:42:51Z</time>
      </trkpt>
      <trkpt lat="40.75915" lon="-73.98341">
        <ele>166</ele>
        <time>2012-04-09T21:42:52Z</time>
      </trkpt>
      <trkpt lat="40.75914" lon="-73.98339">
        <ele>171</ele>
        <time>2012-04-09T21:42:54Z</time>
      </trkpt>
      <trkpt lat="40.75913" lon="-73.98339">
        <ele>174</ele>
        <time>2012-04-09T21:42:55Z</time>
      </trkpt>
      <trkpt lat="40.75912" lon="-73.98338">
        <ele>178</ele>
        <time>2012-04-09T21:42:56Z</time>
      </trkpt>
      <trkpt lat="40.7591" lon="-73.98338">
        <ele>197</ele>
        <time>2012-04-09T21:43:02Z</time>
      </trkpt>
      <trkpt lat="40.75917" lon="-73.98339">
        <ele>200</ele>
        <time>2012-04-09T21:43:03Z</time>
      </trkpt>
      <trkpt lat="40.75927" lon="-73.98336">
        <ele>203</ele>
        <time>2012-04-09T21:43:06Z</time>
      </trkpt>
      <trkpt lat="40.75928" lon="-73.98334">
        <ele>209</ele>
        <time>2012-04-09T21:43:08Z</time>
      </trkpt>
      <trkpt lat="40.75929" lon="-73.98335">
        <ele>212</ele>
        <time>2012-04-09T21:43:09Z</time>
      </trkpt>
      <trkpt lat="40.75933" lon="-73.98337">
        <ele>219</ele>
        <time>2012-04-09T21:43:11Z</time>
      </trkpt>
      <trkpt lat="40.75937" lon="-73.98338">
        <ele>227</ele>
        <time>2012-04-09T21:43:13Z</time>
      </trkpt>
      <trkpt lat="40.75936" lon="-73.9834">
        <ele>231</ele>
        <time>2012-04-09T21:43:14Z</time>
      </trkpt>
      <trkpt lat="40.75938" lon="-73.98341">
        <ele>235</ele>
        <time>2012-04-09T21:43:15Z</time>
      </trkpt>
      <trkpt lat="40.75939" lon="-73.98345">
        <ele>245</ele>
        <time>2012-04-09T21:43:17Z</time>
      </trkpt>
      <trkpt lat="40.7594" lon="-73.98346">
        <ele>250</ele>
        <time>2012-04-09T21:43:18Z</time>
      </trkpt>
      <trkpt lat="40.75941" lon="-73.98349">
        <ele>255</ele>
        <time>2012-04-09T21:43:19Z</time>
      </trkpt>
      <trkpt lat="40.75935" lon="-73.98348">
        <ele>261</ele>
        <time>2012-04-09T21:43:20Z</time>
      </trkpt>
      <trkpt lat="40.75933" lon="-73.98352">
        <ele>267</ele>
        <time>2012-04-09T21:43:21Z</time>
      </trkpt>
      <trkpt lat="40.75932" lon="-73.98354">
        <ele>273</ele>
        <time>2012-04-09T21:43:22Z</time>
      </trkpt>
      <trkpt lat="40.75933" lon="-73.98359">
        <ele>279</ele>
        <time>2012-04-09T21:43:23Z</time>
      </trkpt>
      <trkpt lat="40.75938" lon="-73.98403">
        <ele>292</ele>
        <time>2012-04-09T21:43:25Z</time>
      </trkpt>
      <trkpt lat="40.7594" lon="-73.98405">
        <ele>300</ele>
        <time>2012-04-09T21:43:26Z</time>
      </trkpt>
      <trkpt lat="40.75935" lon="-73.98406">
        <ele>309</ele>
        <time>2012-04-09T21:43:27Z</time>
      </trkpt>
      <trkpt lat="40.75936" lon="-73.98409">
        <ele>318</ele>
        <time>2012-04-09T21:43:28Z</time>
      </trkpt>
      <trkpt lat="40.75933" lon="-73.98409">
        <ele>327</ele>
        <time>2012-04-09T21:43:29Z</time>
      </trkpt>
      <trkpt lat="40.75934" lon="-73.98412">
        <ele>334</ele>
        <time>2012-04-09T21:43:30Z</time>
      </trkpt>
      <trkpt lat="40.75932" lon="-73.98411">
        <ele>350</ele>
        <time>2012-04-09T21:43:33Z</time>
      </trkpt>
      <trkpt lat="40.7593" lon="-73.98409">
        <ele>357</ele>
        <time>2012-04-09T21:43:35Z</time>
      </trkpt>
      <trkpt lat="40.75929" lon="-73.98409">
        <ele>359</ele>
        <time>2012-04-09T21:43:36Z</time>
      </trkpt>
      <trkpt lat="40.75927" lon="-73.98409">
        <ele>362</ele>
        <time>2012-04-09T21:43:38Z</time>
      </trkpt>
      <trkpt lat="40.75924" lon="-73.98411">
        <ele>363</ele>
        <time>2012-04-09T21:43:39Z</time>
      </trkpt>
      <trkpt lat="40.75922" lon="-73.98412">
        <ele>363</ele>
        <time>2012-04-09T21:43:40Z</time>
      </trkpt>
      <trkpt lat="40.7592" lon="-73.98415">
        <ele>363</ele>
        <time>2012-04-09T21:43:41Z</time>
      </trkpt>
      <trkpt lat="40.75919" lon="-73.98417">
        <ele>363</ele>
        <time>2012-04-09T21:43:42Z</time>
      </trkpt>
      <trkpt lat="40.75917" lon="-73.98418">
        <ele>362</ele>
        <time>2012-04-09T21:43:43Z</time>
      </trkpt>
      <trkpt lat="40.75914" lon="-73.98427">
        <ele>361</ele>
        <time>2012-04-09T21:43:49Z</time>
      </trkpt>
      <trkpt lat="40.75919" lon="-73.98429">
        <ele>360</ele>
        <time>2012-04-09T21:43:52Z</time>
      </trkpt>
      <trkpt lat="40.7592" lon="-73.98428">
        <ele>355</ele>
        <time>2012-04-09T21:43:56Z</time>
      </trkpt>
      <trkpt lat="40.75922" lon="-73.98428">
        <ele>351</ele>
        <time>2012-04-09T21:43:59Z</time>
      </trkpt>
      <trkpt lat="40.75923" lon="-73.98427">
        <ele>349</ele>
        <time>2012-04-09T21:44:01Z</time>
      </trkpt>
      <trkpt lat="40.76067" lon="-73.98314">
        <ele>331</ele>
        <time>2012-04-09T21:47:50Z</time>
      </trkpt>
      <trkpt lat="40.76065" lon="-73.98314">
        <ele>332</ele>
        <time>2012-04-09T21:47:51Z</time>
      </trkpt>
      <trkpt lat="40.76064" lon="-73.98315">
        <ele>334</ele>
        <time>2012-04-09T21:47:53Z</time>
      </trkpt>
      <trkpt lat="40.7607" lon="-73.98318">
        <ele>335</ele>
        <time>2012-04-09T21:47:58Z</time>
      </trkpt>
      <trkpt lat="40.76073" lon="-73.98318">
        <ele>336</ele>
        <time>2012-04-09T21:47:59Z</time>
      </trkpt>
      <trkpt lat="40.76074" lon="-73.98327">
        <ele>346</ele>
        <time>2012-04-09T21:48:05Z</time>
      </trkpt>
      <trkpt lat="40.76073" lon="-73.98328">
        <ele>349</ele>
        <time>2012-04-09T21:48:06Z</time>
      </trkpt>
      <trkpt lat="40.76075" lon="-73.98325">
        <ele>355</ele>
        <time>2012-04-09T21:48:10Z</time>
      </trkpt>
      <trkpt lat="40.76077" lon="-73.98327">
        <ele>360</ele>
        <time>2012-04-09T21:48:12Z</time>
      </trkpt>
      <trkpt lat="40.76079" lon="-73.98328">
        <ele>362</ele>
        <time>2012-04-09T21:48:13Z</time>
      </trkpt>
      <trkpt lat="40.7608" lon="-73.98334">
        <ele>364</ele>
        <time>2012-04-09T21:48:17Z</time>
      </trkpt>
      <trkpt lat="40.76078" lon="-73.98335">
        <ele>366</ele>
        <time>2012-04-09T21:48:18Z</time>
      </trkpt>
      <trkpt lat="40.76132" lon="-73.98319">
        <ele>391</ele>
        <time>2012-04-09T21:51:30Z</time>
      </trkpt>
      <trkpt lat="40.76074" lon="-73.98317">
        <ele>392</ele>
        <time>2012-04-09T21:51:31Z</time>
      </trkpt>
      <trkpt lat="40.76052" lon="-73.98319">
        <ele>392</ele>
        <time>2012-04-09T21:51:32Z</time>
      </trkpt>
      <trkpt lat="40.7607" lon="-73.9835">
        <ele>391</ele>
        <time>2012-04-09T21:51:33Z</time>
      </trkpt>
      <trkpt lat="40.76067" lon="-73.98352">
        <ele>389</ele>
        <time>2012-04-09T21:51:34Z</time>
      </trkpt>
      <trkpt lat="40.76091" lon="-73.98371">
        <ele>386</ele>
        <time>2012-04-09T21:51:35Z</time>
      </trkpt>
      <trkpt lat="40.76096" lon="-73.98375">
        <ele>382</ele>
        <time>2012-04-09T21:51:36Z</time>
      </trkpt>
      <trkpt lat="40.76101" lon="-73.98379">
        <ele>378</ele>
        <time>2012-04-09T21:51:37Z</time>
      </trkpt>
      <trkpt lat="40.76115" lon="-73.98388">
        <ele>374</ele>
        <time>2012-04-09T21:51:38Z</time>
      </trkpt>
      <trkpt lat="40.76117" lon="-73.98391">
        <ele>371</ele>
        <time>2012-04-09T21:51:39Z</time>
      </trkpt>
      <trkpt lat="40.76119" lon="-73.98392">
        <ele>369</ele>
        <time>2012-04-09T21:51:40Z</time>
      </trkpt>
      <trkpt lat="40.76125" lon="-73.98395">
        <ele>367</ele>
        <time>2012-04-09T21:51:41Z</time>
      </trkpt>
      <trkpt lat="40.76128" lon="-73.98396">
        <ele>365</ele>
        <time>2012-04-09T21:51:42Z</time>
      </trkpt>
      <trkpt lat="40.76129" lon="-73.98398">
        <ele>363</ele>
        <time>2012-04-09T21:51:43Z</time>
      </trkpt>
      <trkpt lat="40.76131" lon="-73.98399">
        <ele>361</ele>
        <time>2012-04-09T21:51:44Z</time>
      </trkpt>
      <trkpt lat="40.76133" lon="-73.98399">
        <ele>359</ele>
        <time>2012-04-09T21:51:46Z</time>
      </trkpt>
      <trkpt lat="40.76135" lon="-73.984">
        <ele>358</ele>
        <time>2012-04-09T21:51:46Z</time>
      </trkpt>
      <trkpt lat="40.76138" lon="-73.984">
        <ele>357</ele>
        <time>2012-04-09T21:51:47Z</time>
      </trkpt>
      <trkpt lat="40.76143" lon="-73.98403">
        <ele>356</ele>
        <time>2012-04-09T21:51:48Z</time>
      </trkpt>
      <trkpt lat="40.76147" lon="-73.98405">
        <ele>355</ele>
        <time>2012-04-09T21:51:49Z</time>
      </trkpt>
      <trkpt lat="40.76152" lon="-73.98407">
        <ele>354</ele>
        <time>2012-04-09T21:51:50Z</time>
      </trkpt>
      <trkpt lat="40.76155" lon="-73.98409">
        <ele>353</ele>
        <time>2012-04-09T21:51:51Z</time>
      </trkpt>
      <trkpt lat="40.76159" lon="-73.98411">
        <ele>351</ele>
        <time>2012-04-09T21:51:53Z</time>
      </trkpt>
      <trkpt lat="40.76162" lon="-73.98412">
        <ele>350</ele>
        <time>2012-04-09T21:51:54Z</time>
      </trkpt>
      <trkpt lat="40.76163" lon="-73.98412">
        <ele>349</ele>
        <time>2012-04-09T21:51:55Z</time>
      </trkpt>
      <trkpt lat="40.76165" lon="-73.98413">
        <ele>348</ele>
        <time>2012-04-09T21:51:56Z</time>
      </trkpt>
      <trkpt lat="40.76167" lon="-73.98415">
        <ele>347</ele>
        <time>2012-04-09T21:51:57Z</time>
      </trkpt>
      <trkpt lat="40.76169" lon="-73.98416">
        <ele>346</ele>
        <time>2012-04-09T21:51:58Z</time>
      </trkpt>
      <trkpt lat="40.76172" lon="-73.98418">
        <ele>345</ele>
        <time>2012-04-09T21:51:59Z</time>
      </trkpt>
      <trkpt lat="40.76178" lon="-73.98421">
        <ele>344</ele>
        <time>2012-04-09T21:52:00Z</time>
      </trkpt>
      <trkpt lat="40.7618" lon="-73.98423">
        <ele>343</ele>
        <time>2012-04-09T21:52:01Z</time>
      </trkpt>
      <trkpt lat="40.76182" lon="-73.98426">
        <ele>342</ele>
        <time>2012-04-09T21:52:02Z</time>
      </trkpt>
      <trkpt lat="40.76182" lon="-73.98428">
        <ele>341</ele>
        <time>2012-04-09T21:52:03Z</time>
      </trkpt>
      <trkpt lat="40.76185" lon="-73.98431">
        <ele>339</ele>
        <time>2012-04-09T21:52:04Z</time>
      </trkpt>
      <trkpt lat="40.76185" lon="-73.98432">
        <ele>337</ele>
        <time>2012-04-09T21:52:05Z</time>
      </trkpt>
      <trkpt lat="40.76187" lon="-73.98434">
        <ele>335</ele>
        <time>2012-04-09T21:52:06Z</time>
      </trkpt>
      <trkpt lat="40.76188" lon="-73.98435">
        <ele>333</ele>
        <time>2012-04-09T21:52:07Z</time>
      </trkpt>
      <trkpt lat="40.76185" lon="-73.98435">
        <ele>331</ele>
        <time>2012-04-09T21:52:09Z</time>
      </trkpt>
      <trkpt lat="40.76183" lon="-73.98434">
        <ele>330</ele>
        <time>2012-04-09T21:52:10Z</time>
      </trkpt>
      <trkpt lat="40.7618" lon="-73.98433">
        <ele>329</ele>
        <time>2012-04-09T21:52:11Z</time>
      </trkpt>
      <trkpt lat="40.76178" lon="-73.98431">
        <ele>329</ele>
        <time>2012-04-09T21:52:12Z</time>
      </trkpt>
      <trkpt lat="40.76175" lon="-73.98431">
        <ele>329</ele>
        <time>2012-04-09T21:52:13Z</time>
      </trkpt>
      <trkpt lat="40.76173" lon="-73.98431">
        <ele>329</ele>
        <time>2012-04-09T21:52:14Z</time>
      </trkpt>
      <trkpt lat="40.76175" lon="-73.98432">
        <ele>329</ele>
        <time>2012-04-09T21:52:16Z</time>
      </trkpt>
      <trkpt lat="40.76176" lon="-73.98433">
        <ele>330</ele>
        <time>2012-04-09T21:52:17Z</time>
      </trkpt>
      <trkpt lat="40.76179" lon="-73.98434">
        <ele>331</ele>
        <time>2012-04-09T21:52:18Z</time>
      </trkpt>
      <trkpt lat="40.76181" lon="-73.98435">
        <ele>331</ele>
        <time>2012-04-09T21:52:19Z</time>
      </trkpt>
      <trkpt lat="40.76183" lon="-73.98436">
        <ele>331</ele>
        <time>2012-04-09T21:52:20Z</time>
      </trkpt>
      <trkpt lat="40.76183" lon="-73.98431">
        <ele>331</ele>
        <time>2012-04-09T21:52:30Z</time>
      </trkpt>
      <trkpt lat="40.76183" lon="-73.98429">
        <ele>331</ele>
        <time>2012-04-09T21:52:31Z</time>
      </trkpt>
      <trkpt lat="40.7618" lon="-73.98428">
        <ele>331</ele>
        <time>2012-04-09T21:52:32Z</time>
      </trkpt>
      <trkpt lat="40.76177" lon="-73.98428">
        <ele>331</ele>
        <time>2012-04-09T21:52:33Z</time>
      </trkpt>
      <trkpt lat="40.76176" lon="-73.98429">
        <ele>331</ele>
        <time>2012-04-09T21:52:34Z</time>
      </trkpt>
      <trkpt lat="40.76184" lon="-73.98433">
        <ele>325</ele>
        <time>2012-04-09T21:52:40Z</time>
      </trkpt>
      <trkpt lat="40.76181" lon="-73.98433">
        <ele>322</ele>
        <time>2012-04-09T21:52:43Z</time>
      </trkpt>
      <trkpt lat="40.76181" lon="-73.98434">
        <ele>321</ele>
        <time>2012-04-09T21:52:44Z</time>
      </trkpt>
      <trkpt lat="40.76177" lon="-73.98439">
        <ele>320</ele>
        <time>2012-04-09T21:52:48Z</time>
      </trkpt>
      <trkpt lat="40.76173" lon="-73.98441">
        <ele>319</ele>
        <time>2012-04-09T21:52:50Z</time>
      </trkpt>
      <trkpt lat="40.76168" lon="-73.98444">
        <ele>319</ele>
        <time>2012-04-09T21:52:52Z</time>
      </trkpt>
      <trkpt lat="40.76168" lon="-73.98448">
        <ele>319</ele>
        <time>2012-04-09T21:52:53Z</time>
      </trkpt>
      <trkpt lat="40.76164" lon="-73.98452">
        <ele>320</ele>
        <time>2012-04-09T21:52:54Z</time>
      </trkpt>
      <trkpt lat="40.7616" lon="-73.98457">
        <ele>321</ele>
        <time>2012-04-09T21:52:57Z</time>
      </trkpt>
      <trkpt lat="40.76159" lon="-73.98459">
        <ele>323</ele>
        <time>2012-04-09T21:52:58Z</time>
      </trkpt>
      <trkpt lat="40.76157" lon="-73.9846">
        <ele>327</ele>
        <time>2012-04-09T21:53:00Z</time>
      </trkpt>
      <trkpt lat="40.76157" lon="-73.98457">
        <ele>328</ele>
        <time>2012-04-09T21:53:01Z</time>
      </trkpt>
      <trkpt lat="40.7616" lon="-73.98458">
        <ele>328</ele>
        <time>2012-04-09T21:53:02Z</time>
      </trkpt>
      <trkpt lat="40.76163" lon="-73.98463">
        <ele>327</ele>
        <time>2012-04-09T21:53:04Z</time>
      </trkpt>
      <trkpt lat="40.76163" lon="-73.98466">
        <ele>325</ele>
        <time>2012-04-09T21:53:05Z</time>
      </trkpt>
      <trkpt lat="40.76164" lon="-73.98469">
        <ele>323</ele>
        <time>2012-04-09T21:53:06Z</time>
      </trkpt>
      <trkpt lat="40.76162" lon="-73.98472">
        <ele>320</ele>
        <time>2012-04-09T21:53:07Z</time>
      </trkpt>
      <trkpt lat="40.76161" lon="-73.98473">
        <ele>316</ele>
        <time>2012-04-09T21:53:09Z</time>
      </trkpt>
      <trkpt lat="40.76159" lon="-73.98476">
        <ele>312</ele>
        <time>2012-04-09T21:53:11Z</time>
      </trkpt>
      <trkpt lat="40.76157" lon="-73.98479">
        <ele>308</ele>
        <time>2012-04-09T21:53:13Z</time>
      </trkpt>
      <trkpt lat="40.76157" lon="-73.98481">
        <ele>306</ele>
        <time>2012-04-09T21:53:14Z</time>
      </trkpt>
      <trkpt lat="40.76154" lon="-73.98483">
        <ele>304</ele>
        <time>2012-04-09T21:53:15Z</time>
      </trkpt>
      <trkpt lat="40.76149" lon="-73.98486">
        <ele>301</ele>
        <time>2012-04-09T21:53:17Z</time>
      </trkpt>
      <trkpt lat="40.76145" lon="-73.98489">
        <ele>301</ele>
        <time>2012-04-09T21:53:19Z</time>
      </trkpt>
      <trkpt lat="40.76141" lon="-73.98492">
        <ele>301</ele>
        <time>2012-04-09T21:53:21Z</time>
      </trkpt>
      <trkpt lat="40.76137" lon="-73.98494">
        <ele>301</ele>
        <time>2012-04-09T21:53:23Z</time>
      </trkpt>
      <trkpt lat="40.76133" lon="-73.98495">
        <ele>301</ele>
        <time>2012-04-09T21:53:25Z</time>
      </trkpt>
      <trkpt lat="40.76128" lon="-73.98498">
        <ele>301</ele>
        <time>2012-04-09T21:53:28Z</time>
      </trkpt>
      <trkpt lat="40.76124" lon="-73.98499">
        <ele>301</ele>
        <time>2012-04-09T21:53:29Z</time>
      </trkpt>
      <trkpt lat="40.76119" lon="-73.98499">
        <ele>301</ele>
        <time>2012-04-09T21:53:31Z</time>
      </trkpt>
      <trkpt lat="40.76104" lon="-73.98504">
        <ele>301</ele>
        <time>2012-04-09T21:53:33Z</time>
      </trkpt>
      <trkpt lat="40.7608" lon="-73.9851">
        <ele>298</ele>
        <time>2012-04-09T21:53:35Z</time>
      </trkpt>
      <trkpt lat="40.76078" lon="-73.98508">
        <ele>296</ele>
        <time>2012-04-09T21:53:36Z</time>
      </trkpt>
      <trkpt lat="40.76057" lon="-73.98513">
        <ele>294</ele>
        <time>2012-04-09T21:53:37Z</time>
      </trkpt>
      <trkpt lat="40.76056" lon="-73.98512">
        <ele>292</ele>
        <time>2012-04-09T21:53:38Z</time>
      </trkpt>
      <trkpt lat="40.7604" lon="-73.98515">
        <ele>291</ele>
        <time>2012-04-09T21:53:39Z</time>
      </trkpt>
      <trkpt lat="40.76037" lon="-73.98513">
        <ele>290</ele>
        <time>2012-04-09T21:53:40Z</time>
      </trkpt>
      <trkpt lat="40.76024" lon="-73.98515">
        <ele>289</ele>
        <time>2012-04-09T21:53:41Z</time>
      </trkpt>
      <trkpt lat="40.76022" lon="-73.98515">
        <ele>288</ele>
        <time>2012-04-09T21:53:42Z</time>
      </trkpt>
      <trkpt lat="40.76012" lon="-73.98517">
        <ele>287</ele>
        <time>2012-04-09T21:53:43Z</time>
      </trkpt>
      <trkpt lat="40.7601" lon="-73.98515">
        <ele>287</ele>
        <time>2012-04-09T21:53:44Z</time>
      </trkpt>
      <trkpt lat="40.76003" lon="-73.98518">
        <ele>287</ele>
        <time>2012-04-09T21:53:45Z</time>
      </trkpt>
      <trkpt lat="40.75998" lon="-73.98524">
        <ele>287</ele>
        <time>2012-04-09T21:53:47Z</time>
      </trkpt>
      <trkpt lat="40.75998" lon="-73.98527">
        <ele>287</ele>
        <time>2012-04-09T21:53:48Z</time>
      </trkpt>
      <trkpt lat="40.75996" lon="-73.98531">
        <ele>287</ele>
        <time>2012-04-09T21:53:49Z</time>
      </trkpt>
      <trkpt lat="40.75993" lon="-73.98534">
        <ele>287</ele>
        <time>2012-04-09T21:53:50Z</time>
      </trkpt>
      <trkpt lat="40.75991" lon="-73.98536">
        <ele>287</ele>
        <time>2012-04-09T21:53:51Z</time>
      </trkpt>
      <trkpt lat="40.75988" lon="-73.98537">
        <ele>286</ele>
        <time>2012-04-09T21:53:52Z</time>
      </trkpt>
      <trkpt lat="40.75983" lon="-73.98537">
        <ele>285</ele>
        <time>2012-04-09T21:53:53Z</time>
      </trkpt>
      <trkpt lat="40.75982" lon="-73.98536">
        <ele>284</ele>
        <time>2012-04-09T21:53:54Z</time>
      </trkpt>
      <trkpt lat="40.75983" lon="-73.98534">
        <ele>282</ele>
        <time>2012-04-09T21:53:57Z</time>
      </trkpt>
      <trkpt lat="40.75984" lon="-73.98535">
        <ele>280</ele>
        <time>2012-04-09T21:53:58Z</time>
      </trkpt>
      <trkpt lat="40.75981" lon="-73.98539">
        <ele>276</ele>
        <time>2012-04-09T21:54:00Z</time>
      </trkpt>
      <trkpt lat="40.75979" lon="-73.98542">
        <ele>274</ele>
        <time>2012-04-09T21:54:01Z</time>
      </trkpt>
      <trkpt lat="40.75981" lon="-73.98548">
        <ele>272</ele>
        <time>2012-04-09T21:54:02Z</time>
      </trkpt>
      <trkpt lat="40.75981" lon="-73.98551">
        <ele>270</ele>
        <time>2012-04-09T21:54:03Z</time>
      </trkpt>
      <trkpt lat="40.7598" lon="-73.98552">
        <ele>268</ele>
        <time>2012-04-09T21:54:04Z</time>
      </trkpt>
      <trkpt lat="40.75977" lon="-73.9855">
        <ele>266</ele>
        <time>2012-04-09T21:54:05Z</time>
      </trkpt>
      <trkpt lat="40.75977" lon="-73.98553">
        <ele>260</ele>
        <time>2012-04-09T21:54:07Z</time>
      </trkpt>
      <trkpt lat="40.75976" lon="-73.98553">
        <ele>254</ele>
        <time>2012-04-09T21:54:10Z</time>
      </trkpt>
      <trkpt lat="40.75974" lon="-73.98553">
        <ele>249</ele>
        <time>2012-04-09T21:54:12Z</time>
      </trkpt>
      <trkpt lat="40.7597" lon="-73.98553">
        <ele>246</ele>
        <time>2012-04-09T21:54:13Z</time>
      </trkpt>
      <trkpt lat="40.75969" lon="-73.98553">
        <ele>240</ele>
        <time>2012-04-09T21:54:15Z</time>
      </trkpt>
      <trkpt lat="40.75967" lon="-73.98553">
        <ele>232</ele>
        <time>2012-04-09T21:54:18Z</time>
      </trkpt>
      <trkpt lat="40.75966" lon="-73.98555">
        <ele>226</ele>
        <time>2012-04-09T21:54:20Z</time>
      </trkpt>
      <trkpt lat="40.75964" lon="-73.98557">
        <ele>220</ele>
        <time>2012-04-09T21:54:22Z</time>
      </trkpt>
      <trkpt lat="40.75963" lon="-73.98561">
        <ele>217</ele>
        <time>2012-04-09T21:54:23Z</time>
      </trkpt>
      <trkpt lat="40.75961" lon="-73.98563">
        <ele>212</ele>
        <time>2012-04-09T21:54:25Z</time>
      </trkpt>
      <trkpt lat="40.75962" lon="-73.98561">
        <ele>208</ele>
        <time>2012-04-09T21:54:27Z</time>
      </trkpt>
      <trkpt lat="40.75962" lon="-73.9856">
        <ele>206</ele>
        <time>2012-04-09T21:54:28Z</time>
      </trkpt>
      <trkpt lat="40.75962" lon="-73.98557">
        <ele>202</ele>
        <time>2012-04-09T21:54:30Z</time>
      </trkpt>
      <trkpt lat="40.75962" lon="-73.98553">
        <ele>200</ele>
        <time>2012-04-09T21:54:31Z</time>
      </trkpt>
      <trkpt lat="40.75962" lon="-73.98551">
        <ele>198</ele>
        <time>2012-04-09T21:54:32Z</time>
      </trkpt>
      <trkpt lat="40.75962" lon="-73.98549">
        <ele>196</ele>
        <time>2012-04-09T21:54:33Z</time>
      </trkpt>
      <trkpt lat="40.75961" lon="-73.98546">
        <ele>194</ele>
        <time>2012-04-09T21:54:34Z</time>
      </trkpt>
      <trkpt lat="40.75961" lon="-73.98543">
        <ele>192</ele>
        <time>2012-04-09T21:54:35Z</time>
      </trkpt>
      <trkpt lat="40.75961" lon="-73.9854">
        <ele>190</ele>
        <time>2012-04-09T21:54:36Z</time>
      </trkpt>
      <trkpt lat="40.75961" lon="-73.98536">
        <ele>188</ele>
        <time>2012-04-09T21:54:37Z</time>
      </trkpt>
      <trkpt lat="40.7596" lon="-73.98534">
        <ele>185</ele>
        <time>2012-04-09T21:54:38Z</time>
      </trkpt>
      <trkpt lat="40.75959" lon="-73.98531">
        <ele>182</ele>
        <time>2012-04-09T21:54:39Z</time>
      </trkpt>
      <trkpt lat="40.75959" lon="-73.98529">
        <ele>179</ele>
        <time>2012-04-09T21:54:40Z</time>
      </trkpt>
      <trkpt lat="40.75959" lon="-73.98528">
        <ele>176</ele>
        <time>2012-04-09T21:54:41Z</time>
      </trkpt>
      <trkpt lat="40.75958" lon="-73.98526">
        <ele>173</ele>
        <time>2012-04-09T21:54:42Z</time>
      </trkpt>
      <trkpt lat="40.75956" lon="-73.98524">
        <ele>167</ele>
        <time>2012-04-09T21:54:44Z</time>
      </trkpt>
      <trkpt lat="40.75955" lon="-73.98523">
        <ele>161</ele>
        <time>2012-04-09T21:54:46Z</time>
      </trkpt>
      <trkpt lat="40.75954" lon="-73.98524">
        <ele>155</ele>
        <time>2012-04-09T21:54:48Z</time>
      </trkpt>
      <trkpt lat="40.75956" lon="-73.98524">
        <ele>148</ele>
        <time>2012-04-09T21:54:51Z</time>
      </trkpt>
      <trkpt lat="40.75957" lon="-73.98541">
        <ele>142</ele>
        <time>2012-04-09T21:55:00Z</time>
      </trkpt>
      <trkpt lat="40.75958" lon="-73.98543">
        <ele>142</ele>
        <time>2012-04-09T21:55:02Z</time>
      </trkpt>
    </trkseg>
  </trk>
</gpx>